GFSGL_925_thetae_000.txt.gz
Theta_e
321 322 323 322 323 325 325 326 327 325 326 327 327 327 328 329 329 333 332 330 330 328 328 328 327 326 326 326 324 323 326 324 325 322 321 323 320 318 316 320 320 315 313
319 321 322 321 323 323 325 326 327 329 328 327 327 328 328 327 327 331 332 332 332 331 331 330 328 329 328 327 326 323 325 325 325 320 320 322 321 323 321 323 321 321 319
317 319 322 321 323 323 324 325 323 326 328 329 328 327 327 328 328 329 332 332 332 332 332 332 330 331 329 329 326 322 321 320 322 319 319 319 321 322 323 321 320 319 317
317 317 319 322 322 323 324 324 323 322 324 327 327 328 329 327 326 329 332 332 332 332 331 331 330 330 329 329 325 320 317 318 319 319 320 320 320 320 321 320 318 316 314
317 317 317 322 320 321 323 324 324 322 321 320 322 322 323 324 324 326 326 326 327 327 327 328 328 328 328 325 317 320 322 319 321 320 320 320 320 320 320 320 319 318 316
319 319 317 317 320 320 322 324 323 323 320 320 320 320 320 319 322 324 324 323 323 324 323 320 318 317 317 318 322 324 323 322 321 321 321 321 321 321 321 320 320 320 318
319 320 318 316 318 320 320 321 323 324 324 321 320 320 321 318 318 320 324 326 325 325 325 324 320 319 320 318 317 317 318 319 323 325 324 322 322 323 322 321 320 319 319
320 320 319 315 316 319 320 321 324 326 325 324 323 322 320 316 315 315 317 323 323 323 324 324 322 322 320 320 320 320 319 317 316 317 323 324 324 323 323 322 321 320 319
319 320 319 316 316 318 319 321 323 324 325 324 323 323 321 316 312 312 313 317 318 318 317 316 317 316 309 308 315 317 317 317 313 312 313 313 314 314 316 318 316 316 316
319 319 319 317 316 317 318 321 322 321 321 319 320 321 320 319 311 307 309 311 314 311 310 308 307 310 302 306 316 316 317 317 313 309 308 307 306 307 306 305 310 311 312
319 319 320 318 316 318 320 321 321 320 318 319 318 319 318 318 313 308 308 310 310 309 308 308 304 301 302 303 308 313 314 314 312 308 310 310 309 309 308 304 305 307 307
320 319 320 320 316 318 321 321 321 319 319 319 317 317 316 317 317 309 309 312 312 312 313 313 312 304 302 302 304 307 306 306 309 311 311 311 311 310 309 308 308 308 307
320 319 320 321 318 318 321 321 320 320 317 317 316 316 315 315 316 310 310 310 312 317 317 316 314 308 307 306 307 307 306 307 309 312 314 313 313 312 310 308 306 307 306
321 321 321 322 320 317 319 320 318 318 317 317 316 316 316 315 315 315 309 309 311 311 312 312 311 310 309 311 311 309 307 310 313 315 315 313 312 312 311 309 310 309 306
322 322 322 322 321 319 317 318 317 317 317 317 317 317 317 317 316 315 315 314 313 311 313 315 314 314 314 314 315 315 315 315 315 316 315 316 316 313 311 308 305 306 307
325 323 324 322 322 320 318 317 317 317 316 316 317 317 317 317 316 315 313 313 312 312 312 316 318 317 316 317 320 321 320 317 317 313 311 309 306 304 304 303 305 305 306
326 323 323 322 322 320 319 317 317 316 316 316 315 316 317 318 316 314 312 312 312 312 314 319 317 316 318 319 320 320 318 311 307 307 303 301 302 304 305 305 305 305 305
326 324 322 322 322 321 320 319 318 317 316 315 312 311 311 311 311 310 311 312 312 311 316 318 319 320 320 318 314 308 306 304 301 301 303 304 304 304 304 304 304 304 304
326 324 323 322 322 322 321 321 319 319 318 316 317 314 315 314 314 313 311 315 320 319 317 318 319 317 311 307 304 303 302 301 303 304 303 304 304 303 303 303 303 302 302
325 325 324 322 322 322 322 322 322 321 320 321 324 323 311 314 315 315 319 322 322 321 318 313 308 304 304 302 302 304 305 304 302 302 301 301 301 301 301 301 301 302 302
325 325 324 323 323 323 323 323 323 322 322 322 322 323 319 323 321 322 320 319 316 311 307 303 303 305 305 305 303 303 302 300 300 299 299 299 300 300 301 301 301 300 300
325 325 324 323 323 323 323 323 323 324 323 325 322 317 320 321 319 314 311 306 304 305 306 306 304 303 302 301 300 300 299 298 298 298 299 300 300 299 299 299 299 298 298
325 324 325 324 323 324 323 324 324 324 326 322 319 316 316 314 311 309 308 308 306 304 302 301 300 299 298 298 297 297 297 298 297 298 298 298 298 298 298 298 297 297 296
324 325 325 323 323 323 324 323 325 324 321 317 316 316 314 313 311 309 306 303 300 299 299 298 298 297 296 295 296 296 296 297 297 297 297 297 297 297 296 296 296 296 295
324 323 323 323 323 323 324 323 322 319 317 317 315 313 311 307 304 301 300 299 299 298 297 296 295 296 296 296 296 295 293 293 292 293 296 296 296 296 296 295 294 294 294
323 324 324 323 323 322 320 318 318 316 314 312 310 305 301 300 298 298 298 298 296 296 295 295 296 296 295 295 294 294 293 292 291 290 294 295 295 294 294 293 293 293 293

GFSGL_925_thetae_003.txt.gz
Theta_e
323 324 325 327 329 329 330 331 328 329 327 331 331 331 331 332 333 333 333 332 331 328 325 327 328 328 328 328 328 328 328 328 328 327 327 326 326 326 323 325 324 322 312
322 323 324 327 328 329 330 333 332 330 326 327 329 331 331 332 332 333 333 332 331 329 328 328 327 325 326 329 329 328 329 327 326 326 326 326 323 321 318 323 324 320 320
320 323 323 326 327 328 328 328 333 333 330 327 328 328 331 332 333 333 333 332 331 332 329 328 328 326 327 328 327 326 328 327 326 324 325 324 322 324 324 326 326 325 323
319 321 324 324 326 328 326 325 329 331 332 332 328 329 328 330 333 333 333 334 332 332 330 329 329 327 328 329 329 326 325 326 327 324 322 322 323 325 325 324 323 322 321
318 319 324 323 324 329 326 326 324 325 327 329 331 330 327 327 332 333 333 333 333 332 331 331 331 331 330 330 324 322 322 323 322 322 321 321 321 323 323 323 323 322 321
318 318 321 322 322 325 326 326 325 323 322 323 323 323 322 325 324 325 327 329 330 329 326 328 327 329 325 318 323 321 322 323 323 321 322 322 324 323 323 323 322 322 322
319 319 318 321 322 323 324 323 323 323 323 323 322 323 323 324 325 326 325 326 326 326 325 323 320 319 319 320 321 323 322 323 325 325 328 324 325 325 324 325 324 324 323
320 320 317 319 321 322 322 323 324 325 322 322 321 320 321 316 320 324 326 326 326 326 324 322 321 324 323 321 320 321 321 319 321 322 326 326 325 324 326 326 326 325 324
320 320 318 317 320 322 323 324 326 326 326 325 323 322 320 315 313 315 320 324 324 324 323 323 324 323 321 320 320 320 320 320 316 314 315 318 321 322 322 322 321 321 321
321 321 319 317 318 320 322 324 325 326 326 324 324 322 321 320 310 310 316 317 320 318 318 317 316 315 308 315 320 321 321 322 315 311 311 311 310 310 310 310 313 313 314
320 320 320 318 318 320 322 324 324 323 323 323 322 323 321 322 310 307 311 314 315 313 312 311 310 307 305 315 320 321 321 320 318 315 316 317 316 315 315 314 311 310 309
321 320 320 320 318 320 322 323 323 322 322 322 321 321 321 320 320 306 309 312 312 313 314 313 310 305 305 306 308 313 313 311 311 313 315 316 316 316 316 315 313 312 312
321 320 321 321 319 320 324 325 323 322 321 321 320 320 318 319 319 311 306 312 311 319 318 317 314 305 304 304 305 306 306 308 311 314 317 319 319 318 315 315 315 312 310
322 322 322 322 319 321 323 324 322 321 320 319 318 318 317 317 318 314 309 310 313 318 316 315 314 309 306 309 310 309 308 310 313 317 319 319 319 318 317 313 311 310 308
324 323 323 323 321 321 322 321 320 320 319 319 318 318 319 318 318 317 313 312 313 313 315 316 315 315 314 314 315 316 317 317 318 322 321 318 312 310 310 307 306 306 307
327 325 323 323 322 320 321 321 319 320 319 319 319 319 319 319 318 317 315 314 313 313 313 318 319 320 320 320 319 320 322 321 319 317 313 307 305 304 305 306 306 306 306
328 326 324 323 323 321 319 319 320 318 318 317 317 317 317 317 316 315 314 314 314 314 315 318 319 321 321 320 323 324 318 312 308 307 305 305 305 305 305 304 305 305 305
328 326 325 324 323 322 321 319 319 319 318 318 316 315 315 316 315 314 313 311 310 310 315 318 321 320 321 324 322 313 309 307 305 305 305 306 305 305 304 304 303 303 302
330 326 325 325 324 323 322 321 320 319 318 317 317 315 314 313 312 312 311 313 315 317 317 320 321 323 320 313 311 308 305 305 306 303 303 304 303 302 302 302 302 302 302
329 329 327 325 325 323 324 323 322 321 321 319 318 317 311 309 309 309 309 312 317 322 321 323 320 316 312 309 308 308 305 304 304 302 302 301 301 302 302 302 302 301 301
329 329 328 326 325 324 324 324 324 323 322 321 321 319 313 312 314 314 314 320 324 324 321 315 311 307 309 308 307 304 303 302 301 301 301 301 302 301 301 301 300 300 299
329 329 328 327 327 326 325 325 325 324 324 323 322 318 317 321 322 324 324 324 320 313 311 311 310 309 304 303 302 301 300 300 300 300 301 300 300 300 299 300 299 298 298
329 329 329 328 328 327 326 325 325 326 325 325 322 319 319 325 324 319 313 311 310 310 309 307 304 302 301 300 299 299 299 299 299 299 299 299 299 299 299 299 298 297 297
329 329 329 328 327 327 326 327 325 325 325 326 324 323 323 319 314 311 311 311 309 306 303 301 300 298 296 295 296 298 299 298 298 298 299 299 298 298 298 297 296 296 296
329 329 328 328 327 326 326 326 326 325 326 323 322 319 316 314 314 312 308 305 302 299 298 297 296 295 295 297 296 294 293 292 291 294 298 298 297 297 296 295 294 294 294
327 328 328 328 327 326 326 326 326 325 321 321 319 316 314 313 309 304 302 300 298 296 295 295 295 297 297 296 294 293 292 290 290 293 296 297 295 295 293 291 292 291 291

GFSGL_925_thetae_006.txt.gz
Theta_e
325 326 328 330 330 331 331 330 327 329 331 330 329 332 330 331 330 332 332 331 330 328 327 328 328 328 328 329 329 329 329 328 329 329 328 330 329 330 328 325 326 324 313
324 325 327 330 330 331 331 330 327 326 331 331 331 331 331 332 331 329 329 328 329 328 327 327 328 328 328 328 328 328 328 328 329 329 328 329 327 328 325 325 324 323 321
323 324 325 329 330 330 332 331 328 327 329 331 331 332 331 330 330 329 332 331 330 328 328 328 328 328 328 329 328 328 328 328 327 328 328 327 324 322 319 323 325 324 324
322 324 325 328 328 328 329 332 330 328 326 328 330 332 330 330 332 332 331 328 328 328 328 328 328 328 329 329 328 327 328 329 326 325 326 324 322 324 321 326 327 326 324
321 325 324 326 331 328 327 329 331 330 327 331 328 329 331 332 332 331 331 330 331 329 329 328 328 328 328 328 328 327 327 328 326 325 325 325 325 326 326 326 325 323 322
320 323 324 325 329 327 327 325 325 326 329 326 326 324 325 329 333 332 331 331 330 330 330 328 328 328 328 328 329 326 325 324 325 324 324 324 323 324 323 323 324 325 326
319 321 323 324 326 328 327 326 325 324 325 324 322 324 323 325 327 330 331 330 330 330 330 329 327 324 322 324 322 321 322 322 326 327 322 322 323 323 324 324 323 324 326
320 319 321 322 324 326 325 325 323 324 324 324 322 322 325 325 325 326 328 327 324 322 323 321 324 319 321 322 322 322 323 322 324 324 327 327 326 326 328 326 326 328 327
321 320 319 321 324 324 325 325 325 325 324 324 323 320 318 323 324 327 327 327 326 324 324 320 325 323 320 320 321 322 319 319 319 319 320 321 324 324 324 325 324 322 322
321 321 319 319 323 324 325 328 328 328 327 325 324 323 318 315 318 320 324 325 324 323 323 324 324 323 320 320 322 321 322 320 315 314 312 312 312 312 311 311 310 310 311
321 322 320 318 321 323 326 328 328 328 328 327 325 323 321 317 310 313 317 319 321 319 317 318 316 317 315 318 322 321 323 322 320 318 317 316 316 316 316 315 314 312 312
322 322 321 319 320 323 325 327 327 326 329 325 325 323 323 323 311 309 312 314 316 315 314 311 311 304 310 318 321 321 320 318 314 313 314 317 319 319 316 315 314 313 312
323 322 322 320 318 323 326 327 327 325 326 324 326 324 323 321 320 306 308 312 313 317 314 312 308 305 307 309 309 307 308 308 311 314 317 322 319 318 317 317 316 314 311
324 323 323 322 320 324 325 326 325 325 325 325 323 323 321 321 321 313 306 311 312 317 315 314 311 304 304 304 305 306 307 307 312 316 319 319 318 316 313 309 307 307 307
325 325 325 324 320 325 325 327 325 324 322 323 322 320 321 320 321 313 305 310 312 318 318 315 314 311 309 309 310 314 316 316 316 320 318 312 308 307 306 306 306 305 306
327 326 326 325 322 325 324 325 324 324 321 321 321 320 320 320 319 319 307 306 312 316 315 318 317 316 316 316 317 317 318 320 317 313 310 307 306 305 304 304 305 305 306
328 326 325 325 324 323 324 324 323 321 321 319 319 318 319 319 319 318 317 311 311 312 313 315 320 321 322 322 323 320 312 311 310 308 306 306 306 304 305 304 303 302 303
328 327 325 324 326 323 323 323 324 322 319 317 318 317 316 318 318 318 316 313 313 313 313 317 319 320 322 318 315 311 308 307 307 307 305 304 306 304 303 302 302 302 302
328 328 326 325 324 325 323 322 321 323 321 320 318 315 315 316 316 316 315 314 314 313 313 315 317 321 318 312 310 309 308 308 304 303 303 302 302 302 302 302 302 301 300
329 328 327 326 325 325 324 324 322 320 322 320 320 315 314 313 312 312 312 314 315 314 314 318 319 315 312 310 307 308 302 303 303 302 301 302 302 302 302 301 300 300 300
331 329 327 327 327 326 325 325 324 323 321 322 320 318 316 314 313 312 311 311 312 314 322 318 313 311 309 309 304 302 302 301 300 301 302 302 301 299 300 300 299 298 298
332 331 328 327 327 325 326 325 326 324 324 323 321 319 317 314 314 313 313 312 313 319 315 311 310 309 308 302 302 302 300 300 300 301 301 299 300 299 299 299 298 297 297
331 332 331 329 329 328 325 325 325 326 326 325 320 317 314 313 314 315 317 315 314 312 311 310 308 305 303 303 301 298 299 298 300 300 299 299 299 298 299 298 297 296 295
331 331 332 332 329 329 329 328 327 327 327 322 318 315 314 318 318 314 313 312 311 310 307 304 303 302 301 299 299 298 296 297 298 299 299 299 298 297 297 295 294 294 294
329 330 331 331 331 329 329 329 328 326 326 322 319 317 320 315 313 313 312 311 308 304 303 302 301 299 298 298 296 296 296 296 296 298 298 298 296 296 295 292 292 291 291
329 329 330 330 330 329 328 328 327 327 327 323 322 318 314 313 313 311 306 304 302 302 300 297 296 296 296 295 294 294 292 290 291 296 297 295 295 293 291 291 290 289 289

GFSGL_925_thetae_009.txt.gz
Theta_e
327 327 329 331 331 331 329 327 329 330 328 330 331 331 330 330 329 328 329 329 329 327 329 329 330 328 328 329 328 328 328 328 328 329 328 328 329 327 329 327 326 322 317
325 326 330 331 331 329 328 326 329 329 330 330 329 330 330 330 329 329 327 327 328 329 328 328 328 328 329 329 328 328 328 328 328 328 330 330 330 330 328 326 327 326 324
325 325 329 329 330 330 328 327 327 330 331 332 330 329 329 329 328 328 329 327 327 327 328 329 327 328 328 329 328 328 328 328 328 328 329 330 329 329 327 324 325 323 323
324 324 329 329 328 330 330 329 327 330 330 331 331 329 330 330 328 328 327 328 327 327 327 328 327 328 328 328 327 327 327 328 328 327 328 329 326 323 321 323 323 325 325
324 324 329 328 327 329 331 329 326 329 329 329 331 330 330 331 329 330 329 327 327 327 327 327 328 328 327 327 328 328 327 328 327 326 326 325 322 323 321 318 323 324 325
324 324 326 329 329 328 330 329 327 327 329 325 327 330 330 331 330 329 329 330 328 328 328 328 328 329 328 327 327 327 327 328 325 325 325 323 322 322 325 325 325 326 323
324 323 324 325 328 325 324 326 329 329 324 323 324 328 331 331 329 329 328 329 328 328 328 328 328 328 328 328 328 328 327 327 325 323 323 322 323 323 323 325 324 323 324
324 324 323 324 328 327 326 325 328 326 321 323 323 325 329 331 331 330 328 327 328 329 328 327 327 328 328 328 328 323 324 325 326 327 323 324 324 323 323 323 325 324 326
321 323 322 322 327 327 326 323 324 326 321 320 322 324 325 326 329 325 325 328 330 329 329 327 324 323 323 321 320 322 322 322 323 321 323 324 325 324 323 324 325 322 317
320 319 322 321 324 325 325 323 323 322 326 321 319 322 324 326 327 328 326 326 327 325 320 322 320 317 321 321 320 320 320 319 318 318 316 313 311 313 313 312 310 310 309
320 319 320 321 323 322 326 324 324 324 324 325 322 320 317 323 321 324 325 324 323 323 323 326 323 321 319 320 321 320 319 319 314 316 317 315 316 317 317 314 312 313 312
320 321 318 319 323 323 327 327 326 328 326 327 324 322 321 316 314 315 317 323 322 321 321 321 322 320 319 319 322 321 321 320 316 313 317 318 317 315 315 314 313 312 309
321 322 319 318 323 324 326 327 327 326 329 326 327 324 323 321 317 309 312 317 318 316 315 316 314 310 314 319 320 320 317 313 311 318 318 315 315 314 313 310 307 306 305
322 322 320 319 322 323 325 326 326 326 325 327 326 323 324 321 320 309 308 311 313 316 312 309 307 304 312 316 312 307 306 309 315 316 314 311 310 308 306 305 304 306 306
324 323 321 319 320 325 325 326 325 324 322 326 322 323 322 323 321 315 306 311 314 316 312 308 305 304 304 304 305 309 313 309 317 316 313 308 307 305 304 305 305 304 302
325 324 321 319 323 324 325 326 325 325 324 322 324 322 322 321 320 319 306 310 314 316 314 312 311 307 305 305 307 312 314 317 315 310 308 307 304 304 304 303 302 302 302
325 325 323 320 324 324 324 325 325 325 324 322 320 322 321 320 320 318 313 307 312 318 318 317 315 313 313 314 314 316 315 311 309 309 307 304 304 303 302 302 302 301 301
326 325 324 322 321 323 323 324 325 322 320 321 320 320 318 319 320 318 318 306 310 314 316 315 316 318 319 320 316 313 309 308 309 305 304 304 303 302 302 301 301 300 299
327 326 324 324 322 321 323 322 324 322 319 320 319 317 317 317 319 319 318 309 308 311 312 312 313 317 320 317 313 311 309 308 304 303 302 302 302 302 301 300 300 300 299
327 327 325 323 325 322 321 322 321 322 320 318 318 317 316 316 315 316 313 312 311 312 312 313 316 318 318 315 310 308 305 303 302 302 302 302 301 301 300 300 299 298 298
327 327 326 325 323 324 323 321 321 320 320 319 318 318 317 316 316 315 313 313 314 314 313 313 315 315 312 310 308 304 302 301 300 300 302 301 299 300 300 299 298 297 297
329 327 326 325 325 323 323 323 322 321 319 320 319 319 318 316 314 314 313 313 314 314 316 315 314 313 312 309 304 301 300 301 301 302 301 299 298 299 299 298 297 296 295
331 328 326 326 325 325 325 324 324 323 321 320 320 318 317 314 313 313 312 312 313 315 317 316 314 310 307 305 302 300 300 300 301 300 299 300 298 298 299 296 294 293 294
331 330 328 326 325 326 325 324 324 324 324 323 321 319 318 314 314 313 313 312 313 314 314 313 312 306 302 301 300 299 299 299 299 298 299 299 298 297 296 294 292 292 291
330 331 330 328 327 326 327 326 325 324 324 324 322 316 313 312 314 314 314 313 313 311 308 306 304 302 301 300 298 297 297 296 297 299 298 298 296 295 293 291 291 290 289
329 328 328 329 329 328 328 327 328 328 325 322 317 314 314 314 313 313 311 309 306 306 306 302 301 301 300 298 297 296 295 295 297 298 297 296 295 293 291 290 289 288 288

GFSGL_925_thetae_012.txt.gz
Theta_e
327 328 330 330 331 328 327 328 329 329 329 329 330 329 330 329 329 328 329 330 330 329 327 327 327 328 329 329 328 328 328 329 328 328 329 328 328 328 328 327 325 324 322
326 328 329 330 329 327 326 329 329 329 330 329 330 330 330 329 329 329 329 328 328 326 326 328 327 328 328 328 328 329 329 328 328 328 329 328 328 328 328 327 325 324 320
325 328 330 329 329 328 326 327 330 330 330 329 329 329 329 329 328 328 327 327 327 327 326 328 328 327 328 328 328 328 328 327 327 328 329 329 329 328 328 326 326 325 325
324 328 329 329 329 329 327 328 329 330 330 329 329 329 329 329 327 326 327 327 328 325 325 328 327 328 328 327 328 328 328 328 328 328 328 329 329 329 328 326 325 325 323
324 328 328 328 329 330 328 327 329 330 330 330 330 330 330 327 328 328 326 326 327 327 326 327 328 328 328 328 328 327 327 327 327 327 327 328 326 326 325 322 323 322 324
323 328 327 326 328 330 327 328 328 328 329 329 328 330 330 330 328 327 327 325 327 327 327 327 328 328 327 327 327 327 327 327 327 326 325 326 325 322 321 321 318 322 323
323 327 327 329 329 330 328 327 327 326 324 329 328 330 330 330 329 328 326 326 327 327 327 328 327 326 327 326 327 327 327 328 326 325 324 325 322 319 320 323 323 324 324
323 325 325 327 326 326 328 329 328 323 324 328 329 330 329 330 329 328 329 328 328 328 328 328 328 327 327 327 327 328 326 327 326 324 321 320 321 321 322 323 323 323 323
323 323 323 325 326 325 325 327 328 322 323 324 329 331 330 329 328 327 328 328 328 328 327 327 328 328 327 327 327 323 325 327 326 326 325 324 325 325 326 326 326 323 317
322 323 322 324 327 326 324 326 322 320 321 323 323 327 329 329 330 328 328 328 329 328 327 327 327 326 325 326 323 323 322 321 320 319 319 316 312 311 311 312 311 310 310
321 322 322 322 327 326 324 324 325 322 320 321 323 323 326 327 326 325 326 327 327 327 327 323 322 322 322 321 321 321 320 318 314 313 315 316 317 316 315 314 313 313 313
320 321 322 321 324 325 324 323 323 325 322 319 318 318 321 322 325 325 325 325 322 320 322 322 319 318 319 320 320 319 319 315 317 316 316 317 317 317 314 313 312 308 306
319 318 320 321 322 323 325 323 323 323 324 325 322 320 318 314 317 318 322 324 323 322 322 323 323 321 319 320 321 320 320 317 314 316 317 315 314 313 311 307 305 305 303
318 318 318 320 322 322 325 324 324 326 326 325 325 322 321 320 315 311 313 316 321 319 318 318 319 318 317 319 318 316 314 312 314 317 315 313 311 309 306 305 306 303 303
319 319 317 318 322 324 325 326 325 325 324 327 326 325 323 322 320 317 309 312 317 316 315 314 308 311 314 314 309 305 308 314 317 315 313 310 306 304 305 305 303 302 302
319 319 318 317 322 324 325 325 326 324 323 323 326 325 323 322 321 320 313 308 312 314 312 309 305 305 310 309 305 310 308 313 316 314 310 305 304 304 304 302 301 301 300
321 320 318 318 321 323 324 324 323 324 324 322 322 324 322 322 321 321 319 307 311 314 312 308 306 304 304 303 308 312 312 314 314 309 306 305 304 302 302 301 301 299 298
322 322 319 318 320 322 323 323 323 322 323 324 323 322 323 322 321 320 320 309 312 312 311 310 309 309 307 305 307 312 314 311 308 307 305 304 302 302 301 300 299 299 298
323 322 321 318 320 321 322 322 323 322 322 322 322 323 320 319 318 320 320 317 308 314 316 315 315 315 314 314 313 314 314 310 308 305 304 302 302 301 300 299 299 298 298
324 323 322 319 319 320 321 321 322 322 321 320 321 322 321 317 317 316 318 316 308 308 312 315 316 316 316 318 317 314 311 308 306 304 302 302 301 300 299 299 298 297 297
324 323 323 322 319 320 321 320 321 321 320 320 320 321 321 319 317 317 315 316 313 308 307 310 312 313 313 315 315 311 309 306 304 302 302 301 300 299 298 297 297 296 295
325 324 322 322 322 320 320 321 320 320 320 320 320 320 320 319 317 316 316 316 316 314 310 307 309 312 314 316 314 310 307 304 302 302 301 300 299 298 297 297 296 294 294
326 325 323 323 321 322 322 320 320 320 319 319 320 319 319 317 315 315 315 315 315 314 313 311 311 313 314 316 312 309 306 302 301 301 299 298 299 298 298 296 294 293 292
327 326 324 324 323 322 321 322 321 321 320 319 319 318 319 319 316 315 314 313 314 314 314 313 313 313 312 312 307 303 301 301 301 299 298 298 299 298 297 294 292 291 289
328 327 325 324 324 323 323 322 322 322 322 321 320 319 318 319 317 315 314 312 312 313 313 313 312 311 310 308 306 302 301 301 300 298 298 298 297 297 295 292 290 289 288
328 329 328 326 324 323 323 323 324 324 323 323 323 322 321 318 315 313 312 311 311 312 311 310 307 305 304 304 301 301 300 299 298 298 298 297 296 294 292 290 289 288 288

GFSGL_925_thetae_015.txt.gz
Theta_e
327 327 329 330 328 327 327 328 329 329 329 328 326 326 327 328 328 328 329 329 331 328 328 328 328 329 328 328 328 328 329 328 328 329 329 328 328 329 329 328 326 324 323
327 328 330 330 328 326 327 329 328 329 329 329 329 329 329 329 329 329 329 329 328 328 328 327 328 329 328 328 328 328 328 328 328 329 329 328 328 328 327 327 325 324 323
326 328 330 329 328 326 326 329 329 329 329 329 329 329 329 328 329 328 328 326 325 326 327 326 327 328 328 328 328 328 328 328 328 328 328 327 327 328 327 327 325 324 323
326 329 329 329 328 327 327 329 330 329 329 329 329 329 328 328 328 327 328 325 325 325 327 326 327 327 328 329 329 328 328 327 328 328 327 328 327 327 328 326 326 325 324
325 328 328 328 329 328 327 329 330 330 329 329 329 329 328 327 326 326 327 327 324 325 326 327 326 327 328 328 328 327 327 327 327 327 327 327 326 326 327 326 324 324 322
325 327 327 328 330 326 328 329 329 329 330 329 329 329 328 328 326 326 326 326 326 325 327 327 328 328 328 327 327 328 327 326 326 326 326 326 325 327 325 320 321 321 321
324 327 326 326 329 327 328 328 327 328 329 329 328 329 329 328 328 327 325 326 327 327 327 327 327 328 327 327 327 326 326 326 326 326 326 327 327 325 321 320 318 320 323
324 327 327 326 328 328 326 326 324 324 327 328 329 329 329 329 328 327 326 327 327 327 327 327 327 327 327 326 327 327 327 327 327 326 323 323 321 320 319 321 322 323 318
323 326 327 329 327 328 328 327 323 323 328 328 329 329 329 328 328 328 327 327 327 327 327 326 326 326 327 327 327 327 324 326 327 324 322 321 322 322 322 323 323 323 316
322 325 325 327 324 325 324 326 323 323 326 329 329 328 328 327 327 328 328 328 328 327 328 327 326 327 327 327 327 323 325 326 325 324 324 323 322 320 319 320 319 313 309
322 323 323 326 325 324 325 326 321 322 323 325 327 328 329 329 327 327 328 328 327 327 327 326 327 327 327 327 326 323 324 321 320 321 315 312 312 313 312 312 312 313 314
321 322 322 324 326 325 324 324 320 320 321 321 322 323 325 325 326 326 328 328 328 327 327 327 324 323 322 324 322 321 319 317 313 313 315 315 314 313 313 313 313 312 308
321 321 321 322 327 326 323 324 323 320 319 319 320 320 319 324 326 324 325 325 325 324 324 322 320 320 321 321 320 319 318 314 315 315 316 315 314 312 310 309 306 305 304
319 320 321 320 323 325 325 323 323 324 320 319 318 317 317 317 317 319 323 323 321 319 321 321 319 318 318 320 320 319 318 316 315 315 315 314 311 308 307 306 304 303 302
317 317 319 320 320 322 324 323 323 322 323 323 322 321 319 317 315 316 317 318 321 320 320 320 320 317 316 317 315 314 314 314 314 315 315 313 310 306 305 304 303 303 300
316 315 316 318 320 321 323 323 323 323 323 321 322 325 323 322 321 318 312 312 314 320 316 314 314 315 314 313 312 310 311 312 314 315 315 312 308 305 304 303 302 301 297
317 316 315 317 319 321 322 323 323 324 324 324 324 324 324 324 323 321 319 313 309 312 315 313 312 311 312 312 309 308 307 311 315 315 313 309 305 304 302 301 300 298 297
318 318 317 316 318 321 322 322 323 323 322 324 324 324 325 324 324 322 321 318 307 309 312 312 309 309 307 310 309 307 308 311 313 313 309 305 304 303 301 300 298 297 296
319 318 318 317 318 320 321 322 322 322 321 322 323 323 322 322 322 321 321 320 315 307 310 311 311 309 305 305 307 307 309 311 312 310 306 305 303 302 300 299 298 297 296
320 320 319 317 318 319 320 321 321 321 321 321 321 322 322 321 320 319 319 318 316 315 308 310 312 311 309 306 304 304 310 311 311 308 305 303 302 301 299 298 298 297 296
321 321 320 318 318 319 319 320 320 320 320 320 320 321 321 322 320 319 317 315 317 317 315 310 310 313 312 312 311 308 309 311 310 306 304 302 301 299 299 298 296 296 294
322 321 320 319 318 319 319 319 320 320 320 320 320 320 320 320 321 320 318 318 317 317 318 317 314 309 312 315 316 314 312 310 307 304 303 302 301 299 297 296 296 294 294
323 322 321 321 319 319 319 319 319 319 319 319 320 320 319 319 319 319 320 318 317 317 316 316 315 313 309 310 314 314 314 311 307 305 302 301 299 297 297 296 294 294 293
324 322 321 321 321 320 318 319 319 319 319 319 319 319 320 320 319 319 319 318 317 317 316 315 315 314 313 309 310 311 310 309 309 304 302 299 298 297 297 296 293 292 290
324 324 322 321 321 320 320 320 319 319 319 319 319 319 320 320 320 319 319 318 316 315 314 313 312 312 311 309 309 308 307 306 303 301 301 298 298 298 297 295 292 290 288
326 325 324 323 322 321 320 320 321 320 320 319 319 319 319 319 320 320 319 317 314 313 312 312 311 311 310 308 307 305 303 302 302 301 298 298 298 297 296 293 290 289 288

GFSGL_925_thetae_018.txt.gz
Theta_e
326 326 329 330 327 326 327 328 328 328 327 326 326 325 326 327 327 328 329 327 326 327 327 328 328 328 328 326 326 328 328 328 328 329 328 327 327 327 325 325 325 324 323
326 326 329 329 326 325 328 328 328 328 328 327 326 325 327 328 328 329 325 325 325 326 328 327 328 328 327 327 327 328 328 328 328 329 328 327 328 326 327 326 325 324 323
325 327 329 328 326 325 328 328 329 329 328 329 328 328 328 328 328 327 325 325 326 326 327 328 328 328 327 327 328 328 328 328 328 328 328 327 327 327 327 325 324 323 321
325 328 328 328 327 326 328 329 329 329 329 329 328 328 328 328 328 326 325 325 325 326 326 328 328 328 328 328 328 328 328 328 328 327 327 326 326 326 326 325 325 324 324
326 328 327 328 328 327 328 329 329 328 328 328 328 328 327 327 327 326 324 324 325 326 326 327 327 328 328 328 328 327 328 327 327 326 326 326 325 326 327 325 325 324 322
324 327 327 329 327 327 328 328 329 328 328 328 328 327 326 326 326 327 325 324 325 325 326 326 327 328 328 328 328 327 327 327 326 326 326 324 325 327 325 325 323 321 322
324 326 326 329 326 328 328 327 328 329 329 329 329 328 328 326 326 325 325 326 325 326 327 327 327 328 327 327 327 326 326 326 326 326 327 326 327 327 323 320 320 320 321
324 326 325 328 327 326 327 325 323 328 328 327 328 328 328 328 326 326 325 326 326 326 326 327 327 327 327 327 326 326 325 324 325 326 325 326 327 325 318 317 317 321 315
323 326 325 326 328 325 325 324 322 326 327 327 328 328 328 328 327 326 327 327 326 327 327 327 327 327 326 327 327 327 326 326 326 324 322 321 321 320 319 321 322 320 316
322 325 326 327 327 327 327 326 322 326 327 327 328 327 328 327 327 327 327 327 327 327 326 327 327 327 326 326 326 323 325 325 325 323 323 323 323 322 321 322 323 322 310
322 323 325 328 326 325 325 326 321 324 327 327 327 327 327 327 328 328 328 327 327 326 325 326 326 326 326 326 325 324 325 324 322 323 323 321 317 318 319 318 317 312 312
322 322 324 327 324 324 323 325 321 323 324 325 326 326 327 327 326 327 327 327 327 327 327 326 326 326 326 327 325 322 322 322 321 318 312 311 311 311 312 312 312 312 310
321 322 323 324 325 324 324 323 320 321 322 320 322 324 323 325 326 327 327 327 326 327 327 327 326 325 324 325 324 321 318 316 314 312 313 312 312 311 310 309 307 307 306
321 321 321 322 325 324 324 322 320 319 319 320 320 321 321 324 325 323 324 325 325 326 326 322 321 321 321 321 321 320 318 315 314 314 314 312 310 308 307 307 306 304 302
320 320 320 320 324 325 323 323 322 320 319 318 319 321 322 320 324 324 324 323 323 321 320 321 317 317 318 319 319 318 316 314 314 315 314 311 307 306 305 306 304 303 299
318 318 319 319 321 323 324 322 322 323 322 321 320 320 318 318 322 321 320 320 322 320 319 320 318 317 316 317 318 316 316 315 315 314 313 310 307 305 304 303 303 302 297
317 317 317 318 318 320 322 322 321 322 322 322 322 322 322 322 321 318 315 312 313 318 319 318 318 319 317 315 316 315 315 314 314 313 313 311 309 306 304 303 301 299 295
317 317 316 317 318 319 320 321 322 321 321 322 322 322 322 323 324 323 321 318 308 309 313 316 315 315 317 316 315 315 314 313 313 313 312 311 307 305 303 301 299 297 295
316 315 316 316 317 319 320 320 321 321 321 321 322 323 323 323 324 324 322 321 317 311 308 309 312 313 312 314 314 313 311 309 311 312 311 310 307 304 301 301 299 296 295
317 317 316 316 316 318 319 320 320 320 320 320 321 322 323 322 321 322 322 321 319 318 317 312 308 310 311 310 310 310 311 307 308 310 310 307 305 303 302 300 298 296 295
318 317 317 316 316 317 319 319 320 320 320 319 320 320 320 322 321 320 320 321 320 319 319 319 317 308 309 310 308 305 306 308 308 309 309 307 305 302 301 298 297 296 295
319 317 317 317 317 317 318 319 319 319 319 319 319 319 319 320 319 319 319 319 320 321 320 319 319 319 317 310 310 310 305 304 306 308 307 305 302 301 299 298 297 295 294
320 318 317 318 317 318 318 318 319 319 319 319 319 318 318 319 318 319 319 319 317 317 319 317 316 317 316 316 313 310 311 309 309 307 306 303 301 300 299 297 296 294 295
321 319 319 319 318 318 318 318 318 319 319 319 319 318 318 318 318 319 319 319 319 320 319 318 317 317 317 316 315 312 311 312 310 307 305 303 300 299 297 296 295 297 296
322 321 320 320 319 317 318 318 318 318 318 318 318 318 318 318 317 318 319 319 319 318 318 318 317 316 315 313 313 312 310 310 309 306 304 302 300 298 296 297 298 296 293
322 322 321 320 320 319 318 318 318 318 318 318 318 318 318 319 319 319 318 318 318 318 318 317 315 314 313 311 310 310 309 308 309 308 304 302 299 298 299 299 297 294 292

GFSGL_925_thetae_021.txt.gz
Theta_e
329 329 331 331 329 329 330 330 330 329 328 328 328 329 329 327 327 329 328 327 329 328 329 328 328 328 329 329 329 328 329 329 329 328 328 326 327 325 326 325 326 324 322
328 328 331 330 328 329 330 330 330 330 329 328 328 328 327 328 327 328 327 328 328 327 328 328 328 328 328 327 327 330 329 329 328 328 328 328 327 327 325 325 324 323 323
327 330 331 330 328 329 330 331 331 330 330 329 328 328 328 328 326 327 327 327 327 327 327 328 329 328 328 326 328 329 329 329 328 328 328 326 326 325 325 325 324 323 321
328 330 331 330 329 329 330 331 331 331 330 330 330 328 329 326 326 326 326 326 326 327 328 330 330 329 330 330 328 328 328 328 328 327 327 326 325 325 325 324 323 322 321
328 330 330 330 329 329 331 331 330 330 330 330 330 329 328 325 325 326 326 326 327 326 328 328 328 329 328 328 328 328 328 327 327 327 326 324 324 325 324 322 321 323 323
328 329 329 330 329 330 330 330 331 330 330 330 329 329 328 327 325 325 325 325 327 327 327 327 328 328 328 328 328 328 327 327 327 326 326 325 325 326 325 323 324 324 324
328 329 329 329 329 330 329 329 331 331 331 330 330 329 326 325 324 324 325 327 327 326 326 327 327 328 327 327 327 327 327 326 326 326 325 326 325 326 326 325 324 324 324
327 328 330 329 329 330 328 327 329 331 330 328 328 327 325 325 325 325 325 326 326 326 327 327 327 329 326 327 326 327 326 326 326 326 326 327 327 326 326 324 324 321 319
326 327 328 329 328 329 327 325 327 328 329 327 327 327 326 326 326 326 326 326 326 327 326 327 328 327 327 326 324 325 325 325 324 325 327 328 327 322 318 320 321 322 320
326 326 327 328 328 327 327 325 326 328 328 329 327 327 327 326 326 326 326 326 327 326 327 327 327 326 326 326 326 326 326 324 321 322 320 324 322 319 320 325 324 325 320
325 326 327 328 329 328 329 325 326 327 328 329 328 326 326 326 327 327 326 327 327 326 327 326 326 326 326 325 323 327 326 324 322 322 321 320 320 319 321 323 323 319 316
325 325 326 329 328 328 328 325 326 328 328 327 327 327 327 327 327 327 327 326 327 327 328 328 326 326 326 325 323 324 324 324 322 320 318 317 317 315 316 318 315 313 315
325 325 326 328 327 326 327 325 324 326 327 327 326 326 326 326 326 327 326 327 326 327 327 327 327 326 326 326 322 322 322 321 320 319 316 314 313 311 311 311 311 310 308
325 325 326 327 327 326 326 325 323 323 324 324 325 324 323 323 325 326 327 326 326 327 326 326 326 325 325 325 322 318 318 319 319 318 316 313 310 309 309 307 306 304 302
325 325 325 325 326 326 326 325 323 323 322 322 323 324 324 323 323 324 325 325 326 325 326 322 319 320 321 321 321 319 319 317 317 318 314 312 311 310 308 307 306 305 304
325 324 324 323 325 326 326 324 323 322 320 320 319 321 323 323 324 323 323 323 323 322 322 321 319 319 320 320 320 318 318 317 317 316 314 312 311 310 308 307 307 306 303
325 324 323 323 323 325 325 325 325 322 322 319 319 319 319 318 322 323 322 322 322 320 321 321 321 319 318 318 318 319 319 318 317 316 315 313 312 311 308 308 306 304 301
324 323 323 322 322 323 324 324 324 324 324 323 322 321 320 320 320 318 317 315 314 316 320 320 321 321 320 319 318 318 318 318 316 316 314 313 312 310 309 308 306 304 301
324 322 322 322 322 321 322 323 323 323 323 323 324 322 322 322 322 322 321 317 316 314 313 314 317 318 318 318 318 316 316 317 316 315 314 312 311 310 310 308 306 303 299
322 321 321 322 322 321 321 322 322 322 323 323 324 322 321 321 319 318 320 317 321 319 317 315 312 313 315 315 315 315 314 314 314 314 313 312 311 310 310 307 304 298 296
322 319 319 321 321 321 321 322 322 322 323 322 323 322 322 320 322 322 321 320 321 322 320 318 316 314 312 311 312 313 313 313 313 312 312 311 310 309 307 306 301 298 296
322 320 318 320 321 321 322 322 322 322 322 323 322 322 321 320 321 321 322 321 320 321 321 320 319 318 316 313 310 310 312 312 312 311 311 310 308 307 305 302 300 297 294
322 321 319 320 321 321 321 322 322 322 322 322 322 322 319 318 320 321 322 321 320 319 319 320 320 319 318 317 315 313 311 311 311 310 309 308 307 306 303 300 297 296 294
323 322 321 321 321 321 321 322 323 322 323 322 322 322 322 319 319 320 321 321 320 319 319 318 318 318 318 317 317 315 314 312 311 309 308 307 306 302 300 299 297 295 294
323 323 322 322 322 321 322 322 323 323 322 323 323 323 323 322 320 320 320 321 321 320 319 318 318 317 316 316 316 316 315 314 311 309 307 305 303 302 300 298 296 295 298
324 323 323 324 323 322 322 322 323 323 323 322 322 323 323 323 322 321 320 320 320 319 319 318 318 318 317 317 316 315 314 313 311 309 307 305 303 299 297 296 295 298 299

GFSGL_925_thetae_024.txt.gz
Theta_e
331 332 334 334 332 332 332 331 331 330 329 330 330 331 331 331 331 332 331 331 331 331 331 332 332 332 331 332 331 329 327 329 330 328 328 326 325 324 325 324 324 323 325
330 331 334 333 332 333 332 332 331 331 329 329 329 330 330 330 331 331 330 331 331 331 331 331 332 331 331 330 331 331 330 329 328 328 327 326 326 325 325 325 324 322 320
329 330 334 333 332 332 332 332 332 330 329 329 329 330 329 330 331 330 330 329 330 330 331 330 332 332 328 327 328 332 330 328 328 328 327 326 326 325 325 324 323 321 320
328 331 333 333 332 332 332 332 332 331 330 329 329 329 330 329 329 329 329 330 330 331 330 331 331 330 326 327 329 330 329 329 328 327 326 326 325 324 324 323 322 317 320
327 330 333 333 332 332 332 332 332 331 331 330 331 330 329 329 328 329 329 329 329 331 332 331 331 331 330 328 329 331 329 328 328 326 326 325 324 324 323 323 323 321 321
327 330 332 332 332 332 332 332 332 331 331 331 331 330 329 328 326 327 328 330 330 331 331 331 328 328 328 329 329 328 328 327 327 326 325 325 325 324 323 323 324 325 325
327 329 332 331 332 332 332 331 332 332 332 331 331 330 329 326 324 325 327 330 331 331 330 328 327 328 328 328 328 327 327 327 326 326 325 326 324 322 319 324 324 324 324
326 328 332 331 332 332 333 332 332 332 332 331 330 330 328 325 324 325 327 329 330 331 329 331 330 330 327 328 326 326 326 326 326 326 326 325 326 324 324 325 326 327 323
326 327 331 331 332 331 331 333 333 332 327 328 329 328 327 324 325 325 328 330 330 331 332 330 330 329 326 327 327 325 325 325 325 326 326 325 326 327 326 326 325 324 323
325 326 330 330 331 330 329 333 333 333 332 330 327 326 326 326 326 326 328 327 329 328 330 329 328 325 326 325 326 327 322 323 326 326 326 327 327 327 323 323 324 324 325
325 325 328 330 329 330 329 332 333 332 332 331 329 328 327 326 326 326 326 326 328 328 329 328 326 326 326 326 328 327 324 324 326 327 327 326 323 323 325 328 327 326 322
325 325 326 330 330 331 330 331 333 333 333 332 331 330 327 326 326 326 326 326 328 328 327 327 326 326 323 326 328 326 323 324 323 323 323 324 324 324 323 323 321 320 320
325 326 326 329 329 331 330 328 331 333 332 332 332 331 331 330 328 327 327 327 328 328 328 328 326 326 325 323 324 324 323 325 325 325 325 324 323 320 318 317 315 313 312
325 326 326 327 330 329 329 327 326 330 330 328 328 331 331 330 329 328 326 327 328 328 328 327 326 326 328 324 321 323 326 326 325 323 320 318 317 316 316 315 314 312 309
326 326 326 326 328 330 327 326 324 325 326 326 325 324 329 330 330 329 328 328 329 328 327 325 326 327 327 326 323 323 323 323 322 321 319 317 317 316 316 315 314 311 310
326 327 327 325 326 328 330 328 324 324 322 322 324 326 324 323 326 328 328 328 329 327 327 327 327 326 325 325 325 325 324 322 322 321 319 317 317 316 315 314 313 314 312
327 327 326 324 325 325 327 329 328 323 323 321 321 322 324 324 321 323 324 324 324 325 327 324 322 322 323 323 323 323 324 323 322 320 319 317 317 316 314 314 314 314 311
328 326 326 324 324 323 324 326 327 327 325 323 319 319 320 321 323 323 323 322 321 321 321 321 321 320 318 318 320 321 321 322 322 321 319 319 317 317 315 315 314 313 310
328 326 325 324 324 323 323 323 323 324 324 324 323 321 319 318 318 319 320 322 321 321 321 321 322 321 321 320 319 318 319 320 321 321 320 319 319 317 316 315 314 312 309
329 327 325 325 324 323 323 323 323 323 323 323 323 324 322 320 319 317 315 317 319 318 317 317 318 320 321 321 320 320 319 320 321 321 320 320 319 318 316 315 314 310 307
330 328 325 325 325 323 322 323 323 322 323 323 322 323 322 322 322 321 321 322 322 321 321 320 318 316 316 318 319 318 318 319 319 319 319 320 319 318 316 315 314 310 306
329 329 325 325 325 324 323 322 323 323 323 323 323 323 322 322 320 320 321 321 321 322 322 321 320 318 317 316 315 317 317 317 317 318 318 318 318 317 316 315 313 308 305
329 328 326 326 326 325 324 323 322 323 323 323 323 323 321 323 322 320 321 322 322 321 321 321 321 321 319 318 317 315 314 315 316 317 317 316 316 315 315 313 312 307 302
328 328 327 326 326 326 326 325 324 323 323 323 323 323 323 323 323 322 322 323 323 323 323 321 321 320 320 320 319 318 316 315 314 314 316 315 315 314 313 311 309 305 300
328 327 327 326 326 326 326 326 326 326 325 324 323 323 323 323 324 323 323 323 323 324 324 323 322 321 321 320 320 320 319 318 318 317 316 316 315 313 312 310 307 303 296
327 327 327 327 327 326 326 327 326 327 327 326 326 325 325 325 324 324 323 324 324 324 324 324 323 323 322 321 321 320 320 319 318 316 316 315 314 312 309 307 302 298 296

GFSGL_925_thetae_027.txt.gz
Theta_e
332 332 333 334 333 334 335 333 332 331 330 330 331 332 332 333 333 334 332 329 331 328 325 324 333 330 332 333 330 330 331 329 331 328 327 326 325 323 323 323 325 324 324
331 332 334 333 333 335 334 333 331 330 329 329 330 331 331 331 332 332 332 332 332 332 332 331 332 333 334 332 331 330 330 329 328 328 326 325 325 324 323 324 324 325 323
330 331 334 334 334 334 333 333 331 330 329 329 330 330 330 331 331 331 331 331 331 332 332 332 332 333 332 330 330 331 329 328 327 326 326 325 325 324 324 324 323 321 320
329 331 334 334 333 333 333 333 332 329 329 330 330 330 331 331 330 330 330 331 331 333 331 333 332 329 326 328 329 329 328 328 327 326 325 325 325 323 322 321 319 316 315
328 332 334 334 333 332 332 333 332 331 330 330 331 332 330 330 329 330 331 331 333 332 333 332 331 327 327 329 330 330 329 327 327 326 326 325 324 323 321 318 318 320 319
329 331 333 332 333 332 332 333 332 332 330 330 331 332 330 329 328 329 330 330 333 332 332 331 331 330 328 330 329 329 328 327 326 326 325 324 324 323 320 320 321 321 321
329 331 333 332 333 333 331 332 333 332 333 331 332 331 331 327 326 328 330 330 332 332 332 331 330 329 328 328 329 328 327 326 326 325 325 325 324 323 322 323 322 324 324
329 331 332 332 333 333 332 332 333 332 333 333 332 331 330 325 325 327 329 332 332 332 332 331 331 329 329 329 327 327 326 326 325 325 325 324 324 320 324 325 325 325 323
328 331 332 332 333 332 333 334 334 333 331 331 331 331 330 325 324 327 329 331 331 332 331 330 331 329 328 326 326 326 326 326 325 325 325 325 325 322 325 326 327 324 321
328 331 332 332 332 332 334 335 335 334 332 330 331 329 329 328 326 327 330 331 331 330 330 328 327 327 326 326 325 325 325 325 326 326 326 325 324 324 327 327 326 324 324
327 329 332 332 332 332 334 334 335 333 333 331 330 329 328 326 327 327 329 331 331 331 328 327 326 326 327 327 325 325 325 326 326 325 326 326 327 327 326 325 326 327 326
327 328 331 332 332 332 334 335 333 334 333 332 331 331 329 327 326 326 327 330 330 330 329 326 325 325 327 327 327 326 327 326 327 327 328 327 326 325 326 328 326 324 324
327 327 331 332 331 333 331 334 334 334 333 333 332 331 331 330 327 326 326 328 330 329 329 327 325 323 327 327 324 326 328 328 329 328 324 323 323 325 326 325 322 320 320
327 328 329 332 331 332 331 331 332 333 330 330 332 332 332 330 329 328 327 328 328 329 327 326 325 325 324 325 322 324 326 324 324 325 325 325 325 324 323 322 319 316 315
327 328 328 331 331 332 330 327 328 330 329 328 328 332 332 331 330 330 329 330 330 329 329 327 327 328 325 324 324 325 327 326 325 325 324 323 322 321 320 319 318 316 315
327 328 328 329 331 330 328 327 324 325 326 325 325 326 329 331 329 328 329 330 330 329 329 328 328 327 326 325 325 325 325 326 325 324 322 321 319 319 319 319 318 317 315
328 328 327 327 329 331 329 328 326 324 323 323 325 325 325 330 330 329 329 329 328 328 329 329 329 328 327 325 324 324 325 324 324 324 323 321 319 319 318 318 317 317 317
329 328 327 325 326 327 330 331 330 327 325 322 321 322 323 323 324 328 329 328 327 327 328 328 326 327 326 325 324 324 325 325 325 324 323 321 319 319 318 317 317 317 317
329 328 327 326 325 325 326 328 330 330 328 324 322 320 320 322 322 323 323 323 323 324 325 323 323 322 320 321 323 323 323 324 325 324 323 322 321 320 319 318 317 317 316
330 328 327 327 325 325 325 325 326 327 328 327 324 322 319 318 319 321 322 323 322 321 320 320 322 323 322 321 319 319 320 322 323 324 324 322 322 321 320 320 318 317 315
330 329 327 327 327 325 324 325 324 324 324 325 325 325 322 320 320 319 320 322 322 322 321 321 321 321 323 323 323 322 321 320 321 322 323 323 322 322 321 320 319 317 316
332 332 328 327 327 325 324 323 324 324 324 324 324 324 324 323 320 320 321 321 320 319 320 321 320 319 319 319 321 323 322 322 321 322 322 322 322 322 322 321 320 318 316
332 332 331 329 328 326 325 324 324 324 324 323 323 323 323 324 324 322 322 322 323 323 323 323 323 322 321 320 319 319 320 321 321 321 322 322 322 322 322 321 320 319 317
332 332 332 330 329 327 327 326 325 324 324 324 324 323 324 324 324 323 322 322 323 324 323 323 322 322 323 322 321 319 318 317 318 319 320 320 321 320 320 320 319 318 315
331 332 333 332 330 329 328 328 327 326 325 325 325 324 324 325 325 325 324 322 323 323 324 324 324 323 322 322 322 321 320 319 317 316 316 318 319 319 319 318 317 316 311
329 331 332 332 331 330 330 330 330 329 328 327 326 326 326 325 325 326 326 325 324 324 325 325 325 325 324 323 322 322 321 320 319 318 317 318 318 318 318 317 316 313 304

GFSGL_925_thetae_033.txt.gz
Theta_e
334 333 333 333 333 334 333 332 332 331 331 332 332 332 331 332 331 329 330 329 326 326 324 326 328 329 330 328 328 324 329 328 327 327 328 328 327 324 323 320 320 322 324
333 334 333 334 334 332 333 331 330 330 329 329 331 331 331 331 331 330 328 327 329 327 325 327 326 329 330 330 329 330 328 327 326 326 326 323 323 322 322 323 324 322 320
334 333 334 333 332 333 333 331 329 330 329 330 331 330 331 331 331 331 331 330 329 328 328 328 328 329 329 329 329 328 327 326 326 326 325 323 324 324 324 323 322 322 322
333 334 334 332 333 333 332 331 329 329 329 330 331 331 331 329 329 330 330 331 332 329 328 328 328 329 327 327 328 327 326 326 325 324 324 324 323 323 322 321 319 319 318
332 335 333 333 332 332 332 332 332 328 330 331 331 330 329 328 329 329 330 331 331 331 330 328 327 327 328 326 326 327 326 325 324 323 323 322 322 322 320 319 317 318 319
335 335 333 331 332 333 333 332 331 328 331 331 329 329 329 328 328 329 331 331 332 330 327 327 328 328 328 328 327 327 325 324 323 323 322 322 321 319 319 318 317 316 313
335 334 332 331 332 332 332 331 330 331 331 330 329 329 328 327 329 331 331 331 331 330 328 328 329 329 329 328 327 325 325 323 323 322 322 320 318 319 318 317 316 315 315
334 334 333 333 333 333 333 331 331 330 330 331 330 328 326 327 328 331 331 331 330 330 329 328 328 328 328 326 325 325 325 323 323 322 323 321 321 319 319 318 316 316 314
334 334 334 333 333 332 333 332 330 330 330 331 329 326 325 327 329 331 331 330 330 330 328 329 328 327 327 326 325 324 324 324 323 323 323 323 322 320 318 318 318 315 315
333 334 333 332 333 332 332 331 331 331 331 331 329 325 325 327 329 331 331 331 330 330 329 327 326 327 326 326 325 324 323 324 323 323 322 322 320 320 319 323 317 317 318
333 333 333 333 334 333 333 333 331 331 330 330 328 327 326 326 329 330 330 329 328 327 326 325 325 326 326 325 325 324 324 324 324 323 321 319 321 319 321 325 319 318 319
333 333 333 333 334 333 333 332 332 330 329 329 328 328 326 326 329 330 330 328 327 326 325 325 325 325 325 325 325 324 324 324 323 322 320 320 324 324 323 326 323 321 319
333 333 334 334 333 332 333 334 332 331 329 328 328 328 326 326 327 330 329 329 327 326 326 325 325 325 325 325 325 324 324 324 324 324 322 320 323 325 326 326 326 324 324
334 334 334 335 335 333 333 333 333 332 331 330 329 329 327 325 327 329 329 328 326 326 326 326 325 325 325 325 325 325 325 325 325 325 324 322 322 324 327 326 325 323 323
333 333 333 332 334 336 334 335 334 334 333 332 331 329 327 326 327 329 329 328 326 325 325 325 324 324 324 324 324 326 326 326 326 325 325 325 325 327 326 326 325 320 321
333 332 334 332 332 332 331 329 331 329 333 333 331 329 328 327 326 329 329 328 326 325 324 324 324 324 323 324 324 327 327 326 326 326 327 326 326 326 326 326 325 321 318
332 333 333 334 333 332 326 323 322 323 333 334 332 330 329 328 326 328 329 328 326 324 325 325 324 324 325 325 325 326 326 326 325 327 326 324 324 324 325 324 322 320 317
331 333 332 332 333 332 331 325 323 323 324 327 333 331 330 327 327 329 329 327 326 325 327 328 326 323 325 325 326 326 325 326 327 326 326 326 326 325 324 323 322 319 318
331 330 330 332 331 333 332 328 325 323 323 325 328 330 330 327 327 329 329 328 327 327 329 329 328 327 321 320 320 320 323 325 327 325 326 326 325 324 321 320 321 320 319
329 330 330 329 332 331 331 330 326 325 324 322 325 326 328 327 327 328 328 328 328 327 328 329 328 329 329 327 324 321 321 323 326 325 325 325 324 322 320 320 320 319 319
328 329 329 329 327 330 330 329 330 326 325 322 323 325 328 327 325 327 327 327 328 328 328 327 328 328 329 328 328 325 324 324 323 325 324 324 325 323 321 321 320 319 319
329 328 328 327 327 327 327 328 331 330 326 324 322 323 325 327 326 326 326 326 328 329 328 328 328 327 327 326 324 326 326 325 325 325 325 325 324 324 324 322 320 320 320
330 329 328 327 326 327 326 326 327 328 329 327 324 322 322 325 324 324 324 324 325 326 327 324 323 322 320 319 319 322 322 321 320 321 323 325 325 325 324 324 323 321 321
329 330 328 328 327 326 327 325 325 326 326 327 328 324 322 320 321 322 322 323 322 322 320 319 319 323 324 322 322 321 321 323 323 322 321 320 322 325 325 325 324 323 322
331 330 330 329 328 327 326 327 325 325 326 325 325 326 324 322 320 320 320 320 320 321 320 320 319 317 319 323 322 322 322 320 320 320 323 323 323 322 322 323 324 323 323
332 331 332 331 329 328 327 327 327 325 324 324 325 325 324 323 322 322 322 321 320 320 320 320 320 320 319 319 318 318 320 323 323 321 320 321 323 323 323 322 322 323 322

GFSGL_925_thetae_036.txt.gz
Theta_e
334 334 333 335 334 334 332 332 331 331 331 330 332 332 331 331 331 331 330 329 327 324 325 326 328 329 327 327 327 327 327 327 327 327 328 328 327 326 326 325 323 322 317
333 333 333 333 334 332 332 331 331 331 330 330 331 331 331 331 330 328 329 327 327 326 324 327 327 328 329 328 327 327 326 326 327 327 325 325 324 322 320 319 318 318 322
332 333 333 333 333 332 332 331 330 330 329 330 331 331 331 330 331 331 330 329 329 326 327 326 329 329 328 328 325 327 326 326 326 325 323 324 322 321 322 322 321 321 322
333 332 333 332 332 332 332 330 329 329 329 330 330 330 330 329 330 330 330 330 329 328 327 327 328 329 328 327 327 326 326 326 325 323 323 323 323 323 322 320 319 318 319
333 332 332 331 332 332 332 329 328 330 329 331 330 329 328 328 328 328 330 331 330 328 329 328 328 328 328 328 327 326 326 325 324 324 324 323 322 321 320 319 316 315 315
333 333 332 332 331 332 331 331 332 330 330 330 329 328 328 327 327 328 331 332 329 329 327 327 327 327 326 326 326 326 325 325 324 323 323 322 322 320 318 318 316 315 313
334 333 332 331 332 332 332 331 330 330 330 329 328 329 327 327 329 331 331 331 329 327 327 328 328 328 327 326 326 326 325 324 323 322 322 321 320 319 318 317 317 316 315
334 333 331 331 331 332 331 330 331 331 330 328 328 327 327 328 330 331 331 330 328 328 328 328 328 328 328 326 324 323 323 323 322 322 321 321 322 319 318 318 316 314 314
334 333 331 332 331 332 332 330 330 330 330 329 328 326 327 328 331 330 330 330 329 328 328 326 327 327 326 325 323 323 322 322 322 321 321 322 320 319 319 316 315 312 311
333 333 332 332 332 332 332 331 330 330 330 329 326 324 327 329 331 331 330 330 328 327 327 327 327 326 325 325 323 323 322 321 321 321 320 320 320 319 319 318 316 313 312
333 333 333 332 332 332 332 330 330 330 330 328 325 325 326 328 330 331 330 329 327 327 326 326 326 325 325 324 323 323 322 322 321 321 319 319 319 319 318 317 315 314 313
332 333 332 332 332 332 332 331 330 330 330 328 326 326 325 328 330 330 329 329 326 326 325 325 326 325 324 324 324 323 323 322 321 320 320 320 319 319 322 322 315 313 315
332 332 332 333 333 332 332 331 330 329 329 327 327 326 326 327 329 330 328 326 326 325 324 325 324 325 325 324 324 324 324 323 322 320 319 321 319 320 323 325 320 320 318
332 332 333 334 333 332 332 332 330 328 328 327 326 325 325 326 328 330 328 326 325 324 324 324 324 324 325 325 324 324 323 323 323 321 320 322 324 322 323 325 324 324 322
332 332 333 333 332 332 333 332 330 330 329 328 327 326 325 324 328 328 328 326 325 325 325 324 324 324 322 323 324 324 324 324 323 321 321 322 323 323 325 325 325 324 322
331 332 332 333 332 331 332 332 332 332 330 329 328 328 326 325 328 328 328 326 326 325 324 323 322 322 322 322 324 325 325 324 324 324 323 322 321 322 324 326 325 323 321
332 331 331 332 332 332 331 331 329 331 332 332 331 329 327 325 328 329 328 326 325 324 324 323 322 322 321 322 323 324 324 325 325 325 324 324 324 323 324 326 325 324 323
331 332 331 331 331 331 330 329 329 324 328 331 331 330 328 326 327 329 327 325 323 323 324 324 323 323 323 323 324 325 325 325 325 325 325 325 326 325 325 325 324 323 323
331 330 331 332 331 330 328 325 324 325 331 331 331 330 329 327 326 328 328 327 324 324 325 325 324 324 324 324 324 325 326 325 325 325 325 326 326 324 322 322 322 322 322
331 330 330 331 331 330 329 324 322 323 326 330 330 331 329 327 326 327 327 326 325 324 324 326 327 323 324 325 324 324 325 325 325 325 325 326 325 324 322 322 322 322 321
328 330 330 330 330 331 329 327 324 322 322 324 328 331 330 327 325 327 328 327 326 325 325 325 327 328 326 321 323 324 324 325 325 324 324 325 325 323 324 324 324 323 319
328 327 328 328 329 329 329 329 328 325 323 322 323 326 330 328 325 326 327 327 328 328 327 326 327 328 328 328 327 324 322 321 320 320 321 325 325 324 324 323 323 321 319
327 327 327 327 326 327 329 328 328 327 325 324 322 322 323 325 325 325 325 326 327 328 328 328 328 327 328 328 328 328 327 326 327 325 323 323 323 324 323 323 322 320 318
328 327 326 326 326 325 325 325 326 328 327 325 324 322 322 323 324 325 325 325 325 326 326 327 327 327 327 326 326 326 325 325 322 322 326 325 324 324 323 323 322 321 321
331 328 328 326 326 325 325 324 324 324 326 327 326 323 323 322 322 324 324 324 324 324 323 323 323 323 325 325 322 320 320 320 320 319 320 321 321 321 322 323 323 322 322
328 332 330 328 327 327 326 324 325 324 323 323 324 327 325 324 324 323 323 323 322 322 322 322 321 321 320 319 318 317 319 322 323 322 321 321 321 321 320 320 321 322 322

GFSGL_925_thetae_042.txt.gz
Theta_e
333 333 333 333 333 332 332 332 331 330 328 328 328 329 329 330 330 330 329 329 328 328 326 327 327 327 327 327 326 325 325 325 326 327 327 325 325 327 329 332 332 332 332
332 332 332 332 332 332 331 331 329 328 329 329 330 330 330 330 330 330 330 329 328 326 325 325 326 327 326 326 325 324 325 325 327 326 325 323 323 326 325 326 324 324 328
332 333 332 332 331 331 331 330 329 330 329 330 330 330 330 329 329 329 328 328 328 326 325 325 326 327 326 325 325 325 325 326 326 325 323 321 320 324 323 322 323 322 321
331 332 332 332 332 331 330 330 330 329 329 329 330 330 330 329 329 329 329 329 328 327 326 327 326 326 327 326 325 325 325 325 325 323 321 320 319 319 320 318 317 318 317
331 331 331 332 331 331 331 329 329 328 328 329 330 330 328 328 328 328 329 329 328 327 327 327 328 326 326 326 325 325 325 324 323 322 322 321 320 319 318 316 315 315 316
331 331 331 331 330 330 330 328 328 329 328 329 329 328 327 326 327 328 330 330 329 327 328 328 327 327 326 326 325 325 324 323 323 322 322 321 320 318 317 316 315 315 312
331 331 331 330 330 331 328 328 328 330 329 329 328 327 326 326 327 329 330 329 328 328 327 328 327 326 326 325 325 324 323 324 323 322 321 321 319 317 316 316 317 315 313
331 330 330 330 330 330 329 329 329 329 329 328 327 327 326 328 330 330 330 327 327 326 326 327 327 326 326 325 325 324 323 323 323 322 322 320 319 317 317 317 316 315 314
331 331 330 330 330 330 330 329 329 329 328 327 327 326 327 330 330 330 328 327 326 326 326 327 326 326 326 325 324 323 323 323 323 322 321 320 319 318 318 318 316 314 312
332 331 330 330 330 330 329 329 328 328 328 327 326 325 327 330 329 329 328 325 325 326 326 326 327 326 324 325 323 323 321 321 322 321 320 319 319 319 320 319 318 314 313
332 331 330 330 330 330 329 328 328 328 327 326 324 325 327 329 329 329 328 325 326 326 325 324 324 323 323 323 323 322 320 321 320 319 318 318 319 319 320 320 318 315 315
332 331 330 330 330 330 329 328 328 328 327 324 323 324 325 328 328 328 327 326 326 326 324 324 322 322 321 322 322 321 321 320 319 318 317 317 318 319 319 320 318 317 316
332 331 330 331 330 331 330 328 327 328 326 323 322 322 324 326 328 327 327 326 326 325 325 324 322 322 322 322 321 320 320 319 319 319 318 318 319 320 319 317 316 315 317
331 330 330 330 330 330 329 328 328 327 326 324 322 321 321 324 325 326 326 325 325 324 324 323 322 323 322 321 320 319 320 320 320 319 319 319 320 320 319 316 315 314 313
331 330 330 330 330 330 329 328 328 328 328 325 324 323 322 322 325 326 325 325 323 324 323 322 321 321 319 318 319 320 320 320 321 320 320 320 320 319 318 316 315 314 315
329 330 330 330 330 330 329 327 328 328 327 327 327 326 324 324 326 326 326 324 323 324 322 322 321 320 320 320 320 320 320 320 321 321 321 320 319 321 322 322 320 319 319
329 330 330 330 330 330 329 329 327 328 328 328 327 326 326 325 326 327 325 323 323 323 322 322 322 322 322 323 322 321 320 321 322 322 321 320 319 320 321 321 323 323 321
328 330 331 331 330 330 329 329 329 327 326 327 328 328 327 325 326 326 324 323 323 322 323 323 322 323 323 323 323 322 322 322 321 321 321 320 318 319 319 320 322 322 321
329 329 330 331 331 330 329 329 329 327 327 324 326 328 327 324 326 326 325 324 322 322 322 322 323 323 323 323 323 323 323 322 322 321 321 320 320 321 321 321 322 322 322
328 329 330 331 330 330 329 329 328 327 325 324 326 327 326 324 324 324 324 324 324 324 323 323 323 322 322 322 322 322 322 322 323 322 322 321 321 321 321 321 321 322 321
328 329 330 330 330 330 330 329 329 328 326 325 327 329 328 326 324 325 324 325 324 324 323 323 323 323 323 323 322 321 321 321 323 322 323 324 323 323 323 323 323 323 323
327 328 329 329 328 329 329 329 329 327 325 324 326 328 328 327 325 325 325 326 326 326 326 324 323 323 323 323 323 324 323 323 323 323 324 324 324 323 323 323 323 322 322
327 327 328 328 328 328 328 328 328 326 325 324 324 325 327 328 327 326 325 325 326 327 327 326 326 324 323 323 323 322 323 324 324 324 324 324 323 323 323 322 322 322 322
326 327 326 327 328 328 328 327 327 327 327 326 325 324 324 326 328 328 328 327 326 325 325 325 326 326 326 324 323 324 324 322 322 322 323 323 323 322 322 322 322 321 321
326 326 325 325 325 326 326 327 327 327 327 326 326 326 326 325 324 324 325 326 327 327 327 326 325 325 325 325 325 325 323 322 324 326 326 325 323 323 322 321 321 321 320
313 315 317 321 322 322 322 322 322 323 323 324 324 323 323 324 324 323 323 323 324 324 325 325 326 325 325 324 324 323 323 324 325 325 325 325 325 324 323 323 322 321 321

GFSGL_925_thetae_045.txt.gz
Theta_e
336 335 335 335 335 335 335 335 335 334 333 333 332 331 331 331 332 332 332 331 331 329 328 329 329 329 329 328 326 328 328 328 327 327 326 326 326 329 331 332 333 333 333
335 335 335 335 335 335 334 334 332 331 331 330 331 331 331 332 332 332 332 331 330 328 326 326 325 328 330 326 326 329 327 329 328 326 324 324 324 326 329 329 330 330 330
335 335 335 334 334 334 333 332 330 331 331 331 332 332 331 332 331 331 331 331 330 328 325 324 324 327 329 326 328 328 329 328 328 324 323 321 320 323 323 322 321 320 319
334 334 334 334 333 333 333 331 331 331 331 332 332 332 331 331 331 331 331 330 328 327 326 325 325 327 327 325 327 328 329 328 326 323 322 321 319 320 320 318 317 318 318
332 332 333 333 333 332 332 331 331 331 331 332 332 332 331 330 328 330 330 329 327 327 327 327 327 328 328 328 328 328 329 327 323 322 322 320 319 320 317 317 315 315 315
331 332 333 333 333 333 332 331 331 330 331 332 331 330 329 325 327 328 330 332 330 327 327 327 327 327 325 326 327 327 328 326 325 324 322 321 320 318 316 316 315 315 312
332 333 333 333 332 332 331 331 331 331 331 331 330 329 328 327 327 328 330 330 328 327 327 327 326 326 326 325 325 326 326 324 324 324 322 321 319 317 317 317 317 316 314
333 333 333 332 332 332 330 331 331 329 331 330 329 328 328 328 330 330 329 329 328 328 327 327 326 325 325 324 324 325 325 324 323 325 323 321 319 319 319 319 316 315 315
333 332 332 332 332 331 331 331 329 331 330 329 329 328 329 329 330 329 329 328 327 327 327 327 326 326 325 324 324 324 324 324 324 324 322 320 319 318 319 316 316 317 314
333 333 332 332 332 332 331 331 330 330 330 328 328 328 328 328 328 328 327 326 326 326 326 326 326 326 325 324 323 323 322 322 322 322 320 318 318 318 317 318 317 315 316
333 333 332 332 333 332 331 331 330 330 329 328 327 327 328 328 328 327 326 327 326 324 325 325 325 325 324 324 324 323 322 322 321 320 318 317 317 317 318 318 317 316 319
333 333 332 333 331 331 331 331 331 330 328 327 326 325 324 327 327 327 326 325 325 325 324 323 323 323 323 323 323 323 323 321 319 317 316 316 317 317 318 318 318 318 318
333 333 332 333 332 332 331 331 331 331 329 326 325 326 324 325 326 327 326 326 325 324 324 322 321 321 321 322 323 323 322 319 318 318 317 317 318 319 319 318 317 317 317
334 333 332 333 333 332 331 330 329 330 329 327 326 324 324 324 325 326 326 325 324 324 322 321 321 320 320 320 318 319 320 320 319 320 319 318 319 319 319 318 316 315 317
333 333 333 333 333 332 331 330 330 330 329 326 328 326 325 325 325 325 324 324 323 323 322 320 320 318 317 318 320 321 321 321 321 321 319 320 320 319 319 319 319 318 318
333 333 333 333 333 331 328 326 328 328 327 327 327 328 326 326 325 325 325 323 324 322 321 320 319 318 318 320 320 321 321 322 322 323 323 323 322 322 322 320 319 319 319
332 334 333 333 333 332 330 330 329 326 326 327 326 326 325 324 325 325 324 323 323 322 322 321 321 321 320 321 321 322 322 323 323 324 324 324 324 324 322 321 320 319 318
333 333 333 333 333 333 332 331 331 331 330 328 327 326 325 324 327 325 323 323 322 323 323 322 322 323 324 322 323 324 325 324 324 324 324 324 324 323 322 322 322 322 323
332 331 332 333 333 333 332 331 331 331 331 330 324 326 325 324 327 325 323 324 323 323 323 323 323 324 325 325 325 324 325 325 325 325 325 325 324 322 322 323 324 324 325
330 330 332 333 333 332 332 331 331 331 331 328 327 325 323 323 323 322 323 325 325 326 325 325 324 324 324 325 324 325 325 324 323 325 325 324 323 322 321 322 323 324 324
329 330 330 333 333 333 332 332 330 330 331 329 331 326 325 325 325 323 322 325 326 326 326 326 326 326 325 324 323 323 323 324 323 325 325 325 324 324 324 324 325 325 325
329 329 330 331 332 332 332 332 331 329 329 330 330 326 326 326 327 326 325 325 327 327 326 326 325 325 325 324 325 324 324 324 324 324 326 326 326 325 325 326 326 326 326
329 329 329 331 331 332 331 332 331 331 329 328 329 325 326 325 329 328 327 327 327 328 328 327 327 326 325 325 325 325 325 325 325 325 327 327 327 327 327 326 326 326 326
330 329 329 330 331 331 331 332 331 330 330 329 328 328 325 327 329 329 329 328 328 328 328 328 327 327 327 326 325 325 325 325 325 326 326 326 326 326 326 326 326 325 324
328 329 329 328 329 330 330 331 331 331 329 329 328 328 327 326 326 327 328 329 328 328 328 328 328 328 328 327 327 326 325 324 323 324 324 325 325 324 324 323 323 323 324
314 317 319 322 324 324 325 326 326 326 327 327 327 327 326 326 325 324 324 324 325 326 327 327 327 327 327 327 327 327 326 326 325 324 324 325 325 325 325 325 326 326 326

GFSGL_925_thetae_048.txt.gz
Theta_e
345 344 343 342 340 339 339 339 340 339 339 337 336 335 334 333 332 332 332 332 332 332 331 328 331 331 332 331 331 330 328 328 330 331 329 327 328 329 330 332 333 335 334
343 342 340 339 339 340 339 339 338 337 336 334 333 332 332 331 333 333 333 331 332 332 328 328 329 331 331 332 330 328 331 331 328 329 326 325 326 328 329 331 333 333 332
339 339 339 339 339 338 338 337 335 334 333 332 332 332 332 332 333 333 332 332 332 331 327 325 326 328 331 331 327 331 331 331 329 327 323 322 323 324 325 325 327 325 324
338 338 338 337 336 336 335 334 333 333 332 332 332 332 333 333 332 332 332 332 330 330 327 325 324 324 330 330 331 331 330 330 329 326 322 321 321 321 321 319 319 320 320
336 335 334 334 334 335 335 334 334 332 332 332 333 333 333 333 331 332 332 332 332 327 327 326 325 326 329 328 330 331 331 329 327 323 322 321 320 320 318 317 317 317 317
332 332 333 335 335 336 335 334 332 332 333 333 333 333 333 329 327 328 330 333 331 327 326 327 327 327 328 327 329 330 330 328 327 324 322 321 320 318 317 316 316 317 314
330 333 334 335 335 335 334 333 332 333 333 333 333 333 332 331 326 328 330 333 332 328 327 327 326 327 328 328 328 330 328 327 327 327 323 322 319 319 319 318 319 318 315
331 333 334 334 334 334 333 333 332 333 332 332 333 332 332 329 329 330 330 332 331 330 327 327 326 326 326 328 329 329 328 328 328 327 323 322 320 320 321 320 319 317 315
332 333 333 333 334 333 333 332 333 332 333 333 332 332 332 329 330 329 331 331 331 330 327 326 325 325 324 326 328 328 328 327 327 327 325 323 321 319 319 319 315 316 316
332 333 333 333 333 332 332 333 332 332 333 332 331 331 329 329 328 328 329 330 330 327 326 326 326 326 324 325 327 326 325 324 324 323 322 321 321 320 319 319 320 319 318
332 333 333 333 334 333 333 332 332 331 332 332 331 329 328 329 328 328 328 330 329 325 325 324 325 325 325 325 326 327 324 324 322 320 319 319 319 318 318 319 321 320 322
333 333 333 335 334 334 334 333 332 332 333 332 331 329 327 326 327 327 326 328 326 325 324 325 325 324 325 324 326 324 323 322 320 319 318 317 319 317 317 318 319 320 323
333 333 334 334 334 334 333 333 333 333 332 332 330 330 327 325 326 327 326 325 325 326 323 324 323 322 323 324 324 323 323 322 320 320 320 320 318 319 318 317 317 323 321
334 334 334 334 334 334 333 333 333 332 332 331 330 329 328 326 327 327 325 325 324 324 322 321 320 320 321 322 323 323 323 322 321 319 320 320 319 321 321 321 321 323 323
334 334 334 334 334 334 332 331 332 333 332 331 330 330 329 329 329 328 327 326 323 322 321 319 318 317 316 317 319 320 320 320 320 321 320 320 321 322 321 322 324 322 321
334 334 334 333 334 333 332 331 330 330 329 328 330 330 328 328 326 325 325 324 323 322 320 321 319 318 320 321 321 321 321 321 322 322 322 323 323 323 323 323 323 322 321
333 333 332 331 331 332 332 332 331 327 327 326 327 328 327 326 325 325 324 323 322 321 322 323 322 321 321 321 321 322 322 322 323 324 324 324 324 324 323 324 324 323 322
332 333 332 331 330 330 331 332 333 332 331 328 325 324 325 325 325 324 323 322 321 323 323 325 325 324 323 322 323 324 325 325 326 326 325 326 325 325 325 325 323 321 320
332 332 330 331 331 329 329 330 331 332 332 331 323 324 324 324 325 324 323 325 324 324 323 324 326 326 325 325 325 326 326 326 326 326 326 326 326 326 326 325 323 322 321
331 331 331 331 333 331 328 329 330 332 332 332 330 326 320 324 320 321 324 326 326 325 325 325 325 327 326 326 326 326 327 327 326 327 327 327 327 326 326 324 324 324 324
329 331 331 331 331 331 330 327 329 330 331 330 332 328 323 328 325 325 327 327 327 328 326 326 326 327 327 327 326 326 326 327 328 327 327 327 327 327 325 324 324 325 324
328 330 330 330 330 330 330 330 328 327 329 329 331 325 325 327 329 328 328 329 329 329 328 328 328 328 328 327 327 327 327 327 328 327 327 327 327 326 325 325 325 326 326
329 329 329 329 329 330 332 331 330 328 327 327 329 327 324 329 329 329 329 329 330 330 330 329 328 328 328 328 328 328 328 328 328 328 327 328 328 328 327 327 327 327 328
331 330 330 330 331 331 332 332 332 331 328 328 328 328 329 330 330 330 330 330 330 329 329 330 330 329 328 328 328 328 327 328 328 328 329 329 329 329 328 329 329 328 328
333 333 332 332 332 333 333 333 333 333 331 330 330 330 330 331 332 332 333 333 332 332 331 331 331 330 329 329 329 328 328 326 326 326 327 328 328 327 327 327 327 327 326
319 320 321 324 329 331 331 331 330 331 332 332 331 331 330 330 329 329 329 329 330 331 331 331 331 330 329 327 328 329 329 328 327 326 325 326 326 326 326 326 326 325 324

GFSGL_925_thetae_054.txt.gz
Theta_e
350 351 353 352 354 353 352 349 349 348 347 344 343 341 339 338 338 334 334 335 332 333 332 332 333 333 333 332 333 330 331 330 331 331 331 331 330 331 331 332 328 329 333
352 352 353 351 350 349 346 344 341 342 341 340 340 337 337 338 335 334 332 334 333 333 333 332 331 330 332 330 332 331 330 330 330 330 328 329 330 332 333 332 328 331 331
350 349 347 346 347 345 344 343 341 339 338 336 338 335 337 334 332 332 332 333 333 333 333 332 330 328 329 328 331 331 330 330 329 328 325 325 326 327 330 329 328 330 330
347 346 346 345 344 343 342 340 339 336 336 336 335 334 332 332 332 331 333 333 333 333 333 330 326 326 328 329 330 331 330 330 329 325 324 324 324 325 327 326 325 327 324
343 344 344 343 342 341 340 338 335 335 335 334 334 333 332 332 333 333 333 334 334 332 329 326 326 326 327 328 330 331 329 331 326 324 323 322 322 323 322 321 319 320 321
342 343 343 341 340 338 336 335 335 335 334 334 331 332 332 330 332 333 333 334 333 331 329 326 327 325 325 326 330 331 330 329 325 323 323 322 322 321 320 320 319 319 317
341 340 339 337 336 337 336 335 333 334 334 332 332 333 333 328 326 328 331 333 333 331 328 327 327 327 328 327 327 330 330 328 326 324 323 322 320 320 320 320 320 319 317
337 336 335 335 335 336 335 333 334 332 333 333 333 333 333 329 326 327 330 333 332 330 328 327 327 329 329 329 327 329 329 327 325 325 323 322 322 321 322 321 321 318 318
334 334 335 336 337 336 335 333 333 334 334 333 334 333 332 329 329 330 332 332 331 329 327 327 326 328 330 330 330 329 329 328 328 325 324 323 322 322 323 322 319 318 317
334 333 336 337 336 335 336 335 334 334 335 335 334 334 332 330 329 330 332 331 330 328 327 326 325 328 328 329 330 329 327 327 326 323 323 322 321 322 322 321 319 318 317
332 333 336 336 336 335 335 334 334 334 334 334 333 332 332 330 328 329 331 330 330 327 326 325 325 325 327 330 329 328 326 325 323 322 322 322 321 320 321 320 319 318 318
332 336 336 334 334 335 335 335 334 333 334 334 331 332 331 330 327 328 329 330 329 327 326 325 325 326 328 329 328 327 326 325 323 322 321 320 320 320 319 319 319 319 320
336 336 336 335 334 335 335 334 334 333 335 334 331 330 330 329 327 326 326 329 329 327 325 325 325 326 326 326 326 325 325 323 322 321 320 320 320 320 320 320 320 320 321
337 336 336 336 335 334 335 334 334 334 334 333 332 331 329 330 328 325 325 326 325 325 325 324 324 325 326 325 324 324 324 322 321 321 320 319 320 321 320 321 321 323 323
337 336 335 334 335 334 333 333 334 333 333 333 332 331 330 330 329 328 326 325 323 323 322 321 322 323 322 323 324 324 324 322 321 320 321 320 320 320 320 320 322 323 325
335 336 335 335 334 332 332 328 331 330 331 332 330 330 329 329 328 328 328 325 322 321 321 320 319 320 320 322 323 324 322 323 323 322 321 321 320 320 319 319 320 321 325
335 335 334 333 335 333 334 332 328 326 328 329 329 329 329 328 328 325 325 323 322 323 322 320 319 320 320 322 323 323 324 323 322 322 322 323 322 322 320 321 321 322 325
335 335 334 335 334 334 333 332 330 329 329 325 327 327 326 326 325 324 323 322 324 325 323 321 321 321 321 322 322 323 323 323 323 323 323 323 323 324 324 324 324 325 325
333 333 335 335 333 333 333 332 331 331 331 325 322 324 324 324 323 323 323 323 325 326 326 323 322 321 322 321 322 323 323 323 324 325 325 325 325 325 325 325 325 325 326
333 330 330 330 331 333 333 333 334 333 331 328 327 322 323 322 320 322 324 324 325 326 327 326 323 322 322 322 323 322 324 324 325 326 327 326 326 326 325 325 325 325 326
330 329 330 330 329 333 333 334 335 334 332 330 328 323 323 323 323 325 326 325 326 325 326 327 327 325 324 325 326 326 327 327 327 327 327 327 327 326 325 325 326 327 327
329 329 330 331 329 333 333 333 334 334 333 332 327 324 326 326 326 327 328 328 328 328 328 327 328 327 327 327 327 327 327 327 328 327 327 328 328 327 326 328 328 328 326
328 328 331 330 330 329 331 333 333 333 333 330 327 325 326 327 329 328 328 329 329 330 329 329 328 329 328 328 328 327 327 328 327 327 327 328 329 329 329 329 328 329 327
329 327 328 329 329 328 329 328 332 332 330 328 328 327 328 329 330 330 329 330 329 328 328 329 328 328 328 327 327 327 328 328 328 329 329 329 329 329 329 330 330 328 326
332 328 329 330 331 329 330 329 330 331 329 329 331 330 328 326 326 324 323 321 318 317 314 316 319 319 322 322 323 324 327 328 329 329 328 328 329 329 328 328 328 328 329
328 331 328 326 325 323 319 322 324 324 321 319 321 320 318 318 315 315 312 310 310 310 311 310 308 310 312 313 316 320 324 327 326 326 326 326 328 327 327 327 328 328 328

GFSGL_925_thetae_057.txt.gz
Theta_e
341 341 345 348 348 354 351 349 346 344 343 343 343 345 343 340 338 337 334 334 334 333 333 332 332 332 332 331 331 330 330 329 326 330 329 327 327 329 330 329 326 329 332
341 348 349 348 353 352 350 350 347 346 345 344 345 341 340 338 337 334 334 334 333 332 332 331 332 332 330 330 330 330 330 329 328 328 329 330 329 329 330 330 327 330 331
349 350 351 352 352 349 348 349 349 348 346 344 341 339 336 336 335 334 332 333 333 332 331 332 331 328 329 329 329 329 330 329 329 327 326 328 328 330 330 328 328 328 329
350 349 349 348 345 343 341 342 343 342 340 339 337 333 335 336 333 330 331 333 333 332 332 332 330 328 327 328 328 327 329 329 328 326 325 325 326 327 328 327 327 328 330
346 345 345 344 343 341 340 340 337 337 336 336 334 334 334 334 331 331 333 333 333 332 332 331 326 326 326 328 328 329 329 328 325 324 324 323 323 324 324 323 321 324 324
345 344 343 343 342 340 339 337 335 336 334 334 333 332 332 332 333 333 333 333 332 332 330 326 326 326 325 326 329 328 329 328 324 324 323 323 323 323 323 322 320 321 318
343 343 342 341 340 338 335 334 335 334 335 333 332 332 331 331 332 333 333 333 333 331 329 327 327 326 325 325 328 328 329 328 328 324 323 323 322 323 322 321 321 320 318
342 340 339 338 336 336 335 334 333 334 332 333 333 332 330 328 326 327 333 333 332 331 329 327 327 328 328 328 328 330 328 326 325 325 323 323 323 323 323 322 321 320 320
337 336 335 336 335 335 333 333 334 333 333 334 333 332 330 327 326 329 331 333 331 330 327 327 326 328 329 327 329 328 326 325 324 324 324 324 324 322 322 322 321 318 318
334 334 335 334 334 334 332 334 333 332 333 334 333 332 330 328 329 330 332 331 330 327 327 326 326 328 328 329 328 327 325 325 324 323 323 323 322 322 322 323 321 319 318
333 335 337 335 334 332 334 334 333 333 333 334 332 331 330 329 329 331 331 331 329 327 326 325 325 326 327 329 328 326 327 325 323 322 321 321 322 321 321 321 320 321 319
336 336 336 335 335 335 334 333 333 334 334 332 332 331 329 328 328 329 331 330 329 326 325 325 325 327 329 329 328 327 326 324 322 321 320 320 320 321 321 321 321 321 321
335 335 335 335 335 334 333 333 334 333 332 330 331 331 328 327 327 327 329 329 327 326 325 325 327 328 329 328 326 326 323 322 321 321 320 320 320 321 320 319 319 320 320
334 334 335 335 335 334 334 334 333 333 331 329 329 330 328 326 325 325 326 328 327 326 325 325 326 326 327 326 324 324 323 323 321 320 320 320 320 320 320 319 319 319 320
335 335 334 334 335 334 333 333 333 332 332 331 330 329 329 327 326 325 325 324 324 324 324 324 325 324 323 323 324 323 323 322 321 321 320 320 320 319 320 320 320 320 322
335 334 334 333 332 330 330 329 330 331 332 331 331 329 328 328 327 327 325 323 324 323 322 321 322 322 322 323 324 323 321 321 321 320 320 320 320 320 320 320 322 323 324
334 333 334 333 332 330 328 327 321 325 330 330 330 330 328 328 328 327 325 323 322 322 321 320 320 321 322 323 324 323 323 321 320 320 320 320 320 320 320 320 320 320 321
334 334 333 333 333 332 330 327 326 326 324 324 327 328 328 327 326 325 323 322 322 322 322 321 320 321 322 324 324 323 323 323 322 321 320 321 320 320 320 320 320 320 321
333 333 332 334 333 333 332 328 328 327 323 318 322 325 325 324 324 323 322 323 324 323 321 321 321 321 322 323 323 323 323 322 322 322 321 322 322 323 321 322 321 321 321
333 334 333 333 333 333 332 330 329 326 322 321 320 319 321 321 321 321 323 324 325 326 322 321 321 322 322 323 323 323 322 323 323 323 323 323 323 323 323 323 324 324 324
333 332 333 333 332 332 332 331 330 327 325 324 322 321 321 321 322 323 324 324 325 326 326 323 322 322 322 322 323 323 324 323 323 323 325 325 324 325 325 325 324 325 325
329 330 331 331 332 332 333 333 332 330 328 324 322 323 323 323 323 324 325 325 326 325 327 326 324 324 323 323 324 323 324 325 325 326 326 327 326 325 325 325 324 324 324
329 330 329 330 332 333 333 334 333 331 328 324 323 323 324 324 325 325 327 328 328 327 327 327 327 327 326 326 326 326 326 326 326 327 327 327 327 327 327 327 326 326 327
328 330 330 328 331 331 332 333 333 330 327 325 323 322 323 326 328 328 326 325 324 324 324 323 323 323 323 325 326 326 327 327 327 328 328 327 327 328 329 329 328 329 329
329 329 329 328 329 329 332 331 330 328 327 327 326 325 322 319 318 316 317 316 314 313 312 316 317 317 317 319 322 324 325 327 327 325 327 328 327 327 326 325 325 323 321
322 323 322 323 323 321 325 322 323 325 322 320 317 314 313 309 308 307 307 309 309 309 309 308 308 311 313 315 315 317 320 323 324 324 325 325 325 323 320 319 316 314 312

GFSGL_925_thetae_060.txt.gz
Theta_e
329 332 336 339 341 342 343 345 347 348 347 345 342 342 344 342 341 340 339 337 335 333 333 332 332 331 331 332 330 330 330 328 323 328 328 329 329 327 326 330 328 330 329
332 334 339 343 343 343 346 346 348 347 345 343 343 342 344 342 341 339 335 334 334 333 333 332 331 331 332 331 330 331 329 329 327 327 327 328 329 329 329 330 330 330 331
337 342 343 344 346 348 349 348 347 344 343 343 343 344 342 340 338 336 333 334 334 333 332 332 331 332 329 330 330 330 329 329 328 327 327 328 329 330 329 328 326 330 330
341 343 347 348 349 350 348 347 345 344 344 344 344 341 340 338 336 333 333 332 334 332 331 331 331 330 327 328 328 329 329 328 327 326 326 327 327 327 327 327 326 326 328
346 347 347 347 348 346 348 347 345 345 345 344 341 338 336 335 334 333 331 331 332 332 332 332 331 328 327 327 328 328 327 327 325 324 324 325 324 325 325 325 323 324 325
344 343 343 341 341 342 343 343 344 344 343 340 336 334 335 336 334 331 331 333 333 332 331 331 328 326 326 326 327 327 327 327 325 324 324 325 324 325 324 323 322 323 321
342 342 341 340 339 339 337 337 335 335 336 334 333 333 334 333 331 332 333 332 332 331 331 328 326 327 325 326 327 328 328 327 328 326 323 324 324 324 324 322 323 323 319
341 341 340 338 337 336 335 335 334 334 333 332 331 331 331 332 332 332 332 332 332 331 329 327 327 326 326 326 327 328 328 326 326 326 324 324 323 323 325 323 322 320 321
340 339 338 336 334 334 334 334 334 334 332 331 330 328 329 327 326 328 332 332 332 330 328 327 327 327 328 327 326 326 326 324 324 324 324 324 324 324 323 322 320 319 319
338 337 336 335 334 333 333 333 333 333 333 332 329 330 329 328 327 329 331 332 330 328 327 327 326 327 328 327 328 326 324 324 323 323 323 323 323 324 322 321 322 320 318
336 335 334 334 334 333 333 333 332 332 333 331 330 329 328 327 329 330 331 331 329 327 325 326 326 327 328 327 328 326 324 323 323 323 322 322 322 322 321 322 322 323 320
334 334 333 333 333 333 332 332 332 333 332 330 329 327 328 328 329 331 331 331 328 327 325 325 325 326 327 328 327 325 325 323 322 321 320 320 320 321 321 322 322 321 321
335 334 333 333 333 333 333 332 332 332 330 329 328 326 326 327 328 329 330 330 328 326 325 325 326 327 327 327 326 325 323 322 321 320 320 320 320 322 322 321 320 320 320
334 333 334 333 333 333 332 332 332 330 329 329 329 327 326 326 326 327 329 328 326 326 325 326 327 327 326 326 323 323 322 321 321 320 320 320 321 320 320 320 320 319 320
334 333 333 332 332 332 331 331 332 331 330 330 329 328 326 324 325 325 327 327 327 325 325 324 324 324 321 321 322 322 322 321 321 321 320 320 320 320 319 319 319 319 320
333 332 331 330 329 329 327 326 331 332 330 329 329 328 327 326 326 324 324 324 325 324 323 323 322 322 322 323 323 322 322 322 321 321 320 320 320 319 319 319 319 319 320
333 331 330 329 327 326 325 324 318 322 330 330 329 328 327 327 325 325 324 323 323 322 322 322 322 322 323 324 323 322 322 321 321 321 320 320 319 319 320 319 320 322 322
332 331 330 330 329 327 326 325 324 323 322 324 329 328 328 328 327 325 323 322 321 322 322 321 322 322 323 324 323 322 321 321 320 320 320 320 320 320 319 320 320 321 320
331 331 332 331 329 328 327 325 325 322 318 316 320 326 327 327 326 324 322 322 322 321 321 321 322 322 323 324 323 323 322 322 321 320 320 320 320 320 320 320 320 320 320
331 332 331 331 330 328 326 326 323 320 320 321 320 321 323 323 321 321 322 323 323 322 321 322 322 322 323 324 323 323 323 322 322 321 321 321 321 321 320 320 320 321 321
332 332 332 331 331 329 327 327 324 322 321 321 319 320 321 320 320 322 323 324 325 324 322 322 322 322 322 323 323 323 323 322 322 322 323 323 322 322 322 322 321 322 322
332 331 333 331 330 330 329 327 325 323 323 320 319 319 321 321 322 322 323 324 325 325 324 322 322 322 322 322 323 323 323 323 323 323 323 324 325 324 324 323 324 324 324
332 331 331 331 331 331 330 328 326 325 322 321 319 318 319 321 323 324 325 325 326 325 326 324 323 323 322 322 323 323 322 323 324 324 324 324 326 326 326 325 325 325 324
329 329 330 331 331 332 330 329 327 325 323 321 320 320 322 325 323 323 324 324 323 321 322 324 324 324 324 323 323 325 325 325 326 326 326 327 327 327 327 327 326 326 326
328 328 329 330 330 331 329 327 325 324 323 322 322 322 320 318 315 316 317 317 317 316 316 316 318 318 319 321 321 322 323 324 324 326 326 327 326 326 324 323 319 317 315
324 324 325 328 328 328 327 326 325 324 323 321 317 314 311 308 305 306 307 309 311 310 311 310 310 311 313 315 316 320 322 323 323 323 323 323 322 319 315 313 312 308 305

GFSGL_925_thetae_063.txt.gz
Theta_e
329 330 330 330 330 331 333 335 336 341 345 346 346 345 343 342 343 342 342 340 339 338 336 334 333 332 331 330 329 329 330 327 321 326 327 327 330 327 328 329 328 330 330
323 326 326 328 332 334 336 338 340 343 346 346 346 343 342 343 342 341 340 339 337 335 333 332 332 331 331 331 331 330 329 328 326 325 325 325 329 327 327 329 331 331 329
326 325 330 333 336 339 339 342 343 345 345 345 344 342 342 343 341 340 338 336 334 333 332 332 331 331 331 331 330 329 330 329 327 326 325 325 326 328 328 326 327 329 330
334 336 338 340 341 342 343 343 343 344 345 344 343 342 342 342 340 338 335 333 333 333 332 331 331 330 331 329 329 329 329 328 327 325 326 324 325 326 328 326 324 328 328
339 340 341 344 344 344 344 344 344 345 344 342 342 342 343 341 339 336 332 333 331 333 332 331 330 330 329 327 327 328 329 327 326 326 324 324 325 326 326 325 323 325 325
342 342 342 343 345 345 346 344 344 342 342 342 342 342 340 339 336 333 332 331 331 332 331 331 331 329 327 326 326 328 328 327 324 324 323 324 324 325 325 323 322 322 322
342 342 342 343 342 340 342 342 342 341 341 342 340 339 337 335 335 333 330 331 331 331 331 331 329 326 325 326 325 328 327 326 327 325 325 325 325 326 324 322 323 321 321
339 340 339 339 337 337 338 337 339 339 341 339 336 334 334 335 333 331 331 332 332 331 330 329 327 326 326 325 325 328 328 327 326 325 325 325 325 326 326 323 321 321 322
331 339 338 337 336 334 334 336 339 338 336 333 332 331 332 331 332 332 332 332 331 330 329 328 326 326 326 326 325 327 327 326 325 325 325 325 325 325 325 323 322 321 319
324 337 337 335 334 333 332 332 332 333 331 330 329 329 329 330 330 331 331 331 330 329 328 327 327 326 328 327 326 325 325 325 324 323 323 323 323 323 324 324 323 321 319
331 337 335 334 333 333 333 333 332 331 329 327 326 326 327 327 327 329 330 330 329 327 325 326 326 327 328 327 326 326 325 323 323 323 322 321 322 322 322 322 321 321 319
336 334 332 331 332 332 333 332 332 330 328 327 326 325 326 327 328 329 331 331 330 327 325 325 325 326 328 327 326 325 324 323 322 321 320 320 320 320 321 321 321 321 321
331 332 331 332 331 331 331 330 330 330 327 326 325 323 323 327 328 330 331 330 328 326 325 325 325 325 326 325 325 324 323 322 321 320 319 320 320 321 321 321 320 320 321
331 331 331 331 330 330 330 331 330 329 328 327 325 324 322 323 326 328 330 328 327 326 325 325 326 326 325 325 323 323 322 322 321 320 320 320 321 321 320 320 320 319 320
331 331 330 330 330 330 329 329 330 330 330 327 327 325 323 323 326 328 328 326 326 325 325 323 322 323 321 320 321 322 322 321 321 320 320 320 320 320 320 319 320 319 320
332 331 330 327 326 325 325 325 328 330 330 330 329 327 326 326 326 326 327 326 326 325 324 322 321 321 321 321 321 322 321 321 321 321 321 321 320 320 319 318 319 319 319
332 329 328 326 325 324 324 324 321 324 328 329 329 327 326 326 325 324 324 324 324 323 323 322 322 322 322 322 322 322 321 321 321 321 321 320 320 320 319 319 319 319 319
331 330 329 327 327 326 325 324 322 323 324 324 327 327 327 325 324 323 323 321 320 322 323 323 322 322 323 324 323 322 322 321 321 320 320 320 320 320 319 320 319 320 320
329 329 329 327 326 326 325 324 323 322 322 320 322 326 327 325 324 323 322 322 321 321 322 323 323 323 323 323 323 322 322 321 321 320 320 320 320 320 320 320 320 320 321
330 330 329 328 327 326 325 323 320 319 318 319 320 323 324 324 321 320 321 322 321 321 322 322 323 323 323 324 323 323 322 321 320 320 320 320 320 320 320 320 320 320 320
330 330 329 328 327 326 324 321 321 321 321 321 318 320 322 322 320 320 322 323 323 321 321 322 322 322 323 323 323 323 323 322 322 322 321 320 320 321 321 320 320 320 320
330 330 329 329 327 326 325 322 322 321 320 319 317 319 320 320 320 322 323 324 324 324 322 321 322 322 322 323 323 323 323 323 322 322 322 322 323 322 322 322 322 322 321
330 330 329 329 328 326 325 323 322 321 319 318 318 318 319 320 322 323 323 324 325 324 322 321 322 322 322 322 322 323 323 323 323 323 323 323 323 323 325 324 324 324 323
330 330 329 329 327 327 325 324 323 321 319 318 316 317 321 322 323 321 321 322 322 323 323 322 321 321 321 322 322 323 323 323 323 324 325 325 325 325 326 326 325 324 324
330 329 329 329 328 327 325 323 321 321 320 319 319 319 320 319 316 314 312 314 315 315 314 314 316 317 318 319 321 322 324 325 324 324 323 323 324 324 324 323 322 318 315
327 328 328 330 328 327 325 323 321 321 319 317 316 313 311 308 307 306 306 307 307 306 306 306 306 309 312 313 315 319 322 322 323 323 322 321 320 317 315 312 311 307 306

GFSGL_925_thetae_066.txt.gz
Theta_e
318 320 325 330 331 333 333 334 334 330 330 336 340 345 345 345 343 343 343 341 340 339 337 336 335 333 332 330 329 328 328 326 327 326 325 326 326 327 328 328 328 329 330
321 319 325 329 330 332 333 332 330 332 335 338 341 345 345 344 342 343 341 341 339 337 337 335 333 332 331 330 329 329 329 328 326 327 324 325 326 327 327 328 328 329 329
331 318 324 328 330 330 331 331 332 335 338 341 344 345 344 342 342 342 341 341 339 338 336 333 331 331 330 330 330 330 329 328 326 325 324 325 327 327 327 326 325 328 329
333 324 323 327 329 330 331 334 336 338 340 343 344 344 343 341 341 341 340 339 337 335 332 331 331 330 330 330 330 329 328 328 326 325 325 325 326 326 326 325 325 325 326
335 333 331 330 330 333 336 337 339 340 342 344 343 342 341 341 341 340 339 336 333 332 332 331 331 330 330 330 328 328 329 328 326 325 325 324 325 326 325 324 323 324 326
337 337 337 338 338 338 338 340 342 342 341 342 341 341 340 341 340 340 337 332 332 332 332 331 330 330 329 328 327 327 327 327 325 325 325 324 324 325 325 324 322 324 324
331 339 339 340 341 340 340 341 340 340 341 341 341 340 341 341 340 337 332 331 331 331 332 331 330 330 328 326 326 326 327 327 327 326 324 324 324 324 324 322 323 322 321
329 338 339 341 339 339 339 339 338 339 340 339 339 341 340 339 337 334 332 331 330 331 331 331 330 328 326 325 325 326 327 326 325 326 325 325 325 325 326 324 323 321 322
329 332 339 339 338 336 337 336 336 337 337 338 339 338 337 334 334 333 331 330 331 330 330 329 328 326 326 325 325 326 326 326 326 325 325 325 325 326 326 323 321 321 320
324 326 337 337 336 336 334 333 335 335 335 337 333 333 333 333 333 331 331 331 330 328 328 327 326 326 326 326 325 326 325 325 325 325 324 324 324 324 325 324 323 322 320
327 327 337 335 333 332 332 332 333 333 331 328 327 327 328 330 331 331 331 331 329 327 326 326 326 326 327 327 326 325 325 324 324 324 323 322 322 323 324 323 323 323 322
328 334 335 333 331 331 332 330 330 328 324 323 322 322 324 326 328 329 329 329 329 327 325 326 325 326 327 325 324 324 325 324 322 321 321 321 321 321 321 322 322 322 322
325 333 331 332 331 330 330 329 326 325 324 323 323 322 321 324 327 329 329 330 329 327 325 326 325 325 327 325 325 324 323 322 321 320 319 320 320 321 321 321 321 321 320
322 330 330 330 329 330 330 329 327 327 326 325 324 323 322 323 326 328 329 328 328 326 325 324 324 325 325 324 322 322 322 321 321 320 320 320 320 320 320 320 320 320 320
323 325 329 328 328 326 326 327 328 328 329 326 325 324 322 322 325 328 328 327 327 325 324 323 321 322 321 320 321 322 322 321 321 321 321 320 320 320 320 320 320 320 321
327 328 328 327 323 321 322 322 326 328 328 328 328 328 325 326 327 328 327 327 326 324 322 320 320 320 320 321 321 321 321 320 321 321 321 321 320 320 320 319 319 319 320
327 328 326 325 324 324 325 323 318 323 327 328 327 326 325 326 326 327 327 325 325 324 323 322 321 321 321 321 321 321 321 321 321 321 320 320 320 320 320 319 319 319 319
329 327 326 326 326 325 325 325 323 324 323 322 326 325 325 325 324 323 323 322 320 322 323 322 322 322 322 322 322 322 321 321 321 321 321 321 320 320 319 319 319 319 319
327 327 326 326 326 325 324 324 325 326 322 321 322 325 324 323 322 322 320 321 321 322 322 323 323 323 323 323 323 322 322 321 321 321 320 320 320 320 319 319 320 319 320
328 327 326 324 323 323 323 322 322 321 320 320 321 321 321 323 319 319 321 321 321 322 322 323 323 323 323 323 323 322 322 321 320 320 320 320 320 319 319 320 320 320 319
326 327 327 326 325 323 323 322 321 321 321 322 318 321 321 322 319 321 322 321 321 322 322 322 323 323 323 323 323 323 322 321 320 320 320 320 320 319 320 320 320 320 320
326 327 327 326 325 323 321 321 321 321 319 317 317 319 322 322 321 322 323 323 323 321 321 322 322 323 323 323 323 323 322 322 322 322 322 321 321 321 321 321 321 321 320
328 328 327 326 324 321 321 321 321 320 319 318 319 320 321 321 321 323 322 322 321 321 321 321 321 321 322 323 323 323 322 323 322 322 322 322 322 323 323 323 322 322 322
328 328 327 325 324 323 322 321 320 319 319 318 319 319 320 321 321 320 318 317 317 318 319 319 320 320 321 321 322 322 323 323 322 322 323 324 324 323 324 324 325 324 323
328 328 327 325 324 323 321 320 319 319 318 317 317 316 315 316 315 313 311 311 311 312 311 312 314 315 317 318 320 322 323 323 323 324 324 324 322 323 324 322 320 318 317
328 327 327 326 325 323 321 320 319 318 315 313 312 311 310 308 306 306 305 305 306 305 305 305 305 307 309 310 312 315 317 320 321 322 321 320 318 315 314 311 309 306 304

GFSGL_925_thetae_069.txt.gz
Theta_e
327 332 332 329 328 331 333 335 335 336 336 336 337 332 335 344 347 347 346 345 343 340 339 337 338 337 336 335 333 333 332 332 333 331 329 328 329 329 331 329 328 328 329
321 326 333 330 327 332 334 334 336 338 337 339 341 338 344 347 347 346 345 343 341 339 338 338 338 335 336 334 333 333 332 331 331 333 329 328 328 328 327 328 328 329 329
319 323 327 332 327 332 333 335 337 339 340 340 341 343 345 347 346 345 344 342 340 339 337 339 338 335 335 333 333 333 333 332 331 331 330 328 327 327 327 327 327 328 328
317 318 323 334 328 331 334 337 339 340 340 341 342 343 345 346 345 344 343 340 341 339 337 338 335 334 334 334 333 333 333 332 331 331 330 329 327 327 326 325 325 326 325
315 317 322 337 328 331 336 338 339 340 341 342 343 344 346 345 344 343 340 340 340 338 337 335 334 333 332 333 333 333 332 331 331 330 329 327 326 326 327 325 326 324 325
315 317 321 338 329 333 337 339 341 341 342 343 344 345 345 343 341 341 340 339 338 336 335 334 333 330 330 330 330 330 331 332 331 330 328 329 327 326 325 327 325 325 326
314 317 323 339 335 335 338 340 339 340 342 343 344 344 345 342 340 341 339 338 336 335 335 334 333 331 330 329 328 327 327 327 328 328 327 328 328 325 325 324 325 326 325
313 317 327 338 339 339 340 339 340 340 341 343 344 345 344 339 340 339 338 335 335 334 335 334 333 332 331 330 329 328 329 327 326 326 326 327 326 325 326 325 326 325 323
314 321 327 337 338 338 338 340 341 340 341 341 343 340 338 340 339 338 333 334 334 333 333 332 333 332 330 327 328 328 326 325 325 325 326 327 326 325 326 324 322 323 325
318 325 326 332 338 339 341 341 339 339 338 338 335 338 339 339 337 335 333 333 333 332 331 329 329 330 327 326 328 327 326 325 325 325 325 324 325 325 325 325 323 324 323
318 325 327 333 336 338 337 336 336 335 334 333 333 332 333 334 334 332 331 332 332 330 328 326 326 326 326 326 325 325 326 325 324 324 323 323 323 324 323 324 325 326 325
322 325 331 336 336 335 334 334 333 331 330 329 327 325 323 327 331 331 330 331 330 329 328 325 326 326 326 327 325 325 325 325 323 321 321 320 320 321 322 322 323 324 325
325 327 333 335 333 333 331 330 330 329 328 328 328 326 323 323 329 331 330 329 328 330 327 326 325 326 326 325 325 325 324 322 322 322 320 320 320 322 321 322 323 323 322
325 326 333 332 332 332 331 331 330 330 330 330 328 326 324 324 322 326 328 328 327 326 324 324 324 326 325 325 323 323 325 324 324 323 322 321 320 321 320 321 323 323 322
325 330 330 330 330 327 328 332 332 331 330 329 328 327 326 325 325 326 328 326 326 325 324 323 322 322 321 321 321 324 323 322 322 322 321 320 320 320 320 320 321 323 323
325 329 328 324 323 324 324 323 328 329 329 329 328 328 326 327 326 327 328 327 327 325 322 320 319 320 320 321 322 322 323 322 322 321 320 320 320 320 319 319 321 323 322
327 328 327 325 326 327 327 326 320 325 327 327 327 327 327 327 327 327 327 327 325 323 322 320 320 321 321 322 322 324 324 323 321 321 321 320 320 320 319 320 321 321 322
328 327 326 327 329 329 329 328 326 325 324 318 324 325 326 327 327 327 325 323 321 323 323 321 321 322 322 322 322 324 323 322 321 321 321 322 322 320 320 320 322 322 323
327 328 330 329 330 330 328 328 328 327 325 316 315 322 324 324 324 322 321 322 322 322 323 322 322 322 323 324 324 322 321 321 321 322 322 321 321 321 321 320 320 320 321
327 329 331 330 327 328 327 328 327 326 323 324 323 316 318 318 318 320 322 323 323 322 323 323 323 323 323 323 322 322 322 322 321 321 321 320 320 320 321 320 321 320 320
328 327 326 328 327 326 327 326 326 326 326 325 317 319 320 321 321 323 323 321 322 321 322 323 323 324 323 325 324 323 322 322 321 321 321 320 320 320 321 321 321 321 321
329 329 331 330 327 326 325 325 325 325 323 319 317 320 321 322 324 323 323 323 323 322 322 323 323 323 325 324 323 322 322 322 321 321 321 321 322 322 321 321 320 320 321
332 332 330 326 326 324 325 325 324 322 319 318 318 320 322 323 322 320 319 320 320 320 321 321 322 322 323 323 323 323 322 322 322 321 322 323 322 322 322 322 323 322 322
332 331 327 324 325 324 324 323 321 320 320 320 320 322 321 316 315 314 314 315 316 317 318 319 320 320 321 322 323 323 323 322 322 322 322 322 322 323 324 324 323 324 323
332 331 328 324 323 322 321 321 320 320 320 319 316 312 311 311 310 310 309 310 312 312 312 313 314 316 318 319 320 321 322 322 322 322 322 322 321 321 320 318 315 313 314
332 330 326 324 322 321 321 321 320 316 314 312 309 307 307 304 304 304 303 305 306 305 305 306 307 310 312 314 315 317 320 321 322 321 319 317 316 312 309 307 306 303 302

GFSGL_925_thetae_072.txt.gz
Theta_e
321 323 325 328 331 334 336 335 336 339 340 340 344 348 348 347 347 348 348 350 350 350 348 345 344 343 342 339 337 337 335 334 333 335 334 332 333 332 331 331 332 332 332
318 321 323 326 327 330 336 336 335 337 339 340 343 346 345 344 347 349 350 349 349 349 344 343 342 342 342 339 337 336 334 333 333 334 334 331 332 333 332 330 330 331 332
316 318 321 324 324 328 335 337 335 336 338 340 342 344 343 344 348 348 348 348 348 347 344 342 342 342 341 338 337 335 334 334 334 333 334 331 332 333 331 329 328 329 330
315 317 319 322 324 326 335 338 335 336 337 340 342 343 343 344 346 347 348 348 347 345 343 342 342 341 339 337 336 335 334 334 334 333 333 331 331 331 330 329 327 328 328
314 316 318 321 323 325 333 338 334 337 339 342 344 343 342 344 346 347 347 347 346 343 342 341 340 338 336 336 335 334 334 334 333 332 332 332 332 329 331 329 326 326 326
312 313 317 321 323 324 333 336 335 340 343 344 343 342 344 344 345 346 347 347 343 342 341 339 338 335 334 334 333 333 335 334 333 332 333 332 331 329 331 329 329 328 329
310 313 317 319 322 325 332 333 337 344 346 345 344 343 346 345 345 346 345 344 343 342 339 338 336 334 333 332 330 330 331 331 332 333 332 332 331 330 328 331 329 328 328
310 313 318 320 322 325 334 334 341 346 347 346 346 346 347 345 344 343 341 342 341 339 338 337 336 334 334 334 333 332 331 330 329 329 331 330 330 331 328 328 327 328 327
310 315 318 320 322 326 335 338 344 345 346 346 346 346 347 342 341 340 339 340 337 336 335 336 335 335 335 333 333 332 332 331 328 327 327 326 328 326 327 327 326 326 327
312 315 315 317 322 327 338 342 343 343 345 346 346 346 347 338 339 339 338 334 335 334 335 335 334 334 333 330 331 331 330 329 325 325 325 326 326 325 326 327 325 325 325
311 314 317 319 325 333 339 340 340 342 343 344 344 343 339 336 338 337 334 333 333 333 334 334 332 332 330 327 327 330 330 326 325 324 324 324 324 325 326 326 324 323 324
313 315 317 323 331 338 341 341 340 340 338 338 335 336 334 332 336 333 333 333 333 334 333 333 332 327 327 326 326 328 326 325 325 323 323 323 323 323 324 325 328 327 326
316 321 326 331 336 337 338 337 338 337 336 335 336 330 330 331 329 331 332 333 332 334 333 331 328 326 326 327 325 325 325 325 324 322 321 321 322 323 323 324 324 324 324
318 321 329 334 336 334 334 335 335 336 337 337 333 331 331 331 328 328 328 329 330 330 328 325 325 325 325 324 324 324 324 326 326 326 324 322 323 323 323 324 325 325 324
319 326 327 333 333 331 331 332 334 335 334 333 333 333 333 333 331 330 329 330 330 328 324 322 322 323 322 322 322 325 327 326 326 325 326 324 323 324 324 325 325 325 325
319 326 329 324 324 325 325 322 332 332 332 332 332 332 332 332 328 327 328 329 328 325 326 326 323 321 321 322 326 327 326 325 325 325 324 324 323 322 323 322 323 325 324
323 326 326 327 328 329 329 327 324 325 330 330 331 330 329 328 326 327 327 327 325 325 328 326 323 322 322 326 325 325 326 325 325 325 323 323 322 321 322 324 324 325 325
321 327 328 329 330 330 330 329 330 330 327 322 325 325 326 326 327 327 327 325 323 326 327 324 323 323 324 326 325 326 326 325 324 323 324 323 323 322 322 323 324 323 322
324 328 329 330 331 332 332 332 332 331 329 321 316 320 323 325 326 325 324 325 326 326 325 324 323 323 324 325 326 326 326 325 324 323 323 324 323 322 322 322 324 324 323
326 328 328 332 332 332 332 332 331 329 327 327 325 315 317 320 320 321 324 324 325 324 323 324 323 324 326 326 325 324 325 322 323 323 323 323 322 322 323 322 322 322 322
327 329 330 331 331 332 331 331 330 330 329 328 324 321 323 325 324 324 324 325 325 322 323 323 325 327 326 326 324 324 324 324 324 323 323 323 322 322 322 322 322 323 323
330 330 331 331 331 331 331 331 330 330 328 325 320 321 324 325 326 326 324 324 324 324 323 324 325 325 326 325 324 324 324 324 323 323 323 323 322 323 323 323 323 324 324
331 331 331 331 331 329 330 331 330 329 327 322 321 322 325 326 323 319 317 320 321 322 322 323 323 324 326 325 325 325 324 324 323 323 323 323 323 324 324 323 323 323 324
332 332 332 331 330 330 328 327 327 327 325 321 321 323 322 319 312 312 314 316 318 318 319 321 322 322 322 322 322 324 323 322 322 323 323 324 324 323 323 322 323 324 323
332 332 331 329 327 326 325 325 323 322 322 321 318 315 313 310 307 309 309 310 311 313 313 315 316 318 319 320 319 322 322 322 323 322 323 323 322 322 322 320 317 315 314
333 330 326 326 325 325 323 322 320 318 315 313 313 311 307 304 302 304 306 305 302 305 308 309 311 314 316 318 320 321 321 321 322 322 320 319 316 314 312 309 307 305 305

GFSGL_925_thetae_075.txt.gz
Theta_e
319 319 321 323 325 328 331 332 336 339 339 339 339 345 350 355 356 355 353 350 349 349 350 352 351 350 345 342 342 340 335 334 338 336 336 338 336 334 334 333 333 334 333
317 317 318 320 322 326 329 330 333 337 339 341 341 341 346 351 353 353 351 346 349 351 352 350 350 347 344 343 342 339 334 335 335 340 337 336 334 334 333 333 331 332 333
313 315 316 319 320 323 327 329 331 335 338 338 339 341 345 348 352 352 349 347 350 350 351 349 348 346 346 344 341 338 335 336 336 335 337 336 333 335 333 332 333 331 332
312 312 313 317 319 321 324 327 330 332 339 338 339 340 344 348 349 350 348 349 350 349 350 348 346 344 345 343 340 338 338 336 334 334 335 335 333 333 332 332 329 330 331
312 312 312 315 317 319 323 325 329 331 340 338 338 340 343 346 347 348 349 349 350 350 349 346 345 344 343 340 338 337 336 335 336 335 334 335 333 333 333 332 330 330 329
312 311 312 314 315 317 322 326 328 332 340 338 339 340 344 347 345 347 349 350 350 349 348 345 343 342 339 337 336 335 336 338 336 336 334 334 334 333 332 332 330 328 330
312 311 312 313 314 317 321 324 328 332 340 340 341 343 346 348 345 346 348 351 349 348 346 344 342 340 337 336 335 334 334 334 334 336 336 334 332 333 332 331 331 328 330
311 311 312 311 313 317 321 324 329 332 339 341 345 349 350 349 344 345 347 349 348 346 345 343 340 338 336 335 334 333 333 333 332 331 332 334 334 333 331 331 332 329 331
310 311 310 309 311 317 323 326 329 334 339 342 346 348 348 347 345 346 346 347 346 344 343 341 339 338 336 334 335 335 333 332 332 331 331 330 329 329 330 330 331 331 329
310 311 310 311 315 320 322 324 327 333 338 344 347 346 347 344 346 346 345 344 343 342 340 338 337 337 336 334 335 334 332 333 331 329 327 326 327 327 327 328 329 330 329
310 311 311 311 315 320 322 323 326 330 340 345 345 346 348 342 343 344 343 341 340 339 337 337 336 335 334 334 332 334 333 331 329 329 328 327 327 326 326 327 327 327 325
311 313 314 316 318 320 322 322 324 329 341 344 344 346 346 340 341 340 339 338 337 335 333 335 334 333 332 330 328 331 330 328 326 325 325 325 326 326 326 327 326 325 324
313 315 316 316 317 319 321 321 322 338 341 342 343 340 338 338 332 335 334 333 333 333 334 335 333 330 328 327 327 328 326 327 326 326 325 323 324 324 325 327 328 325 326
315 317 317 316 318 321 320 321 336 339 339 340 338 336 336 336 332 333 333 333 334 334 332 331 330 326 326 327 326 325 327 327 326 327 326 325 323 324 324 325 326 327 326
316 317 318 320 318 320 321 335 338 338 339 341 341 338 337 335 335 334 334 333 333 332 329 326 326 326 326 326 326 325 326 327 328 327 327 325 324 324 325 326 326 327 326
318 321 322 327 327 329 326 320 336 337 340 339 338 338 336 335 332 332 333 332 332 330 329 329 326 326 327 326 326 328 327 326 326 325 325 324 325 323 326 326 326 326 326
323 321 322 329 329 329 328 326 323 322 332 331 332 332 332 332 332 331 331 331 329 327 329 328 325 325 327 327 328 329 327 327 326 326 325 325 325 325 324 325 325 325 327
321 321 322 330 330 330 331 332 333 332 331 325 328 331 331 330 329 329 329 329 325 326 329 327 326 325 326 327 328 327 327 326 327 326 326 325 324 324 323 324 326 326 326
322 323 328 331 332 331 332 333 333 332 328 321 320 324 326 327 327 327 327 328 328 329 328 327 326 326 326 327 328 327 326 326 326 325 325 325 324 323 324 324 325 325 325
324 325 330 332 333 333 333 334 333 330 329 328 323 316 322 324 322 324 326 327 327 328 328 326 325 325 325 328 327 327 326 325 325 325 325 325 325 324 323 324 324 324 325
326 327 331 331 332 333 333 333 331 332 331 327 323 321 325 325 325 326 327 326 327 327 327 326 325 326 326 328 326 326 326 325 325 325 325 325 324 323 323 324 323 324 324
327 329 331 332 333 333 333 332 332 331 329 327 327 325 326 327 326 325 326 327 327 326 326 326 327 326 327 327 327 326 325 325 325 324 324 324 324 323 323 323 323 322 322
329 329 331 332 332 332 332 332 330 329 327 327 326 326 327 327 326 322 321 322 324 324 324 326 326 327 327 326 326 326 326 325 325 325 324 324 324 325 325 325 324 323 324
330 331 332 332 332 332 332 331 329 327 327 327 327 325 322 320 318 315 315 317 320 321 323 323 324 325 326 326 326 325 325 326 325 325 325 325 325 325 325 324 323 323 323
331 331 331 332 331 330 330 329 328 326 326 323 323 319 315 309 307 308 309 310 312 314 315 317 319 321 320 319 318 320 322 322 324 323 323 323 322 321 321 318 316 314 313
332 332 331 329 328 328 327 326 324 322 319 317 317 316 309 303 303 304 304 306 306 306 308 309 310 314 318 320 320 321 322 322 322 322 321 320 318 314 312 309 307 306 306

GFSGL_925_thetae_078.txt.gz
Theta_e
321 321 320 320 323 324 327 329 331 334 334 340 339 336 331 336 352 352 354 353 354 354 354 351 348 350 351 349 346 343 342 339 340 338 338 337 336 335 334 333 334 334 333
318 318 319 320 319 321 323 326 328 331 332 335 337 342 340 337 340 352 353 355 354 355 352 349 351 352 350 349 344 342 341 339 336 339 338 338 336 335 333 332 331 330 333
315 314 314 315 319 318 322 323 325 329 330 332 335 340 340 341 337 347 352 357 354 352 350 352 353 353 351 347 344 343 341 338 337 337 337 336 335 334 335 334 332 331 330
315 315 315 314 314 317 318 321 323 324 329 331 332 336 340 340 343 344 350 355 354 350 352 353 352 351 349 347 344 342 340 337 335 337 337 336 335 334 334 332 332 329 330
316 315 315 315 314 314 315 317 319 322 325 328 331 333 340 338 343 345 348 353 352 350 352 352 351 349 348 346 343 340 338 337 337 337 335 335 335 334 333 332 331 330 330
317 316 316 315 314 313 314 316 318 319 324 327 330 332 338 339 341 346 351 353 351 351 352 352 349 347 346 344 341 339 338 338 337 336 336 336 334 333 333 332 331 329 329
318 317 316 315 314 313 314 315 315 318 323 327 329 332 339 339 341 344 348 351 351 352 352 350 347 344 343 341 339 335 336 337 335 334 336 334 333 332 333 331 331 329 329
317 316 315 314 313 312 314 313 312 316 322 325 328 332 339 341 342 342 347 348 350 350 350 348 345 343 340 338 336 335 334 334 334 333 333 333 334 332 332 331 330 330 329
316 315 315 313 312 312 312 311 311 313 319 325 328 332 339 341 343 344 346 349 347 349 349 346 345 341 339 337 336 334 334 333 333 332 332 332 332 330 332 331 331 330 330
314 314 312 312 313 312 311 312 313 316 321 325 329 333 339 341 344 346 347 347 347 348 346 344 342 339 337 335 337 336 335 334 331 330 329 329 327 328 329 329 330 330 328
313 312 311 311 311 311 311 311 312 316 321 325 328 332 338 342 344 344 346 347 348 346 344 341 340 339 337 334 335 335 335 332 332 329 329 328 328 326 327 328 328 329 329
311 310 311 311 312 312 312 313 315 320 323 324 326 331 338 342 344 345 344 345 345 343 341 339 336 336 335 334 333 334 332 332 329 329 328 327 327 327 327 327 327 327 327
310 310 311 312 313 315 316 317 319 321 323 323 325 333 340 340 333 344 343 343 341 340 338 337 335 334 333 331 330 330 330 329 326 326 326 326 326 326 327 327 327 326 325
310 311 311 312 314 316 317 318 320 321 322 323 326 336 340 335 332 339 337 339 338 335 335 333 332 331 328 327 328 327 328 327 326 326 325 324 324 325 325 326 326 327 327
310 311 313 314 316 317 318 318 319 322 321 326 333 338 338 337 336 334 333 333 333 331 330 327 327 327 326 326 325 326 328 327 326 326 326 325 324 324 324 325 326 326 327
312 313 314 316 318 318 318 320 318 319 320 326 337 338 338 337 334 334 335 334 333 332 329 328 327 327 326 326 326 326 327 327 328 328 327 325 325 324 324 325 326 326 327
314 314 315 319 322 323 320 320 319 315 322 337 337 337 336 334 334 334 333 332 331 330 330 327 326 326 326 325 327 328 328 327 326 326 325 325 325 324 325 326 326 326 326
317 320 322 326 326 323 323 329 333 334 328 322 332 335 333 332 332 332 331 331 328 329 330 327 325 325 327 328 329 329 328 328 327 326 326 325 325 325 325 326 325 326 326
321 323 323 327 332 332 332 332 332 327 320 315 315 323 331 331 331 330 329 328 328 331 328 327 326 326 328 328 328 328 327 328 327 326 325 325 324 323 324 324 324 325 326
322 324 324 331 332 334 333 331 329 327 326 325 322 317 323 327 327 328 330 328 329 329 327 326 326 326 328 328 327 327 327 326 325 325 326 325 324 324 324 324 325 326 325
324 327 328 332 333 333 333 332 331 330 326 323 321 325 327 327 328 329 328 328 329 328 326 325 325 326 327 327 328 327 326 325 325 325 325 325 325 325 324 324 323 323 325
321 328 331 332 332 332 332 332 331 328 325 324 324 326 327 327 328 326 326 327 327 327 327 326 326 327 327 327 327 327 326 325 325 325 325 325 324 324 323 324 324 324 323
321 330 329 330 331 332 332 331 329 328 328 327 327 325 327 325 324 324 324 326 326 326 327 327 326 327 327 327 327 326 326 325 325 325 324 324 324 324 324 324 324 324 324
322 330 330 331 332 332 332 330 328 328 328 328 326 325 323 319 317 318 319 322 322 324 325 325 325 326 326 326 326 326 326 325 324 324 324 324 325 326 325 324 322 321 322
331 330 332 332 331 331 328 328 328 328 325 323 320 318 314 312 312 312 314 316 317 319 321 322 321 321 322 323 323 323 324 325 324 324 324 323 322 320 319 317 316 315 314
331 333 332 331 331 329 328 327 325 324 321 317 312 309 307 306 306 308 309 310 312 312 314 317 319 320 320 320 322 322 322 323 322 322 322 320 318 314 312 310 308 306 305

GFSGL_925_thetae_081.txt.gz
Theta_e
321 321 321 320 319 319 324 323 324 327 329 333 333 334 335 340 340 333 338 349 348 348 348 349 349 351 352 349 347 349 347 342 335 338 339 337 335 335 334 334 334 333 333
322 320 318 320 320 321 318 319 322 323 323 325 330 329 332 332 338 340 336 347 352 351 350 349 351 351 351 350 345 349 345 342 339 334 338 336 336 335 334 334 333 331 332
318 316 315 314 313 315 314 313 315 317 320 322 324 328 329 332 335 339 339 339 349 352 352 353 352 350 349 348 349 348 344 342 340 336 337 337 336 335 333 332 332 331 330
316 315 315 314 313 313 313 312 312 312 313 319 321 324 328 330 330 334 340 339 341 352 353 353 351 350 349 348 349 346 343 341 337 336 336 336 335 334 334 334 332 331 329
316 315 315 314 314 314 313 313 312 312 311 313 319 320 323 327 330 332 338 339 341 345 351 353 351 350 350 348 350 344 342 338 337 335 335 334 334 334 335 333 331 331 329
316 316 315 315 315 314 314 313 313 312 313 314 317 317 319 324 328 330 331 337 341 346 351 351 350 350 350 349 349 346 343 338 336 335 333 331 333 334 333 332 331 330 329
316 318 317 316 316 315 314 314 313 313 314 315 314 316 319 322 326 328 330 337 339 344 350 349 349 349 346 349 346 344 340 338 336 336 335 334 333 333 333 332 331 330 328
315 316 317 317 316 316 315 313 312 313 313 312 312 312 315 322 326 328 331 334 337 342 348 347 349 345 347 345 343 339 338 337 336 335 334 333 333 332 332 331 331 330 328
317 317 316 316 316 315 313 312 312 312 312 311 310 310 312 318 324 325 327 333 335 341 344 345 345 344 344 343 340 335 333 334 334 333 333 332 332 332 331 332 331 329 328
312 313 313 314 314 313 312 312 312 312 311 311 312 314 317 320 325 328 331 334 336 341 343 344 341 344 341 339 337 335 333 332 332 331 331 331 330 329 328 331 331 329 328
312 312 312 312 312 311 311 311 312 311 311 310 311 313 318 323 325 327 330 336 337 341 343 341 343 342 339 337 336 334 333 332 331 330 329 328 327 326 327 329 329 329 328
309 310 311 311 310 311 311 311 311 311 311 311 312 314 318 322 324 326 328 336 339 341 342 340 340 339 338 335 336 335 334 333 331 329 328 328 327 326 327 328 328 328 328
308 308 308 309 309 310 310 311 312 312 313 314 316 319 321 322 323 326 331 337 339 341 341 342 339 338 335 333 334 334 333 332 330 328 327 327 327 326 326 327 327 327 327
307 308 309 310 310 310 311 313 314 314 315 317 318 319 321 322 325 330 334 333 340 340 339 338 336 334 333 332 332 331 331 330 328 326 325 325 324 326 326 327 327 327 326
308 308 309 310 311 311 311 312 314 315 315 316 317 319 320 322 328 330 330 332 333 334 331 329 329 329 326 328 328 328 328 326 326 325 325 324 324 323 324 325 326 326 326
307 308 309 311 311 311 312 313 314 316 316 317 317 318 321 323 331 331 335 337 335 331 328 327 325 324 325 325 325 326 327 327 326 326 326 325 324 323 323 324 325 326 326
308 309 310 311 312 313 312 313 313 314 316 317 318 320 321 323 332 332 336 331 329 330 327 326 326 325 325 325 325 326 327 326 326 327 326 325 324 323 323 324 325 326 326
308 309 310 312 316 316 314 315 315 318 317 313 318 319 320 322 334 333 329 329 328 327 326 325 325 325 325 325 325 326 327 327 327 327 326 325 325 324 323 324 325 325 325
310 314 319 324 319 320 318 317 319 321 322 312 319 320 330 332 331 330 329 329 327 325 324 324 325 326 325 325 327 327 328 327 327 326 326 325 324 325 324 324 324 325 326
313 315 322 325 327 327 326 324 323 320 323 325 323 317 317 325 327 327 328 328 327 326 325 325 325 326 326 328 328 328 328 327 326 325 325 325 324 323 323 323 324 325 324
311 316 328 330 330 327 327 325 326 325 324 324 323 325 327 328 328 327 328 327 327 326 326 325 325 326 328 327 328 326 326 326 325 324 325 325 324 324 324 324 324 324 324
308 317 330 332 331 330 327 325 324 325 325 324 324 328 328 327 326 327 328 327 326 326 325 325 325 326 327 327 327 326 326 325 324 325 325 324 324 324 324 323 324 323 324
308 317 330 330 329 327 326 325 325 325 326 326 326 325 324 323 323 323 325 326 326 326 325 325 326 326 327 327 327 326 326 325 325 325 325 324 324 324 323 323 324 323 324
310 326 330 331 328 327 327 325 325 326 326 324 321 319 317 316 317 319 322 325 326 326 326 327 327 327 327 327 326 326 325 325 325 325 324 324 324 325 324 323 322 322 321
315 329 330 329 327 327 326 327 325 322 320 317 314 312 311 312 314 316 320 321 321 322 323 323 324 325 325 325 325 325 324 324 324 324 324 325 324 321 319 317 316 314 313
329 330 329 327 327 326 323 320 317 314 312 310 308 307 307 308 308 311 313 315 317 317 318 320 321 322 323 323 323 323 323 323 323 323 322 320 319 316 313 312 310 309 307

GFSGL_925_thetae_087.txt.gz
Theta_e
318 319 320 321 323 322 323 322 324 326 326 327 326 323 325 328 326 327 327 326 327 330 337 337 334 337 340 340 339 340 340 341 341 342 340 340 338 338 338 339 338 335 334
318 318 320 321 323 322 323 321 321 322 323 323 321 321 320 320 319 320 324 327 330 332 334 336 339 338 338 338 340 341 342 341 340 340 339 339 338 337 338 337 335 333 333
317 318 319 321 321 322 322 319 320 319 318 316 315 313 311 311 311 314 315 321 326 327 328 330 336 341 342 339 342 341 342 342 341 339 338 336 335 335 334 334 333 334 334
317 317 318 319 320 320 320 319 319 317 316 314 313 312 312 312 311 313 314 313 316 320 326 329 332 335 341 344 343 339 343 345 342 336 334 335 333 333 333 332 332 333 332
315 315 318 318 319 320 320 319 318 316 314 313 312 313 313 312 311 311 312 312 311 314 319 324 327 327 329 335 341 345 345 343 338 334 332 332 332 332 332 332 333 332 331
316 314 315 316 317 315 315 316 315 313 313 312 312 313 313 313 312 312 312 311 310 311 315 319 321 324 325 325 334 341 344 344 337 334 333 330 331 333 333 333 332 328 325
314 314 314 314 314 315 314 312 312 312 313 312 312 313 313 313 312 312 312 311 310 310 310 311 320 326 327 328 334 341 344 346 345 340 334 332 332 334 335 332 331 330 329
315 314 313 313 313 313 314 313 313 312 312 313 313 313 313 313 312 312 312 311 310 309 309 310 316 322 323 324 328 339 343 343 344 340 339 339 335 334 334 333 333 331 328
311 311 312 312 313 313 313 313 314 313 313 313 313 313 313 313 312 312 311 310 310 309 311 313 315 320 322 328 333 338 338 337 338 337 337 335 334 333 333 333 330 328 325
308 308 308 308 308 310 312 313 313 313 312 313 313 313 313 313 312 311 311 310 309 310 312 315 317 322 328 328 333 337 335 333 337 336 335 334 333 332 331 331 331 328 325
307 307 307 307 307 308 308 308 310 312 312 311 311 311 312 312 312 311 310 309 309 310 312 316 320 324 324 331 336 336 335 335 335 334 332 332 331 331 330 330 330 330 328
306 306 306 306 306 306 306 307 307 308 310 309 308 309 309 310 310 310 310 309 309 310 313 317 322 322 321 326 333 334 334 335 332 331 330 328 328 328 327 327 327 327 329
304 305 305 305 305 305 305 306 307 308 308 308 308 308 308 309 309 309 310 310 309 312 313 313 315 319 322 329 331 332 333 333 330 326 324 326 327 326 326 327 327 328 328
303 303 304 304 305 305 306 306 307 307 308 309 309 309 309 309 309 310 311 310 310 315 318 319 320 321 322 325 328 331 332 330 328 326 325 326 326 325 325 326 326 326 326
304 304 304 304 305 305 306 306 306 306 307 308 308 308 308 308 309 310 310 314 318 319 319 317 318 319 322 325 325 328 328 328 328 327 325 325 324 324 324 325 326 326 325
303 304 304 305 305 305 305 306 307 307 307 307 307 308 309 309 310 311 314 316 317 318 319 319 320 323 326 326 326 326 326 327 329 328 325 324 323 324 325 325 326 325 325
302 303 304 304 305 306 306 307 308 308 308 308 309 309 309 310 312 314 315 316 318 317 317 323 326 328 328 328 327 326 325 328 328 326 325 323 322 322 322 323 323 325 325
303 303 304 305 305 306 306 307 307 307 309 307 308 308 309 311 312 313 314 316 315 315 320 327 328 328 328 327 326 326 325 326 324 324 324 323 322 321 321 322 323 324 324
302 303 304 305 306 306 307 308 308 307 308 311 309 308 309 310 311 312 313 312 315 319 327 327 327 328 326 325 324 324 326 324 324 324 323 323 323 323 322 323 324 325 324
303 303 303 303 303 305 309 310 309 308 307 309 311 311 309 308 307 308 310 312 320 327 326 325 325 325 324 323 325 326 325 325 324 325 325 324 324 323 323 323 323 323 323
298 299 300 302 314 311 311 310 309 309 309 309 311 313 311 310 310 312 315 319 325 325 324 324 324 324 324 324 326 325 325 325 326 326 326 325 324 323 323 323 323 323 323
297 299 302 316 317 313 311 310 310 311 312 313 315 313 314 313 315 317 324 324 323 323 324 324 324 325 325 325 325 325 325 325 325 325 325 324 323 322 322 323 324 324 323
297 301 319 322 322 320 316 314 313 315 318 318 314 310 313 323 324 324 323 323 324 324 325 325 325 325 325 325 325 325 325 325 324 324 324 323 323 323 323 323 322 322 322
301 314 325 324 323 323 323 322 320 322 324 323 322 321 321 320 319 319 319 322 324 325 325 325 325 326 326 326 327 326 325 324 324 324 324 324 323 322 322 322 322 321 320
323 326 325 323 322 321 320 318 317 316 316 316 315 315 315 315 315 317 319 323 324 324 326 326 326 327 327 327 327 325 324 324 324 324 324 324 323 322 322 319 318 316 314
322 321 320 318 318 316 315 313 312 311 310 309 309 309 309 310 312 315 318 322 323 324 325 325 326 326 326 326 325 324 323 324 324 324 324 323 322 319 317 314 312 310 308

GFSGL_925_thetae_090.txt.gz
Theta_e
318 317 317 318 318 319 319 320 322 323 326 328 328 326 325 327 327 326 325 325 326 328 330 332 334 336 337 336 334 337 338 337 337 338 338 332 337 338 339 337 338 339 339
316 316 317 318 320 321 321 321 321 322 326 325 325 323 322 320 319 318 318 318 319 324 327 327 326 327 334 336 337 335 338 338 339 338 334 335 339 338 339 337 338 338 337
315 316 316 317 319 321 322 320 322 322 323 324 323 320 317 314 311 311 313 314 316 317 316 318 324 328 332 335 339 339 336 335 338 337 336 338 338 336 335 335 336 335 334
315 315 316 317 317 319 321 321 322 321 321 322 320 316 313 311 312 311 310 312 310 310 309 310 317 323 327 329 330 335 339 337 335 336 337 338 334 333 333 333 333 333 333
314 314 316 316 317 318 319 320 320 320 319 318 316 314 312 312 313 312 310 310 311 311 310 309 309 311 316 319 323 325 327 336 338 338 337 334 331 330 331 332 332 332 332
315 313 314 315 316 317 318 319 319 319 319 318 316 313 312 313 314 313 312 312 312 311 310 310 309 309 309 316 323 327 328 334 339 341 337 335 332 333 333 332 331 330 333
314 315 313 313 313 314 316 317 317 317 318 315 314 312 312 312 313 313 312 312 312 312 310 310 309 309 311 315 320 322 322 324 336 341 340 336 335 332 333 331 332 331 331
311 313 314 315 313 313 312 312 313 314 313 314 313 312 311 312 312 313 313 312 312 312 310 310 309 309 310 314 318 321 324 329 336 339 341 339 339 335 335 335 334 331 329
307 309 311 312 312 312 312 312 312 312 311 311 311 311 311 312 312 313 313 312 312 311 310 309 309 310 311 313 318 321 327 328 334 336 336 337 338 335 334 334 331 329 329
306 307 307 308 308 310 309 308 309 312 313 313 312 311 311 312 312 313 313 312 311 311 310 309 309 310 310 312 321 324 326 328 333 333 333 334 334 333 333 333 332 330 328
305 305 306 306 307 307 307 307 307 307 310 311 312 312 312 313 313 313 312 312 311 310 310 309 310 310 310 315 322 323 322 325 330 331 331 331 331 331 331 331 331 331 328
303 303 304 305 305 306 306 306 307 307 307 308 309 309 310 311 311 311 311 311 311 310 309 309 309 309 312 316 316 317 322 328 329 328 328 329 329 330 331 330 330 329 329
302 303 303 304 304 304 304 305 304 305 306 306 306 307 308 307 309 311 311 310 310 310 310 309 308 310 313 313 315 319 325 327 328 327 327 326 328 329 328 327 327 328 327
301 301 301 302 302 303 304 304 304 305 305 305 306 306 307 308 307 309 309 310 309 309 309 308 309 313 317 316 317 320 324 329 327 326 325 326 325 325 325 326 326 326 325
301 301 301 302 303 304 304 304 304 305 305 306 307 307 308 308 307 308 309 309 309 309 308 312 316 316 314 316 319 322 325 328 327 327 325 323 323 324 325 325 325 326 325
301 302 302 303 304 304 304 305 305 305 306 305 306 306 307 308 308 308 308 309 308 308 314 318 318 317 316 317 321 324 326 327 326 325 324 323 323 324 324 325 325 325 325
301 302 303 303 304 304 305 305 306 305 305 305 306 306 307 307 307 308 308 308 309 312 316 317 318 319 319 322 325 325 325 325 327 325 323 324 324 324 323 323 325 325 324
300 301 301 302 303 303 304 304 305 305 306 306 306 306 306 306 307 308 309 309 308 311 314 316 316 320 322 325 326 326 325 325 324 323 322 323 323 322 323 323 323 324 325
300 300 301 302 302 303 304 305 305 306 306 306 308 306 306 307 307 308 309 310 313 315 315 315 315 319 326 327 326 325 325 324 323 323 322 322 322 321 321 322 323 324 323
299 299 300 302 302 303 304 306 306 306 306 307 307 307 305 304 305 304 305 309 310 312 314 316 320 327 328 327 326 324 324 325 322 323 322 322 322 322 322 323 322 323 323
298 298 298 298 299 300 304 303 306 306 307 307 308 309 307 306 307 308 308 308 310 312 314 320 327 327 325 324 324 324 324 323 323 323 323 323 322 322 322 323 322 323 322
296 297 298 301 311 309 309 308 308 308 308 308 309 310 309 308 308 308 309 311 314 315 323 326 325 324 324 324 325 324 323 323 324 324 324 324 323 322 322 323 323 323 323
295 298 304 316 311 310 309 309 309 309 309 308 309 309 308 310 311 313 314 318 323 323 324 324 324 323 324 324 326 325 324 324 325 325 324 323 322 322 322 323 323 323 323
300 308 322 320 320 315 312 312 312 312 312 313 313 310 310 313 315 320 322 323 324 324 324 324 323 323 324 326 325 325 325 325 325 324 323 322 322 323 323 322 322 320 318
321 322 320 318 317 318 318 317 316 318 319 318 317 317 317 317 316 319 320 321 322 323 323 323 324 324 325 325 325 325 324 324 323 324 324 323 323 323 322 320 317 314 312
316 315 315 314 313 312 312 312 311 311 311 311 311 311 311 312 313 315 317 319 321 321 323 324 325 325 326 325 324 324 323 323 323 324 324 323 322 320 318 316 313 309 305

GFSGL_925_thetae_093.txt.gz
Theta_e
323 325 325 324 324 324 325 327 328 328 328 331 332 333 334 335 335 337 338 338 338 338 338 338 337 337 335 336 338 340 339 339 340 338 337 337 336 333 333 335 334 336 338
319 317 317 317 319 324 326 326 327 325 327 329 331 330 328 329 331 331 331 330 331 331 331 333 332 332 333 335 336 338 339 338 338 337 326 334 335 333 331 337 337 338 337
315 317 317 317 316 318 320 320 323 326 326 329 329 328 326 325 325 323 322 322 323 324 324 322 322 325 328 330 333 336 339 339 339 332 330 334 332 334 334 336 336 335 336
316 316 317 316 317 317 317 317 318 323 326 327 327 326 324 322 318 317 318 318 319 316 316 316 316 318 320 323 326 330 331 334 337 338 336 333 330 336 335 336 337 334 337
312 315 316 318 318 318 317 318 321 322 325 324 324 324 322 318 315 317 317 317 317 317 317 316 316 313 309 310 315 319 324 326 332 336 336 328 329 335 333 336 337 338 337
310 312 314 316 315 318 319 320 321 323 324 324 323 322 320 317 314 314 315 317 317 317 317 316 316 311 313 309 309 311 320 326 329 334 338 335 331 331 333 335 336 337 340
308 309 312 315 316 316 318 319 320 321 323 323 322 321 319 319 314 313 313 317 317 317 317 316 315 313 312 314 315 317 319 320 323 325 330 336 338 338 336 335 336 338 338
307 308 309 312 314 316 316 316 317 319 320 321 321 320 319 318 315 312 313 316 318 317 317 316 316 315 314 312 314 316 318 320 323 329 331 331 335 338 339 339 338 337 335
306 307 308 309 311 314 316 316 316 316 316 317 318 318 318 318 316 312 312 314 316 317 316 316 315 315 313 310 313 316 318 320 324 327 329 331 334 337 338 335 334 336 337
305 305 306 308 309 311 312 314 316 316 316 315 315 315 316 316 315 313 312 313 315 316 316 315 313 311 311 310 310 315 318 321 325 325 327 329 332 334 333 333 334 336 337
301 302 303 306 307 308 310 312 312 312 311 312 313 315 315 315 315 313 311 313 314 316 315 314 315 314 311 310 309 313 317 321 320 321 323 328 329 330 331 331 334 336 336
301 302 303 304 305 306 307 309 310 310 310 311 312 312 312 313 312 313 312 312 314 315 314 314 314 313 311 309 309 311 315 315 314 319 326 327 328 328 329 330 331 334 334
301 302 303 303 303 304 306 307 308 309 310 310 311 311 311 311 311 311 310 310 311 312 313 314 313 312 310 309 309 312 315 317 320 326 328 327 328 328 329 329 330 330 331
301 302 302 302 302 303 304 306 306 307 308 309 310 310 310 310 310 310 310 309 309 311 311 312 311 310 310 309 311 314 317 318 323 328 327 327 327 327 327 327 327 328 329
300 300 301 301 301 301 302 303 305 306 307 308 308 308 309 310 309 309 310 310 310 310 311 313 314 314 315 317 318 317 319 320 326 327 326 325 326 326 325 326 327 328 329
299 300 301 301 302 302 302 303 303 304 305 305 305 306 307 307 308 308 308 308 309 311 311 313 314 315 316 317 319 319 321 323 326 326 326 325 325 326 327 327 328 328 329
299 299 301 301 302 303 304 305 307 305 304 304 305 305 306 308 307 308 308 308 309 309 311 312 314 315 316 317 319 320 323 325 326 326 325 326 327 327 326 327 328 329 328
298 299 299 300 300 302 303 304 305 305 307 306 304 304 305 305 305 306 307 308 307 305 310 310 312 315 316 318 320 321 324 325 325 325 325 326 327 326 326 325 326 327 326
297 298 299 299 300 301 300 301 302 303 305 305 306 305 304 304 305 306 307 307 308 309 309 311 312 315 317 319 322 325 325 325 324 325 327 328 326 325 324 324 324 326 326
296 296 297 298 299 300 301 301 302 304 305 305 305 306 305 303 302 303 302 305 308 311 313 312 314 316 318 319 322 325 325 324 325 326 327 327 325 325 324 324 325 324 326
297 297 298 298 299 299 300 302 303 304 304 306 306 306 306 305 306 306 306 307 309 311 313 315 316 317 319 321 325 324 324 324 326 328 327 326 325 326 325 326 326 326 326
295 296 297 298 300 302 305 301 301 304 305 306 307 307 307 306 308 308 309 309 310 310 312 314 316 317 321 325 325 325 325 327 328 327 326 325 325 325 325 326 326 325 324
295 297 299 303 310 309 306 304 305 307 307 307 308 305 305 307 309 309 310 310 311 312 313 315 316 324 325 325 326 327 327 328 327 326 325 324 324 325 325 326 326 325 325
300 305 313 311 312 311 310 309 308 308 308 309 310 309 309 310 310 310 310 311 313 314 315 322 325 325 325 327 327 327 328 327 327 326 325 324 324 324 326 326 323 320 317
317 316 316 316 317 314 314 312 311 311 311 311 313 311 313 314 313 315 314 316 321 324 324 324 324 325 326 326 327 327 326 326 327 326 325 325 325 325 321 317 313 310 308
311 311 310 309 310 311 312 312 313 313 315 315 315 315 313 314 314 317 320 321 321 322 323 324 324 325 326 327 325 325 325 325 324 324 323 322 320 318 317 311 308 305 302

GFSGL_925_thetae_096.txt.gz
Theta_e
321 326 328 329 328 328 329 328 327 328 326 326 326 326 327 329 331 334 335 337 339 340 340 338 338 337 336 336 332 335 337 336 336 335 337 338 336 338 335 337 335 335 337
319 319 321 325 327 327 328 328 328 328 327 326 327 327 328 328 330 332 332 331 334 336 338 338 337 336 337 338 338 338 338 338 338 340 336 336 333 333 335 333 332 335 338
317 319 319 320 323 325 327 329 329 328 327 325 326 326 326 326 327 328 329 329 331 332 333 333 334 333 333 332 332 332 334 335 337 339 337 336 334 334 334 332 331 337 338
313 316 316 318 319 323 323 325 324 324 323 327 326 324 323 322 323 324 323 323 324 325 326 325 323 323 324 325 327 327 328 331 331 334 336 337 337 337 335 330 330 337 338
312 313 314 315 316 320 318 317 318 316 318 317 324 327 323 321 321 320 318 319 320 319 318 317 318 318 316 313 315 316 319 322 323 323 327 332 336 336 334 330 333 335 338
309 311 312 313 315 318 320 321 320 318 319 320 324 326 324 321 318 316 318 319 319 318 320 319 318 316 316 313 313 313 314 317 321 324 324 328 335 335 334 334 333 333 339
308 309 310 311 313 316 319 320 322 323 323 322 325 326 325 323 318 315 317 320 320 320 320 320 319 316 315 316 316 315 317 318 318 320 325 326 328 332 336 338 333 335 336
307 307 308 310 311 313 316 320 320 322 324 326 326 326 326 325 321 316 314 318 321 321 321 321 320 319 319 318 316 316 316 317 320 322 323 325 327 329 334 338 339 339 336
306 306 307 308 310 312 315 317 321 321 323 325 325 326 327 326 322 320 314 315 318 321 321 321 321 320 319 317 315 316 317 317 317 319 320 323 326 328 330 333 337 338 338
306 306 306 307 310 311 312 315 318 321 321 321 322 324 325 326 324 320 317 316 316 318 320 320 320 319 318 317 315 315 316 316 317 320 323 326 326 329 331 333 336 336 338
304 303 303 304 306 308 310 313 315 318 319 319 319 320 321 322 324 321 318 317 317 317 318 318 319 319 317 314 313 314 315 314 313 317 319 319 324 329 330 331 333 337 338
303 303 303 302 304 306 307 311 313 315 317 317 318 318 319 319 318 319 317 315 316 317 318 318 319 317 315 315 314 312 311 310 313 315 317 319 326 330 328 329 334 337 336
302 302 302 302 302 304 306 309 311 313 316 315 316 316 316 317 318 315 315 313 312 316 317 318 317 316 315 315 314 312 311 314 316 318 321 325 329 328 328 331 332 335 334
301 301 301 301 302 304 304 305 307 310 313 314 315 315 315 315 315 316 313 312 312 312 314 315 315 314 314 314 314 314 314 316 318 321 323 328 328 329 330 330 332 332 332
301 301 300 301 302 302 303 303 304 306 309 312 313 314 315 316 315 315 315 315 314 312 311 312 313 314 314 314 315 315 317 319 320 323 325 327 328 329 329 329 331 331 332
299 300 300 300 302 303 303 303 302 303 305 306 307 309 313 313 313 312 312 312 313 313 312 313 313 314 314 315 316 316 318 320 322 325 326 326 327 328 328 329 330 331 331
299 299 299 300 301 302 303 303 304 303 302 302 303 305 305 307 308 308 308 309 309 310 310 312 313 313 314 315 316 317 318 320 323 326 326 326 327 328 329 330 330 330 331
297 298 298 299 300 301 303 303 304 304 305 304 302 302 304 305 305 305 308 308 309 308 310 311 313 314 314 315 316 317 319 322 326 326 326 326 327 328 328 330 330 330 330
296 296 296 297 298 298 299 300 302 304 305 306 306 305 303 304 305 305 307 308 309 310 310 312 313 314 314 315 316 318 319 323 325 325 326 327 327 328 328 328 329 329 329
296 296 296 296 297 298 299 300 300 301 302 304 306 307 306 304 303 303 304 306 309 310 310 311 311 313 314 314 317 318 323 325 325 325 326 327 327 327 326 327 328 328 328
296 297 297 296 297 297 297 299 300 301 301 302 304 305 306 304 306 307 307 307 308 309 311 311 312 312 313 316 318 320 326 325 327 326 327 328 328 327 327 327 327 327 328
295 296 296 298 298 298 299 299 300 301 302 304 305 305 305 306 306 308 307 308 308 309 310 312 314 316 313 317 318 321 325 326 327 327 327 328 328 327 327 327 327 328 328
297 298 300 302 304 305 304 300 300 302 304 305 305 306 305 306 307 308 309 309 309 310 310 312 312 314 317 319 321 324 325 327 327 327 328 327 327 327 327 327 327 327 327
302 302 309 312 310 307 304 302 302 303 305 306 307 307 306 307 308 309 309 310 309 310 311 312 314 317 319 322 324 325 327 327 327 328 327 326 326 326 327 327 326 322 317
311 313 316 317 312 310 309 309 308 308 308 308 308 309 309 309 311 310 310 311 312 313 314 316 318 318 318 324 326 329 327 327 329 327 326 326 326 327 326 323 318 312 308
307 307 308 309 310 312 314 313 312 311 311 313 312 311 311 311 313 313 314 315 316 317 317 317 321 325 327 328 328 328 327 327 327 327 326 326 325 323 321 316 310 307 305

GFSGL_925_thetae_099.txt.gz
Theta_e
322 322 323 327 330 331 332 334 337 339 340 340 340 341 342 343 343 341 341 340 339 341 341 340 339 340 338 338 338 337 336 335 338 335 332 332 333 338 337 334 329 336 338
318 320 322 323 325 325 328 331 332 331 332 330 333 333 334 334 334 335 336 334 334 337 338 339 340 338 338 338 339 338 336 336 337 338 336 336 338 338 340 338 340 339 333
317 317 319 322 322 323 320 323 328 328 327 325 325 326 326 327 328 331 331 331 330 330 332 334 336 337 337 337 337 337 338 338 337 337 337 337 336 336 336 336 338 335 327
313 315 317 317 321 321 317 316 318 327 327 327 325 325 326 326 327 328 327 327 327 328 330 332 332 334 334 334 333 333 333 332 331 332 333 334 335 335 335 337 337 334 324
312 312 313 315 316 320 317 315 315 320 320 321 322 327 324 323 323 324 325 325 326 326 326 327 325 323 321 324 323 322 322 323 323 323 324 326 330 333 333 334 335 331 332
311 311 311 311 314 317 318 314 314 317 320 319 320 320 324 323 321 322 323 322 322 322 322 320 320 318 317 312 310 310 312 318 319 319 320 323 327 329 331 335 335 333 333
311 310 310 310 311 314 316 317 315 315 317 320 318 321 320 325 322 320 319 320 321 320 321 321 320 318 318 319 316 316 316 317 317 319 322 322 324 327 330 332 335 336 331
310 310 309 309 310 311 314 317 320 320 317 317 320 320 320 319 316 319 315 321 322 322 322 322 322 320 319 319 319 318 318 318 319 320 322 325 327 327 328 332 334 336 336
309 308 309 309 309 309 311 315 318 321 322 323 324 324 324 324 321 318 315 320 324 324 323 323 324 323 322 320 319 319 318 318 318 318 317 319 321 322 322 325 329 331 336
308 308 308 308 308 309 310 313 316 319 321 323 324 326 327 326 324 322 315 318 321 322 323 323 322 323 323 321 320 319 319 318 318 318 317 317 319 324 327 326 328 332 333
308 307 307 307 306 307 308 309 314 316 319 322 323 324 326 326 326 323 320 318 318 319 319 321 322 322 321 319 319 319 318 318 318 316 315 316 317 319 321 328 332 331 334
307 307 306 306 305 305 306 307 310 312 316 321 322 323 323 325 326 324 323 321 321 321 320 319 320 321 320 320 318 316 314 314 314 314 315 317 318 319 323 329 329 330 332
305 305 304 305 304 304 305 306 305 309 311 318 321 322 322 322 323 324 323 320 320 321 321 320 320 319 319 318 316 315 315 315 315 316 317 318 320 325 325 329 329 330 335
303 303 303 303 304 304 304 303 304 306 311 314 319 320 321 321 322 320 319 320 318 318 318 319 319 318 317 318 317 316 316 316 316 318 319 320 324 325 329 328 333 336 334
301 302 303 302 302 303 303 303 304 306 308 312 316 318 318 319 319 320 319 318 317 315 315 317 318 318 318 317 317 316 317 317 318 319 321 323 325 327 330 331 334 333 331
300 300 301 301 302 301 302 303 304 305 305 305 306 306 308 307 313 317 317 318 317 315 314 316 316 316 316 317 318 318 318 318 318 319 323 325 326 328 330 331 332 331 330
299 300 300 300 300 301 301 303 304 304 303 304 304 304 304 304 304 306 309 315 315 315 316 316 316 317 317 317 317 317 316 317 318 320 323 327 327 328 329 329 331 330 330
299 299 299 299 301 301 301 302 303 304 305 304 303 302 302 302 303 304 306 308 310 311 314 315 315 314 314 315 315 315 316 317 319 321 325 326 326 328 328 329 330 330 331
296 297 298 297 296 297 299 301 302 303 304 304 304 304 304 302 302 304 305 307 312 313 312 312 312 312 313 314 315 316 316 317 319 323 327 326 326 327 328 326 328 330 331
295 296 296 296 296 296 297 298 299 302 304 305 305 306 306 305 303 305 306 307 310 311 311 311 311 311 313 314 315 316 317 318 322 326 325 326 327 327 327 327 329 330 330
295 295 296 295 296 295 295 298 298 300 301 302 304 306 306 306 306 307 308 308 309 310 311 312 313 313 313 314 315 316 317 319 326 325 326 327 326 329 328 328 329 329 329
296 297 297 297 297 296 295 296 297 299 301 302 303 304 306 306 306 307 307 308 308 308 310 311 312 312 313 314 315 316 319 322 326 325 326 326 327 327 328 328 329 329 327
301 302 302 301 300 299 298 298 298 300 301 302 303 304 304 306 307 307 308 309 309 309 310 312 312 313 314 315 316 315 319 323 326 325 327 327 326 327 328 328 328 328 327
306 307 311 310 306 303 302 300 300 301 302 303 305 306 304 305 306 308 308 309 310 310 311 311 312 312 315 315 318 320 322 325 325 326 326 328 327 328 328 328 327 327 324
308 310 314 312 310 306 304 303 303 303 305 305 306 307 306 307 307 308 309 310 311 311 311 311 311 312 314 315 320 321 323 324 325 327 326 328 327 327 327 325 323 320 317
302 303 304 307 310 313 311 309 308 308 308 308 308 308 308 309 308 309 310 310 311 311 311 312 312 313 316 318 319 323 324 326 326 326 326 327 327 325 323 320 316 313 310

GFSGL_925_thetae_102.txt.gz
Theta_e
320 320 320 322 324 325 328 329 330 331 335 338 340 344 344 342 341 341 340 341 336 330 336 340 344 344 343 342 341 340 338 337 337 336 335 334 334 333 332 333 338 335 334
318 318 319 320 324 325 325 325 324 324 324 325 325 337 341 342 338 332 324 337 335 333 335 338 341 341 341 341 340 338 336 336 336 335 335 335 337 336 336 335 337 337 337
315 315 315 317 320 321 323 324 323 322 319 320 317 317 315 338 338 333 330 330 320 335 339 341 339 338 338 338 339 337 334 335 335 334 334 333 337 336 335 331 336 335 335
315 315 315 314 316 318 319 320 323 321 317 318 319 318 318 332 337 336 336 337 335 333 336 336 335 336 336 337 338 336 334 332 332 332 333 334 334 332 333 335 335 334 335
315 314 314 313 313 313 314 319 321 320 317 316 318 318 318 319 330 332 333 333 331 329 332 330 333 335 334 333 332 330 325 324 324 323 323 323 325 330 332 333 332 333 333
315 314 313 313 312 312 312 313 319 319 316 315 314 316 319 318 322 325 325 329 329 328 330 330 328 323 321 324 324 316 313 313 314 318 320 320 321 322 324 329 332 333 332
314 314 313 312 312 312 312 311 313 319 318 316 315 318 319 320 317 321 321 324 325 324 325 323 320 320 318 317 312 312 315 316 317 317 321 323 324 324 326 327 326 331 333
312 312 312 312 310 310 310 311 312 314 319 318 318 318 318 320 322 320 317 320 324 322 321 320 321 320 317 318 318 317 318 320 319 319 319 318 318 322 323 325 326 326 331
311 311 311 310 310 309 310 310 310 312 315 318 320 319 318 319 321 319 319 317 321 322 321 324 322 319 319 318 320 320 319 318 318 318 318 317 317 316 314 318 320 324 325
310 310 310 309 309 309 309 309 309 310 313 317 320 321 320 321 322 321 317 317 317 322 323 324 323 324 324 321 320 319 321 320 320 319 318 317 312 315 317 320 323 327 327
306 307 307 307 309 308 308 308 308 308 309 310 317 320 322 324 323 322 320 315 317 319 325 325 325 323 325 323 322 321 321 320 320 318 316 315 316 316 318 320 322 325 328
303 304 306 307 306 308 308 307 307 307 308 309 312 317 321 322 323 323 322 317 317 317 323 324 324 324 322 322 321 320 319 319 316 315 316 316 316 318 319 324 329 330 330
301 302 303 305 306 307 307 307 306 306 307 306 309 313 319 322 322 322 322 318 316 316 321 320 320 322 322 321 321 320 319 316 315 317 317 317 318 320 324 323 322 328 328
299 301 302 304 306 305 305 306 306 307 307 307 308 311 316 321 321 322 321 319 319 319 319 321 320 318 319 320 320 319 318 315 316 317 317 318 319 322 324 324 328 329 333
297 299 301 301 302 303 303 304 304 305 306 306 308 311 314 320 311 311 320 319 316 314 318 320 320 319 317 318 318 318 318 317 318 317 318 319 322 324 326 325 329 329 332
296 298 300 301 302 303 303 303 303 303 304 304 305 306 306 306 306 305 310 318 321 321 318 319 320 321 321 321 321 320 318 318 318 319 320 321 323 325 326 327 329 330 330
296 298 299 299 300 301 302 302 302 302 302 302 302 304 304 304 305 305 304 309 317 318 317 317 319 319 320 319 318 319 319 319 319 319 320 323 326 325 325 327 328 328 328
295 295 296 299 300 300 301 301 301 302 303 305 303 303 303 303 304 304 304 305 311 314 316 316 316 317 318 319 319 318 318 317 317 318 320 323 326 326 325 327 328 328 329
295 295 295 295 298 298 298 300 301 302 303 304 305 305 304 304 304 304 303 305 309 315 317 317 318 318 317 315 315 316 316 317 318 319 323 325 325 325 326 327 327 328 327
294 294 295 295 296 297 297 298 299 301 303 304 304 305 305 304 302 302 303 305 308 312 315 314 314 314 313 313 313 314 316 316 318 318 324 324 323 322 327 327 326 324 326
295 295 295 295 295 296 296 296 297 298 301 303 304 304 305 305 307 305 305 307 309 311 314 314 313 313 312 312 313 315 316 317 317 323 324 324 323 324 325 326 325 326 328
298 297 297 297 296 295 295 295 296 298 299 301 302 303 305 306 306 308 308 308 310 310 312 312 312 312 314 314 314 315 315 317 321 323 323 323 324 326 327 326 327 327 326
302 302 303 302 299 298 295 295 296 297 299 300 302 302 303 305 307 307 308 309 310 310 310 310 311 312 313 312 315 317 316 316 321 322 322 324 326 326 326 326 327 325 323
309 310 311 305 303 301 298 297 297 298 299 301 301 303 303 305 308 307 308 308 309 310 310 309 310 311 313 313 314 315 317 316 319 324 324 325 327 328 327 327 327 324 321
302 304 306 308 304 301 300 300 300 300 301 302 302 303 304 305 306 307 308 308 309 310 310 311 311 312 312 313 313 313 315 320 322 323 324 325 325 324 327 326 323 321 319
296 298 300 301 304 307 305 303 302 303 303 304 305 306 305 306 306 307 309 308 310 310 310 311 311 312 312 312 314 315 318 321 321 322 324 326 327 326 323 322 320 316 314

GFSGL_925_thetae_105.txt.gz
Theta_e
319 319 319 318 318 318 323 323 323 324 323 322 321 321 323 321 323 326 327 324 325 334 339 335 331 331 327 331 334 335 337 338 332 335 335 336 334 334 334 334 334 333 333
318 318 316 316 316 318 318 320 320 321 318 318 321 319 317 319 321 319 322 325 329 332 330 328 322 325 326 325 324 334 339 339 337 330 334 333 334 333 333 333 332 329 333
317 316 315 315 315 313 313 313 312 314 320 319 318 317 316 318 319 318 317 317 320 328 327 324 324 323 327 329 330 334 338 337 336 334 331 328 330 327 323 329 331 330 329
317 315 315 315 314 313 312 312 311 311 314 320 318 317 316 318 319 317 318 317 317 325 328 328 326 327 329 333 334 338 338 336 335 333 327 324 322 324 321 331 333 332 332
316 316 315 314 314 313 312 312 311 311 310 314 317 317 315 315 318 315 315 316 315 324 324 322 320 321 329 332 333 337 334 332 331 330 327 327 326 326 328 323 324 329 330
315 315 314 314 314 313 313 312 311 311 310 311 315 317 317 316 316 317 316 317 324 326 326 328 333 332 333 334 334 331 329 323 320 316 315 315 316 318 321 324 325 325 325
314 313 313 314 313 313 312 311 310 310 310 311 314 317 317 316 317 317 318 319 318 322 325 325 327 330 330 327 317 314 311 310 311 314 317 318 320 318 319 322 325 328 328
312 312 312 311 311 311 310 310 309 309 309 309 311 315 317 318 318 317 317 318 320 322 324 324 322 320 320 318 313 313 315 317 318 318 318 318 317 317 320 323 319 317 318
309 309 310 310 310 310 310 309 308 308 309 309 309 313 317 317 318 319 317 318 319 324 322 320 320 318 316 313 314 317 317 319 319 318 318 317 318 317 316 314 316 316 318
305 306 306 306 306 307 308 308 308 308 308 309 309 309 309 316 318 317 317 317 317 324 321 320 320 320 317 317 319 319 320 318 318 319 319 319 318 314 313 316 317 317 320
301 301 302 303 304 306 306 306 307 308 308 308 308 309 308 311 318 318 316 317 316 320 324 324 323 320 319 318 320 319 318 318 320 320 318 316 313 314 314 317 318 320 321
298 298 299 300 301 303 304 307 307 308 307 307 307 307 307 308 314 319 319 318 319 316 321 323 324 323 323 323 322 322 321 320 320 319 316 314 315 315 316 320 326 323 325
296 297 297 298 300 302 303 306 307 307 306 305 305 306 306 307 309 317 320 321 319 318 317 322 323 322 323 323 323 322 321 320 319 317 315 315 316 316 317 320 321 323 325
295 295 296 297 299 300 302 305 306 307 306 305 305 305 306 308 313 315 317 318 317 318 316 317 319 320 323 323 321 321 320 319 319 316 315 316 316 316 318 323 324 324 329
295 295 295 297 298 300 301 303 304 305 305 305 305 306 306 311 305 307 310 314 315 316 315 316 318 319 317 317 319 319 318 318 318 316 316 316 317 317 320 323 323 327 329
294 295 295 296 298 300 301 301 302 303 304 304 304 304 305 305 305 305 306 312 315 314 315 316 319 319 318 317 318 317 317 318 317 317 317 317 318 321 323 323 325 328 328
295 295 295 295 297 299 300 301 302 302 302 302 303 303 303 302 304 305 306 310 313 316 314 315 318 319 320 319 318 318 319 319 318 317 317 318 320 324 324 324 326 327 327
293 294 295 295 295 296 300 301 301 302 302 302 302 302 302 302 302 304 305 305 307 311 316 317 317 318 319 320 320 320 319 318 318 318 316 318 324 324 324 324 326 327 326
292 293 294 295 295 295 297 299 300 300 301 301 302 304 303 303 302 304 304 304 305 309 314 315 317 318 318 318 318 317 316 316 315 316 317 322 324 324 323 323 326 327 325
294 294 294 294 295 295 296 298 299 298 302 302 303 304 302 299 300 302 303 304 305 306 314 316 315 315 316 314 314 313 313 312 313 315 316 323 324 323 322 323 326 326 324
296 298 297 295 295 295 295 297 297 298 299 301 303 304 304 301 301 302 303 304 305 306 310 315 316 314 314 313 313 312 312 313 314 315 320 322 323 322 323 325 326 326 325
300 302 299 298 296 296 295 296 296 297 297 299 301 303 304 304 305 304 304 305 306 307 310 313 314 313 312 312 312 312 312 313 315 320 322 322 322 323 323 325 322 324 324
305 307 305 304 299 297 295 295 296 296 298 299 300 302 303 305 306 306 306 305 307 307 309 311 311 312 312 313 313 313 315 317 316 319 320 322 323 323 324 325 325 325 324
301 303 306 301 300 298 296 296 296 296 298 299 301 301 301 303 305 306 306 308 308 309 309 310 310 311 311 312 313 313 313 315 317 318 321 323 325 325 326 326 324 321 317
296 298 299 302 301 300 298 299 298 298 298 299 301 302 303 302 305 307 307 307 309 310 310 310 310 310 310 310 311 312 313 313 314 319 321 322 324 326 324 326 323 317 315
291 293 294 295 297 300 302 301 301 301 301 302 302 302 303 304 305 307 307 307 309 308 309 309 309 309 309 308 309 312 312 312 314 319 321 321 324 325 325 323 319 315 313

GFSGL_925_thetae_108.txt.gz
Theta_e
319 319 319 318 319 318 318 317 319 318 318 317 315 318 318 316 316 317 319 325 329 329 327 329 331 332 332 331 328 327 330 329 331 330 332 334 335 334 333 331 329 333 333
319 319 319 318 319 318 317 317 317 316 315 313 312 313 316 316 316 317 318 319 321 325 325 325 330 331 328 324 322 322 324 323 325 331 332 334 334 334 334 334 333 331 332
318 319 318 318 317 315 315 314 314 313 313 312 311 311 312 316 316 316 318 318 318 320 324 329 329 328 325 324 323 322 324 323 326 330 331 333 333 333 332 330 327 327 331
315 316 316 316 315 315 314 314 313 313 312 311 311 310 311 311 314 316 317 317 316 316 317 317 322 325 326 328 322 323 324 324 329 331 331 329 328 327 324 322 327 329 329
313 313 313 314 314 314 314 313 313 312 312 311 311 311 312 313 315 316 317 317 317 316 316 317 318 324 325 326 324 325 324 328 330 331 328 325 324 325 326 327 321 321 319
312 312 313 313 313 313 313 313 313 312 311 311 311 311 309 310 311 313 315 317 318 316 318 318 319 322 326 323 327 329 332 331 330 327 321 320 320 322 318 319 322 322 320
310 311 311 311 311 312 312 312 312 312 311 310 309 309 309 309 308 310 315 317 317 316 319 316 318 322 325 325 326 328 330 331 331 329 321 316 315 317 317 320 320 322 323
306 307 308 308 309 309 310 310 310 310 309 309 309 309 309 309 308 310 315 317 318 318 317 317 322 323 324 324 326 329 327 322 320 316 314 315 316 316 316 317 320 317 315
303 303 304 305 305 306 306 307 308 309 308 308 308 308 308 309 310 311 315 317 318 318 317 321 323 326 327 327 323 312 312 314 315 317 317 317 317 317 317 315 314 313 312
301 302 301 300 300 301 302 303 305 305 306 307 307 307 308 309 308 309 314 317 317 317 316 322 321 325 325 320 312 314 316 317 318 318 318 317 317 317 314 313 315 315 314
300 299 298 298 298 299 300 301 302 303 305 306 307 307 308 308 308 308 313 315 317 316 315 320 317 318 313 312 315 316 316 318 318 318 319 318 316 314 314 315 317 318 317
297 297 297 296 297 297 298 300 301 302 304 306 306 306 307 307 307 307 314 313 317 316 315 320 320 316 314 316 317 317 316 317 318 319 318 316 315 315 315 317 320 324 321
295 295 295 296 295 296 297 298 299 303 305 306 306 305 306 306 306 307 309 309 317 319 316 317 320 317 318 319 319 319 319 319 319 318 317 316 315 315 316 316 318 319 323
294 294 294 295 295 295 296 297 300 301 304 305 304 304 305 305 306 311 312 309 314 314 315 316 320 322 322 320 318 319 321 321 320 318 318 316 315 315 316 317 318 323 325
293 294 294 295 295 295 296 297 299 302 304 306 305 305 304 304 306 308 311 311 314 315 315 316 318 319 320 320 319 318 318 319 318 318 318 316 316 315 316 319 323 323 328
293 294 294 295 295 296 296 298 299 300 302 303 304 305 305 307 304 304 306 312 315 313 314 316 316 316 316 317 318 317 316 317 318 319 318 316 316 316 317 321 323 326 327
293 293 293 294 295 296 296 298 299 301 302 302 303 303 303 303 304 304 304 306 311 313 313 315 316 317 317 317 317 317 316 318 318 318 317 317 317 317 320 322 323 326 326
290 291 292 293 294 295 295 295 299 300 301 301 302 302 302 302 302 303 303 305 307 311 313 314 316 318 318 318 318 318 318 318 318 318 317 316 316 320 323 322 323 325 326
291 292 293 294 294 295 295 295 297 299 301 301 301 302 302 302 302 303 302 304 305 306 314 316 316 317 318 319 319 319 319 319 317 315 314 315 316 323 323 322 322 325 325
292 294 294 295 295 294 295 295 297 300 300 301 301 303 301 300 300 301 302 303 304 306 310 314 316 317 318 318 318 317 315 313 313 313 312 313 315 323 323 322 322 324 323
294 296 299 298 296 295 295 295 297 298 299 300 302 302 303 301 300 301 302 303 304 305 307 312 314 315 316 315 313 313 313 313 312 312 315 317 319 322 323 322 323 325 325
297 303 303 303 297 296 295 295 296 297 298 298 300 303 303 302 300 301 302 303 305 306 307 311 315 315 314 314 313 313 312 311 311 313 317 321 323 323 323 322 323 324 324
298 301 301 300 298 296 295 296 296 296 297 297 300 302 303 303 304 303 303 304 306 307 308 309 313 313 313 313 312 313 314 317 317 317 320 321 322 322 323 323 324 324 324
295 297 299 301 299 297 296 296 296 296 297 299 299 300 302 305 304 305 306 305 306 307 308 309 311 312 313 313 312 313 313 313 315 316 317 320 320 322 323 324 325 324 317
292 293 294 295 298 299 298 298 297 297 297 300 300 300 300 301 304 305 306 307 306 307 308 309 310 311 312 312 312 312 312 312 312 313 314 320 321 322 324 324 323 315 312
288 290 291 291 292 294 296 300 299 299 298 300 301 301 302 302 302 306 307 307 308 307 308 309 309 310 311 311 311 310 310 309 312 312 314 319 320 321 322 323 318 315 311

GFSGL_925_thetae_111.txt.gz
Theta_e
318 318 318 318 319 319 319 318 318 318 318 318 317 314 312 311 312 313 312 313 315 317 319 321 324 327 328 327 327 330 331 331 330 329 327 327 328 330 333 334 335 335 332
316 317 318 319 319 318 318 317 318 318 318 317 316 313 312 311 312 312 312 313 315 317 317 318 323 324 327 330 330 330 327 326 329 327 327 327 326 326 332 334 333 331 329
314 315 316 317 316 317 317 318 318 317 317 316 315 313 312 311 312 312 313 314 315 315 315 316 317 324 328 328 327 323 323 323 324 325 326 326 325 328 332 333 332 333 331
312 312 312 312 313 313 314 315 315 315 315 314 313 312 311 310 311 312 313 314 314 315 315 315 316 317 321 324 324 324 323 323 323 323 325 326 327 329 330 328 326 324 328
311 311 311 311 312 312 312 312 313 313 313 313 312 312 311 311 310 311 312 313 314 315 316 316 316 315 315 319 323 325 325 324 323 324 324 326 325 323 323 324 324 325 322
310 309 309 310 310 310 310 311 311 312 312 312 312 311 311 311 311 310 309 311 310 313 315 316 316 316 316 317 317 319 323 323 323 324 325 326 325 324 324 324 320 319 315
305 305 305 306 306 306 306 307 308 309 310 310 311 311 311 311 309 309 308 308 309 311 314 316 316 317 318 318 317 318 320 323 323 325 327 324 322 325 323 318 318 318 318
302 302 303 303 303 303 304 305 306 306 307 308 309 310 309 308 309 308 307 307 309 312 314 316 317 317 318 317 317 318 320 324 325 326 327 326 325 322 316 314 315 318 316
301 301 301 301 302 301 301 301 302 303 304 307 307 307 308 308 308 308 308 308 309 311 314 316 317 317 319 322 320 320 323 325 327 327 324 319 315 314 314 314 315 312 310
299 299 299 300 299 299 299 299 300 301 302 303 305 305 306 307 307 307 307 309 309 312 316 317 318 317 318 322 322 320 317 318 315 315 316 317 316 316 316 314 312 313 312
297 297 297 297 297 298 297 298 299 299 300 301 302 303 305 306 307 307 308 308 310 315 315 316 317 318 318 320 321 320 316 315 316 317 316 316 317 317 315 313 314 315 315
296 296 295 295 295 296 296 296 297 298 299 299 300 301 305 305 306 307 308 307 311 311 312 316 316 318 320 319 314 314 315 317 317 317 317 317 316 314 314 315 316 318 320
294 294 294 295 295 295 295 296 296 297 298 299 303 304 305 305 306 307 306 306 312 308 309 314 317 317 315 314 314 317 317 317 317 317 316 316 315 314 315 316 316 318 320
293 293 293 294 294 295 295 296 296 297 298 300 302 306 306 305 305 305 305 310 310 309 309 314 317 316 312 314 316 316 316 317 318 318 317 316 315 315 315 316 317 318 322
292 292 293 294 294 295 295 295 296 296 298 300 303 304 304 303 304 305 307 311 310 309 311 312 314 312 312 315 317 317 318 319 318 318 318 317 315 314 315 316 318 322 323
291 292 293 293 294 295 295 296 296 296 298 299 299 303 304 304 305 305 306 310 308 308 311 313 313 314 314 315 316 316 319 319 319 319 319 317 316 315 315 317 321 322 323
291 291 291 292 292 294 295 296 296 297 298 299 301 302 303 305 303 303 304 307 309 313 311 314 315 315 316 317 318 318 318 319 317 318 318 317 316 316 316 318 321 323 324
289 290 291 292 292 293 294 295 296 295 299 299 302 302 302 302 303 303 303 304 308 310 313 314 315 316 316 317 317 317 317 317 317 317 316 317 316 315 318 320 321 322 325
290 291 292 293 294 294 294 295 295 295 297 301 301 301 302 301 302 302 302 303 305 306 312 314 315 316 317 317 316 317 317 317 316 317 317 315 315 317 320 321 320 321 324
291 292 294 295 296 296 295 295 295 295 298 299 301 301 301 301 301 300 301 302 303 305 308 314 315 317 317 318 318 318 318 318 317 314 312 312 313 316 321 321 320 320 321
292 294 299 301 299 296 295 295 295 297 299 299 301 301 302 301 301 301 301 301 303 304 306 312 315 316 316 317 317 317 317 314 312 312 315 316 319 318 321 322 321 322 323
294 298 301 299 298 296 295 295 296 297 298 298 299 302 302 301 301 300 301 302 302 304 305 309 313 315 317 317 315 312 312 311 311 313 314 319 321 322 322 322 322 322 323
294 296 298 300 297 296 295 296 296 296 297 298 299 301 302 302 302 300 301 302 302 304 306 308 313 314 314 313 313 313 312 311 312 314 318 320 320 321 322 323 323 322 322
291 293 294 296 298 297 296 296 296 296 296 297 298 300 302 303 303 304 303 303 304 305 307 308 313 313 312 311 313 313 315 316 316 316 316 317 319 320 322 322 322 323 323
289 290 291 292 293 295 299 298 297 296 297 299 299 299 300 301 303 304 305 305 305 306 307 309 311 312 311 312 312 313 312 312 311 310 310 313 319 320 321 322 321 316 311
286 287 288 289 290 291 292 294 298 299 298 300 300 301 301 301 301 305 306 306 307 306 307 308 310 311 312 312 312 311 310 309 310 310 311 313 318 319 321 321 318 311 309

GFSGL_925_thetae_114.txt.gz
Theta_e
316 316 317 317 318 318 319 319 319 319 318 318 318 317 316 314 311 310 309 309 309 309 310 313 316 317 321 324 325 326 327 328 330 328 329 330 330 330 329 328 332 334 335
314 314 316 316 317 317 317 318 319 317 317 318 319 319 318 315 313 311 311 310 310 311 310 310 311 315 317 323 325 326 328 329 329 329 329 328 328 328 328 327 326 332 334
311 311 312 312 313 314 315 315 315 316 316 316 317 319 319 317 314 313 312 311 311 312 312 310 310 311 316 318 322 325 326 328 329 329 329 328 328 329 327 327 327 328 331
310 310 310 310 310 311 311 311 311 312 312 312 313 314 317 317 314 313 312 312 312 313 312 312 312 312 313 317 321 323 325 325 324 325 326 325 325 326 326 326 327 328 331
308 308 308 308 308 308 308 308 308 309 310 310 311 311 312 313 313 313 312 312 312 313 312 312 312 310 310 314 317 321 322 323 324 323 323 323 324 324 326 326 327 328 327
305 305 305 304 304 304 304 304 304 304 305 305 306 310 310 311 311 312 312 312 312 313 313 311 310 308 309 311 315 316 319 321 321 322 324 323 323 324 325 325 325 321 323
302 302 302 302 302 302 302 303 303 304 304 305 305 306 307 308 309 310 311 312 312 311 310 309 309 312 313 314 315 316 316 316 318 319 321 322 324 324 324 323 323 319 317
301 301 301 300 301 301 301 301 302 302 303 303 304 305 306 306 307 309 311 311 310 309 308 308 310 311 312 314 315 316 317 316 316 316 318 321 323 324 324 325 322 317 316
299 299 299 299 299 299 300 299 299 299 299 300 301 302 304 306 307 307 308 309 308 308 308 308 310 311 311 315 316 317 318 317 317 317 317 321 324 325 325 320 316 314 314
297 297 297 297 297 298 297 298 298 298 298 299 299 300 300 304 305 305 305 306 306 306 306 307 310 310 314 313 315 314 315 317 318 318 320 323 324 320 318 314 312 313 314
296 296 296 296 297 296 296 296 297 296 298 298 297 298 300 302 302 304 305 306 306 307 308 310 312 314 315 317 316 319 320 319 318 319 321 319 316 316 317 315 312 313 314
295 295 294 295 295 295 295 295 296 296 297 297 297 298 298 299 300 302 302 305 306 307 309 311 310 310 315 315 315 318 317 317 317 315 315 315 316 316 316 314 313 314 315
293 294 294 293 294 294 294 295 295 296 296 297 297 298 300 303 304 305 305 305 306 306 306 310 309 309 316 316 315 320 318 315 314 315 315 314 316 315 313 314 315 315 316
292 292 292 292 293 293 294 295 295 296 296 297 297 299 301 302 306 305 305 305 305 305 307 309 309 312 314 313 315 315 314 314 315 315 314 314 313 314 314 315 316 316 317
291 291 292 292 293 293 294 295 295 296 296 296 297 299 301 303 304 304 304 304 306 309 309 310 310 309 309 310 311 314 315 316 315 315 315 314 314 314 315 315 315 318 321
291 291 291 292 292 293 293 294 295 295 295 296 296 297 298 299 301 305 306 307 308 309 309 310 311 311 311 312 314 315 315 317 316 316 316 315 314 314 315 315 317 320 322
289 289 290 291 291 292 293 294 295 295 296 295 298 298 300 301 302 304 304 305 308 309 310 310 312 313 313 313 314 316 317 318 318 317 316 316 315 315 315 315 319 321 323
288 289 290 291 292 293 293 293 294 295 296 296 299 300 301 302 302 302 302 303 306 308 309 310 313 314 314 315 314 317 317 317 317 317 316 316 316 315 315 318 320 321 323
289 290 291 293 294 294 295 294 293 295 296 296 300 301 302 302 302 301 301 302 304 305 306 309 314 314 315 317 316 317 317 317 317 316 316 316 315 315 316 319 320 320 321
290 291 293 295 298 298 296 294 294 295 295 297 299 301 301 301 300 300 300 301 302 303 304 306 314 314 315 316 315 316 315 316 317 317 315 314 313 314 317 319 320 319 319
290 292 295 300 298 296 295 295 295 295 297 299 300 301 301 300 300 300 300 301 303 303 303 305 314 315 316 316 317 317 317 317 316 312 311 312 314 316 316 319 320 320 321
291 294 297 299 297 295 296 295 296 297 298 298 299 301 301 301 300 300 300 301 303 303 304 304 309 315 316 317 317 317 317 313 311 314 316 319 319 320 320 321 321 321 321
290 292 294 295 297 297 296 296 296 296 297 297 298 300 301 301 302 300 301 302 302 303 304 305 309 314 316 316 317 315 313 312 312 313 315 317 319 320 320 321 322 322 321
288 290 291 292 293 296 297 296 296 297 297 298 298 299 301 303 303 302 301 302 302 304 306 307 311 313 316 315 312 312 311 312 315 315 313 313 315 317 319 320 321 320 321
286 287 288 289 290 292 294 297 297 297 298 299 299 299 300 301 303 304 304 304 304 306 307 308 311 311 311 311 314 315 315 313 311 310 310 310 312 316 319 321 320 319 318
284 285 286 286 287 288 290 291 293 294 298 300 300 301 302 301 302 305 305 307 306 307 307 309 311 310 311 313 313 313 312 310 310 310 310 310 312 316 319 320 319 314 311

GFSGL_925_thetae_120.txt.gz
Theta_e
323 324 324 324 324 324 324 324 326 327 328 328 328 328 328 327 327 326 324 321 320 322 321 319 320 321 320 319 318 318 319 319 321 320 323 325 328 330 332 334 335 336 336
319 320 321 321 321 323 323 324 324 324 325 325 325 325 326 327 326 327 326 324 321 321 321 320 320 319 321 320 320 320 320 320 321 328 322 322 324 327 330 332 333 335 335
317 317 318 319 319 319 319 319 319 319 319 320 321 322 323 323 323 324 325 325 324 323 322 321 321 320 321 319 319 319 318 318 317 318 321 321 322 324 329 330 332 333 335
315 315 315 316 315 315 315 315 315 315 315 316 316 317 317 318 319 320 321 322 324 324 324 323 322 321 320 320 320 320 319 318 317 317 317 319 321 321 326 329 330 331 333
313 313 313 313 312 312 312 312 312 312 312 312 312 312 313 313 314 315 316 318 319 321 322 322 321 321 319 319 318 318 318 318 315 314 316 317 319 322 324 328 328 329 330
312 311 311 310 310 310 310 310 310 310 309 309 310 310 310 310 310 310 309 311 313 315 318 318 319 320 319 318 316 316 315 316 317 314 315 315 318 322 322 322 327 327 330
310 309 309 309 308 308 307 307 307 307 308 309 310 310 311 311 311 311 310 310 310 312 312 314 315 314 316 317 317 316 315 314 313 312 314 314 315 316 320 322 323 326 326
308 308 307 307 306 305 305 306 307 307 308 309 309 310 310 310 309 308 306 306 309 310 311 312 313 314 315 316 316 317 316 316 315 314 316 316 316 315 317 320 323 324 325
307 306 305 304 305 305 305 306 307 307 307 307 307 307 307 306 305 302 302 304 304 306 308 310 312 313 314 314 315 315 316 315 315 314 313 313 312 311 314 318 320 322 324
304 304 304 304 304 305 305 304 303 303 303 303 302 302 303 302 300 300 301 302 304 307 308 310 310 311 313 313 312 313 313 313 312 313 313 313 313 314 314 318 319 321 320
303 303 303 303 303 302 301 300 299 297 296 297 297 297 297 298 299 299 299 300 302 305 306 307 307 308 308 309 309 309 309 310 311 312 313 314 316 317 318 318 319 321 320
302 301 300 299 297 295 294 293 293 294 295 296 296 297 297 298 298 300 301 301 302 303 304 305 306 306 307 309 309 310 310 310 311 312 313 314 315 318 319 319 320 320 320
297 296 294 292 292 292 292 292 294 294 295 296 297 298 298 299 301 303 301 302 302 302 304 306 306 307 307 308 308 308 308 308 309 310 311 312 316 318 318 320 319 319 316
292 291 291 291 292 293 294 294 294 295 295 296 297 298 298 300 301 302 302 300 301 306 307 306 306 307 308 308 309 309 312 313 309 309 311 313 317 318 319 317 315 317 318
291 291 291 291 292 293 293 293 294 295 295 296 296 296 297 299 299 299 298 298 298 301 305 309 310 311 312 311 313 313 316 315 319 316 314 316 319 318 317 316 317 319 320
290 290 290 290 291 292 292 293 294 294 294 294 293 293 294 295 296 296 296 298 300 303 307 309 311 312 311 315 314 315 316 316 316 318 319 319 317 317 316 318 319 320 321
288 288 289 290 291 292 293 294 296 295 295 294 295 295 295 295 296 296 297 299 303 305 307 310 311 312 312 315 314 316 317 315 316 317 318 318 318 318 319 319 320 321 322
288 289 290 290 291 293 295 296 297 297 296 296 297 297 297 298 298 298 299 301 304 307 310 311 313 313 316 316 316 317 319 320 319 319 319 320 320 320 320 321 321 322 324
288 289 289 290 292 294 297 297 297 296 296 298 297 299 300 300 300 301 301 302 307 307 308 311 312 316 317 318 317 319 320 321 321 320 321 320 319 319 320 321 322 323 324
288 289 290 292 295 298 297 297 297 297 297 298 300 302 301 301 303 304 304 307 307 305 308 311 312 316 318 318 318 320 320 321 322 321 321 320 320 320 321 321 321 321 322
289 290 292 295 297 298 297 298 298 299 299 300 301 302 301 302 305 305 306 307 305 304 308 311 312 317 319 320 320 321 320 322 321 321 321 321 320 320 320 321 321 321 322
289 290 292 295 297 298 298 298 300 300 299 299 300 303 302 304 306 306 306 305 303 304 308 310 313 318 319 318 320 321 321 321 321 320 320 320 320 320 320 321 321 322 323
289 289 291 293 295 297 298 300 300 300 299 299 300 302 304 306 307 306 306 305 303 306 308 310 314 320 320 322 321 321 321 320 321 321 321 321 321 321 321 321 320 320 321
287 288 288 290 291 293 295 298 298 299 301 302 304 305 306 307 306 304 303 304 304 306 310 313 316 320 321 321 320 320 319 320 321 321 320 320 318 315 317 318 320 320 320
286 286 286 287 288 289 290 292 293 294 296 299 303 305 306 306 305 305 305 304 305 309 314 315 317 319 320 320 318 318 317 319 318 316 316 316 316 317 317 317 318 319 319
285 285 285 285 285 286 287 288 289 290 292 294 296 299 301 302 304 304 304 308 310 315 317 317 319 320 319 318 318 315 317 315 315 316 317 317 316 316 316 317 318 319 320

GFSGL_925_thetae_123.txt.gz
Theta_e
328 328 328 328 328 328 328 328 328 329 330 331 330 329 329 330 330 330 329 328 327 327 325 325 325 324 323 322 321 321 321 321 325 321 321 321 322 324 323 327 329 332 333
323 324 325 325 324 325 326 326 327 327 327 327 327 327 327 327 328 330 329 329 329 328 327 326 326 326 325 324 323 322 321 321 323 326 322 322 322 324 325 327 328 330 332
320 320 321 322 322 322 322 322 322 322 322 322 322 323 324 325 325 326 328 329 328 328 328 328 326 325 325 325 325 324 323 323 323 323 323 320 319 318 320 322 322 329 332
319 318 318 319 319 319 319 318 318 319 319 319 319 320 320 320 320 321 322 324 325 327 326 327 327 327 326 325 325 324 324 324 323 322 322 321 319 318 320 323 324 326 329
317 317 317 316 316 316 316 316 316 316 316 316 316 316 315 316 316 317 319 320 321 322 322 324 324 325 325 324 324 324 323 323 323 322 321 319 317 317 321 319 323 326 327
315 315 315 314 314 314 313 313 313 313 313 313 313 313 313 313 313 312 312 313 313 314 316 316 318 319 320 321 321 321 321 321 322 321 320 320 319 316 317 318 319 322 326
314 313 313 312 312 312 311 311 311 311 311 311 311 312 312 313 313 312 312 312 313 314 314 315 315 313 314 315 316 318 320 319 319 318 319 318 318 317 316 317 316 321 323
312 311 311 310 309 309 308 308 309 309 310 311 311 311 312 312 312 310 309 307 309 310 310 311 312 313 315 315 316 317 317 318 318 318 316 317 316 316 316 317 317 317 319
310 309 308 307 307 307 307 308 309 309 309 308 308 307 308 308 307 306 305 303 304 305 307 308 308 308 309 311 313 314 316 317 317 317 317 316 314 315 316 316 314 314 317
308 307 306 306 306 307 307 306 305 304 304 303 302 301 300 299 300 301 301 300 301 301 302 304 306 307 309 311 312 314 316 316 316 315 316 315 315 314 313 313 314 315 316
306 305 305 305 305 304 302 300 298 296 296 296 296 296 297 297 298 298 298 298 299 300 301 303 306 308 308 309 309 310 314 313 313 313 313 313 313 313 314 315 315 315 318
304 304 303 301 299 296 294 293 293 294 294 294 295 296 297 297 298 298 298 299 299 301 302 304 305 306 306 306 306 307 307 308 309 310 311 312 314 314 314 316 317 317 318
300 298 298 295 292 292 292 293 294 295 295 295 296 297 298 299 299 300 300 302 301 301 302 303 304 305 305 306 306 306 307 309 310 311 313 313 313 314 316 317 318 320 320
294 292 291 292 292 292 293 294 296 296 296 296 297 297 298 298 299 299 301 302 301 300 301 303 304 306 307 308 308 309 309 310 311 311 311 312 312 314 315 316 320 321 321
290 290 291 291 291 291 291 292 294 295 296 296 296 296 296 297 297 299 298 297 297 297 297 298 302 307 310 311 310 312 312 312 311 310 310 310 312 313 315 317 320 320 319
289 289 289 289 290 290 291 292 295 295 296 296 295 295 294 294 294 294 295 296 296 298 296 299 308 310 311 313 312 314 314 315 316 318 313 312 313 314 317 319 318 318 319
288 288 289 289 290 291 291 294 296 297 298 298 297 297 296 296 295 295 295 296 298 299 300 308 310 310 312 313 314 314 316 316 316 313 313 314 317 318 317 317 317 319 320
288 289 289 290 290 291 293 295 298 298 298 298 299 298 298 298 297 298 298 298 299 304 306 309 310 312 314 314 313 314 316 317 318 319 319 320 320 318 318 319 320 317 318
288 289 290 290 291 293 295 298 298 298 298 298 299 301 300 300 300 301 301 300 304 306 309 308 311 313 315 315 315 316 318 318 320 321 321 321 321 320 320 321 321 321 323
289 290 291 292 294 298 300 299 299 299 299 300 301 302 303 304 305 306 306 307 308 307 306 310 312 313 316 316 317 318 321 322 322 322 321 321 321 320 321 322 322 323 325
290 291 292 295 298 299 299 300 301 301 300 300 302 304 302 302 305 307 308 307 307 305 307 311 312 314 316 317 320 321 322 322 322 321 322 321 321 322 322 321 321 323 325
290 290 292 296 298 298 298 299 301 300 300 300 302 304 305 306 307 308 307 308 307 306 310 312 312 315 316 319 320 321 322 322 321 321 321 320 320 320 321 321 324 324 325
289 289 290 293 294 295 297 298 298 298 299 302 305 306 306 307 308 307 307 306 306 308 311 311 313 317 320 321 318 320 322 321 321 321 321 321 321 321 321 321 321 324 325
288 288 288 288 289 291 292 295 296 296 298 302 302 301 303 306 306 307 306 305 306 309 312 313 317 319 315 322 320 320 322 322 322 321 320 319 319 318 318 319 320 321 325
286 287 287 287 287 287 288 290 291 293 295 298 300 299 298 299 300 302 304 306 308 310 313 316 317 320 322 320 320 319 319 318 317 318 318 317 317 317 317 318 319 319 323
285 286 286 286 286 286 286 287 288 289 290 292 294 295 295 295 297 299 301 303 310 315 317 318 320 321 321 319 317 318 317 316 316 317 318 317 317 317 317 317 318 318 320

GFSGL_925_thetae_126.txt.gz
Theta_e
329 329 330 330 329 329 330 330 330 329 329 330 331 331 332 333 332 332 331 330 329 329 328 326 326 326 327 327 324 323 323 322 323 323 321 321 321 320 319 322 324 324 327
324 325 326 326 326 326 327 326 326 327 327 328 328 329 329 329 329 331 331 331 331 331 330 329 329 328 327 326 326 326 324 323 323 322 322 322 321 323 319 317 315 317 318
321 321 322 322 322 323 323 322 322 323 323 323 323 323 323 323 324 325 326 328 330 330 330 330 329 329 328 327 328 326 326 326 326 325 324 324 324 320 319 318 320 323 322
319 319 319 319 319 319 319 319 319 319 319 319 319 320 320 320 321 321 322 322 323 324 326 327 327 327 327 327 327 325 325 325 324 324 323 323 322 321 320 320 319 317 319
318 318 318 317 317 317 317 317 317 317 317 317 317 317 317 317 317 317 316 316 316 317 318 320 322 323 324 324 324 324 324 324 323 323 323 323 323 322 320 317 320 318 316
317 316 316 315 315 315 314 314 314 315 315 315 315 314 314 314 314 314 313 313 313 314 314 315 315 315 315 315 315 316 317 322 322 322 322 322 322 321 320 316 318 317 316
315 314 313 313 313 312 312 312 311 312 312 312 312 312 312 312 313 313 311 311 310 311 312 313 314 314 314 315 316 317 316 316 316 318 321 321 321 320 319 318 317 318 317
313 312 312 311 310 310 309 309 310 310 311 312 312 312 311 310 310 309 308 307 307 307 308 308 309 310 310 310 312 313 315 316 317 318 318 318 319 319 319 318 317 316 316
312 311 310 308 308 308 308 309 309 308 307 307 307 306 306 306 306 306 305 302 301 301 302 303 304 305 306 307 307 307 309 311 312 313 315 318 318 317 317 317 317 316 315
309 308 307 307 307 307 306 305 304 303 302 302 301 299 299 299 300 300 299 299 299 300 300 301 302 302 303 303 304 306 309 312 314 315 316 317 316 316 316 315 316 316 315
307 306 306 305 303 302 301 299 297 296 295 295 296 297 297 297 297 298 298 298 299 299 300 300 301 301 302 303 305 307 309 310 311 313 314 315 316 315 316 316 315 315 314
304 303 301 300 298 295 294 294 293 293 293 295 296 296 297 298 299 299 299 299 299 299 299 300 301 303 303 304 304 305 306 306 307 308 309 312 314 315 314 314 315 315 316
298 297 296 293 292 292 292 293 293 293 295 297 297 297 297 298 298 299 300 299 299 301 299 300 301 302 303 304 305 304 305 305 306 307 309 310 310 311 313 314 315 315 315
293 291 291 291 291 291 291 291 291 292 293 295 297 297 297 297 298 298 299 300 300 300 299 298 298 299 302 304 305 307 307 306 307 308 309 310 311 312 312 313 314 316 318
290 290 290 290 290 290 290 290 291 292 293 295 296 296 296 296 296 296 296 296 296 296 296 296 297 300 302 306 308 310 311 309 310 309 310 311 311 311 313 314 316 316 319
289 288 289 289 290 290 291 291 293 294 296 297 297 297 297 296 296 295 295 295 295 295 295 296 298 301 305 310 311 311 312 312 312 312 311 311 310 310 309 314 316 316 320
288 288 289 290 291 291 291 292 293 296 298 298 298 299 299 298 298 297 296 296 296 296 295 298 301 305 310 311 311 312 314 315 316 314 315 313 311 311 310 312 316 318 320
289 290 290 290 291 291 292 293 295 299 299 299 300 301 301 300 300 299 298 297 297 300 301 301 306 309 310 312 314 314 315 315 318 314 313 313 313 313 314 316 318 319 319
290 290 291 291 292 294 295 297 299 299 300 300 301 302 303 303 302 301 300 298 301 304 305 308 308 311 312 314 313 313 315 318 318 319 317 317 316 316 318 319 318 319 319
290 290 291 293 295 298 299 300 302 302 301 301 302 304 304 303 305 307 306 306 307 306 306 308 311 312 314 315 315 316 315 316 318 318 320 319 319 319 318 319 318 319 320
289 290 291 295 298 298 299 299 300 300 300 301 302 304 304 304 306 307 308 308 307 306 306 309 311 312 315 316 317 319 319 318 323 321 321 319 317 316 319 317 316 317 321
289 289 291 293 295 296 297 297 298 298 299 302 302 302 303 307 308 308 308 307 307 308 310 310 311 312 317 317 316 315 318 323 321 319 318 322 321 322 322 322 322 322 321
289 288 289 289 290 291 293 296 296 295 298 301 300 299 299 300 303 305 307 308 308 308 310 311 311 316 319 315 315 316 318 321 322 320 321 320 320 321 322 322 323 324 322
287 287 287 287 287 288 288 291 293 293 295 297 297 297 296 296 298 299 300 304 308 310 310 311 313 317 318 317 318 319 318 319 320 319 318 318 319 319 320 323 322 323 320
286 286 286 286 286 286 287 288 289 289 291 292 292 292 292 293 294 295 298 301 306 313 314 316 315 313 316 317 316 315 317 318 318 318 318 319 317 317 317 319 322 324 320
286 285 285 286 286 286 286 286 287 287 287 288 288 289 290 291 291 293 295 300 303 306 312 317 318 315 313 311 312 315 315 316 317 317 317 317 317 316 317 318 317 322 321

GFSGL_925_thetae_129.txt.gz
Theta_e
327 328 327 326 326 328 328 328 327 328 328 328 329 330 332 334 333 333 331 330 330 330 328 327 327 326 326 325 325 326 326 324 321 322 322 322 321 320 320 320 320 318 315
324 325 324 324 324 323 324 324 324 323 323 323 323 324 324 325 325 326 329 331 332 332 332 331 330 329 329 328 327 327 326 326 324 323 323 322 323 323 322 322 319 318 317
319 319 319 319 320 320 319 319 319 319 318 318 319 320 320 321 321 321 321 322 322 324 325 327 327 327 327 327 326 327 327 327 326 325 324 324 325 324 323 322 321 320 319
318 318 317 317 317 318 318 318 318 318 317 317 317 317 317 317 317 317 317 317 317 317 316 317 319 321 324 325 326 326 326 325 324 324 323 323 322 322 322 321 320 320 319
316 316 316 315 315 315 314 314 314 314 314 314 315 315 315 315 315 315 315 314 313 313 313 312 313 313 313 314 314 315 318 322 323 323 322 322 322 321 321 322 321 319 317
315 314 313 313 312 312 311 312 312 312 312 313 313 313 312 312 312 312 312 312 311 311 310 311 312 313 314 315 315 314 315 315 315 316 320 321 320 321 321 321 317 317 313
313 313 312 311 310 309 308 308 308 309 310 311 311 312 312 311 312 310 310 309 308 308 308 308 308 309 310 311 311 311 310 310 311 314 315 315 317 319 320 320 319 318 316
312 311 311 309 308 307 308 308 308 307 306 306 306 306 306 307 306 307 306 306 304 304 304 303 304 305 307 307 308 309 309 309 310 311 313 315 317 318 318 319 319 318 317
310 309 307 307 306 305 304 303 303 302 302 301 301 301 301 301 301 301 300 300 299 299 299 300 301 302 303 303 303 303 304 305 306 307 307 309 311 312 314 318 318 317 317
306 305 304 302 301 300 299 299 298 297 297 296 295 295 296 297 298 299 298 298 297 298 299 299 300 300 301 302 302 302 303 304 305 307 310 313 314 314 315 316 317 316 315
302 301 300 299 297 296 294 294 293 294 293 293 294 294 296 297 297 298 298 299 298 298 299 299 299 300 301 301 302 302 302 303 304 307 310 309 310 313 315 316 316 316 315
297 296 295 294 293 292 292 292 293 293 293 293 294 295 297 297 297 298 298 298 299 299 299 299 299 300 300 301 302 302 302 303 303 304 306 306 307 310 313 315 315 315 315
293 292 291 291 291 291 291 291 291 292 292 293 294 295 296 297 298 298 298 298 299 299 300 300 299 300 300 300 301 302 302 303 303 303 305 305 306 307 311 314 314 315 315
291 290 290 290 290 290 290 290 291 291 291 292 293 295 296 297 297 297 297 297 297 297 297 297 297 298 299 299 300 302 303 304 304 304 305 305 306 308 309 309 311 313 313
289 289 289 289 289 290 291 291 291 293 293 292 293 294 295 296 296 296 296 296 295 295 295 294 295 297 298 299 301 303 306 307 307 306 306 306 306 308 310 311 311 311 313
289 289 289 289 290 291 291 292 295 297 298 298 299 298 298 298 298 298 298 297 296 295 294 295 296 297 299 301 303 307 310 310 311 310 308 308 309 310 311 312 312 313 315
289 290 290 290 291 291 292 292 293 299 300 299 300 301 302 302 301 300 299 298 297 296 294 295 297 299 301 304 308 310 312 312 314 313 312 311 310 310 310 310 310 315 316
290 291 291 291 292 293 294 295 295 296 298 300 302 302 304 304 303 302 300 299 298 300 299 298 300 302 305 309 311 314 314 314 317 314 313 314 312 311 311 310 309 314 316
289 290 291 292 294 295 297 299 300 300 301 301 302 303 304 304 305 305 303 301 300 300 303 305 306 309 311 313 315 315 316 317 316 315 313 313 312 312 311 311 311 313 317
289 290 291 293 295 297 298 298 299 299 299 300 302 302 300 305 305 306 307 306 305 305 306 307 309 311 312 314 316 317 316 316 318 318 316 314 314 314 313 315 316 316 318
289 290 290 292 292 293 294 296 297 296 297 300 300 299 298 301 303 305 307 307 308 308 308 309 311 311 313 316 316 316 316 316 316 319 318 317 317 317 318 317 318 318 319
289 289 289 289 289 290 290 293 295 294 295 297 297 297 296 297 298 299 301 301 304 307 309 310 311 312 317 316 316 317 317 318 317 315 315 316 317 316 317 316 318 319 319
288 288 288 288 288 288 288 290 291 291 292 293 293 293 293 294 295 295 297 299 304 309 312 312 313 316 316 316 315 310 316 319 318 319 319 319 318 318 318 317 319 320 318
287 286 287 287 287 287 287 288 288 289 289 290 290 290 291 291 292 293 295 299 305 312 314 313 316 314 316 313 310 312 318 318 318 318 318 319 320 321 321 320 319 319 316
287 287 287 286 286 286 286 287 287 287 287 288 288 288 289 290 290 292 295 297 300 308 311 312 312 310 309 308 309 312 316 317 317 316 316 317 318 320 322 322 320 317 314
287 287 287 287 287 287 286 286 286 286 286 286 287 287 288 288 289 290 293 296 297 302 306 307 306 306 307 307 308 311 315 316 317 317 316 316 315 315 316 321 320 316 313

GFSGL_925_thetae_132.txt.gz
Theta_e
324 324 323 323 323 323 323 323 323 324 325 324 324 325 328 330 332 332 333 332 332 331 331 330 328 327 327 327 326 326 325 325 321 323 323 323 322 322 322 322 322 322 321
319 319 318 318 318 318 318 318 318 318 317 318 318 319 320 320 321 321 321 322 322 322 324 328 329 329 329 329 329 328 327 327 324 323 323 323 323 324 324 323 322 322 321
317 317 316 316 316 316 315 316 316 316 316 316 315 315 315 315 315 316 317 317 317 317 317 317 317 318 321 323 326 326 326 326 325 323 324 324 325 325 324 324 323 322 322
316 316 315 314 313 313 313 313 313 314 315 315 315 315 315 315 315 315 315 315 315 314 313 313 312 312 312 313 314 314 317 321 323 323 323 323 323 323 323 322 321 321 321
314 313 312 312 311 310 310 309 309 309 310 310 311 311 312 312 312 312 312 312 312 311 311 310 310 311 312 313 314 313 314 314 315 317 320 321 321 320 321 321 321 321 321
313 312 311 310 309 307 307 307 307 308 308 308 309 309 310 310 310 311 311 310 310 309 308 308 309 308 309 310 311 313 313 313 312 313 313 314 316 319 320 320 320 317 313
311 310 308 307 307 306 306 306 305 305 304 304 304 304 304 305 305 305 305 305 304 304 303 304 304 304 305 305 305 306 307 308 309 309 309 309 310 313 315 317 317 318 316
307 306 306 305 304 303 303 302 301 300 300 299 299 299 299 299 299 300 300 299 299 299 300 300 300 301 301 302 303 304 305 306 307 308 309 309 310 311 313 316 317 317 317
303 302 302 301 301 300 299 298 297 296 296 296 296 296 296 296 297 297 297 298 298 299 299 299 299 299 300 300 301 301 302 303 303 303 303 304 306 307 307 309 312 314 315
299 298 298 297 296 295 294 294 293 293 293 294 294 294 294 295 296 297 298 297 297 297 298 298 299 299 300 300 300 301 301 302 302 303 304 305 306 308 311 312 311 312 315
296 296 295 295 294 293 292 292 292 293 293 293 294 294 295 296 297 297 297 298 298 298 298 299 299 299 300 299 300 300 300 301 301 302 303 304 308 310 309 308 309 313 315
293 294 293 292 291 291 291 291 291 291 292 292 293 294 295 296 296 297 297 298 297 298 298 299 299 299 299 299 299 300 300 301 300 300 302 303 305 305 306 306 306 310 314
291 291 291 291 290 291 291 291 291 292 292 292 293 294 295 296 297 297 297 297 297 297 297 297 297 298 298 298 299 300 299 298 299 300 301 303 304 304 305 305 305 310 314
290 290 290 290 291 292 292 292 292 293 293 293 293 294 295 296 296 297 297 297 297 296 296 295 295 295 295 296 298 299 299 300 299 300 302 303 303 304 305 305 306 311 314
290 290 290 290 291 292 293 293 294 296 295 294 294 295 295 296 298 298 297 296 296 296 296 295 295 295 295 297 298 299 301 302 303 303 304 305 304 304 305 306 307 308 311
289 290 290 291 292 292 293 294 298 298 300 300 300 300 301 301 302 302 300 299 298 297 296 295 295 296 297 298 300 301 303 305 307 307 307 307 306 305 305 307 308 309 310
290 290 291 291 292 292 293 294 295 299 301 301 301 302 302 302 304 304 303 302 301 299 297 296 296 297 298 300 302 303 305 307 310 311 311 309 308 307 307 309 311 311 312
289 291 291 291 292 293 295 297 297 299 300 300 301 301 301 304 306 307 306 304 303 301 300 299 299 301 302 305 307 310 313 314 314 315 314 312 309 309 309 310 310 310 314
290 290 290 292 293 295 297 297 298 298 298 299 300 299 299 303 304 306 306 305 303 302 304 304 305 307 309 312 314 315 315 316 317 313 314 313 310 311 311 310 309 309 313
290 290 290 291 292 292 293 295 296 294 294 297 298 298 294 297 299 300 301 303 305 306 306 307 309 311 314 316 316 316 317 317 317 313 312 312 312 312 311 309 309 311 313
289 289 289 290 289 290 291 292 293 293 292 294 294 294 293 294 296 296 297 299 300 301 304 308 311 313 314 314 315 315 316 317 317 315 314 313 312 311 311 312 312 313 317
288 288 288 288 288 288 289 290 290 290 291 291 291 292 292 292 293 294 295 297 299 304 309 312 312 311 309 307 308 312 315 317 316 316 317 316 315 315 316 316 317 318 317
287 287 287 287 287 288 288 288 288 289 289 289 289 290 290 290 291 292 294 295 299 306 311 307 306 306 303 304 307 312 315 317 319 318 318 317 317 317 317 319 318 318 315
287 287 287 287 287 287 287 287 287 287 288 288 288 288 289 289 289 291 292 295 297 303 303 302 303 302 303 306 309 312 314 316 316 317 318 319 317 317 317 318 319 317 313
288 288 288 287 287 287 287 287 287 287 287 287 287 287 287 288 288 289 291 293 295 297 299 299 300 304 306 306 308 311 315 315 314 314 318 320 320 319 319 319 317 316 314
287 287 287 287 287 286 286 286 286 286 286 286 286 286 286 287 287 288 289 290 292 293 294 296 297 300 304 306 308 309 311 313 314 313 313 314 317 320 320 318 317 315 314